[[{"header":{"parameterUnit":"m.s-1","parameterCategory":1,"la1":30.6,"la2":29.2853,"lo1":-89.7004,"lo2":-87.6739,"dy":0.0162,"dx":0.0183,"nx":112,"ny":82,"refTime":"2024-04-02T18:00:00:Z","depth":0,"parameterNumber":2,"parameterNumberName":"U-component_of_WINDS"},"data":[0.0,0.0,0.0,0.0,0.0,0.0,0.0,0.0,0.0,0.0,0.0,0.0,0.0,0.0,0.0,0.0,0.0,0.0,0.0,0.0,0.0,0.0,0.0,0.0,0.0,0.0,0.0,0.0,0.0,0.0,0.0,0.0,0.0,0.0,0.0,0.0,0.0,0.0,0.0,0.0,0.0,0.0,0.0,0.0,0.0,0.0,0.0,0.0,0.0,0.0,0.0,0.0,0.0,0.0,0.0,0.0,0.0,0.0,0.0,0.0,0.0,0.0,0.0,0.0,0.0,0.0,0.0,0.0,0.0,0.0,0.0,0.0,0.0,0.0,0.0,0.0,0.0,0.0,0.0,0.0,0.0,0.0,0.0,0.0,0.0,0.0,0.0,0.0,0.0,0.0,2.1698,2.4381,2.8191,3.0576,3.0675,2.9052,2.6601,2.3288,0.0,0.0,0.0,0.0,0.0,0.0,0.0,0.0,0.0,0.0,0.0,0.0,0.0,0.0,0.0,0.0,0.0,0.0,0.0,0.0,0.0,0.0,0.0,0.0,0.0,0.0,0.0,0.0,0.0,0.0,0.0,0.0,0.0,0.0,0.0,0.0,0.0,0.0,0.0,0.0,0.0,0.0,0.0,0.0,0.0,0.0,0.0,0.0,0.0,0.0,0.0,0.0,0.0,0.0,0.0,0.0,0.0,0.0,0.0,0.0,0.0,0.0,0.0,0.0,0.0,0.0,0.0,0.0,0.0,0.0,0.0,0.0,0.0,0.0,0.0,0.0,0.0,0.0,0.0,0.0,0.0,0.0,0.0,0.0,0.0,0.0,0.0,0.0,0.0,0.0,0.0,0.0,0.0,0.0,0.0,0.0,0.0,0.0,0.0,0.0,0.0,0.0,0.0,0.0,2.2524,2.723,2.9383,3.0775,3.1361,2.8423,2.5773,2.3951,0.0,0.0,0.0,0.0,0.0,0.0,0.0,0.0,0.0,0.0,0.0,0.0,0.0,0.0,0.0,0.0,0.0,0.0,0.0,0.0,0.0,0.0,0.0,0.0,0.0,0.0,0.0,0.0,0.0,0.0,0.0,0.0,0.0,0.0,0.0,0.0,0.0,0.0,0.0,0.0,0.0,0.0,0.0,0.0,0.0,0.0,0.0,0.0,0.0,0.0,0.0,0.0,0.0,0.0,0.0,0.0,0.0,0.0,0.0,0.0,0.0,0.0,0.0,0.0,0.0,0.0,0.0,0.0,0.0,0.0,0.0,0.0,0.0,0.0,0.0,0.0,0.0,0.0,0.0,0.0,0.0,0.0,0.0,0.0,0.0,0.0,0.0,0.0,0.0,0.0,0.0,0.0,0.0,0.0,0.0,0.0,0.0,0.0,0.0,0.0,0.0,0.0,0.0,2.2062,2.4149,2.8489,2.988,3.0675,3.1007,2.8058,2.5574,2.4083,2.1864,0.0,0.0,0.0,0.0,0.0,0.0,0.0,0.0,0.0,0.0,0.0,0.0,0.0,0.0,0.0,0.0,0.0,0.0,0.0,0.0,0.0,0.0,0.0,0.0,0.0,0.0,0.0,0.0,0.0,0.0,0.0,0.0,0.0,0.0,0.0,0.0,0.0,0.0,0.0,0.0,0.0,0.0,0.0,0.0,0.0,0.0,0.0,0.0,0.0,0.0,0.0,0.0,0.0,0.0,0.0,0.0,0.0,0.0,0.0,0.0,0.0,0.0,0.0,0.0,0.0,0.0,0.0,0.0,0.0,0.0,0.0,0.0,0.0,0.0,0.0,0.0,0.0,0.0,0.0,0.0,0.0,0.0,0.0,0.0,0.0,0.0,0.0,0.0,0.0,0.0,0.0,0.0,0.0,0.0,0.0,0.0,0.0,0.0,0.0,0.0,0.0,0.0,2.4348,2.5971,2.9085,3.0079,3.0444,3.0278,2.7628,2.5408,2.4083,2.1073,0.0,0.0,0.0,0.0,0.0,0.0,0.0,0.0,0.0,0.0,0.0,0.0,0.0,0.0,0.0,0.0,0.0,0.0,0.0,0.0,0.0,0.0,0.0,0.0,0.0,0.0,0.0,0.0,0.0,0.0,0.0,0.0,0.0,0.0,0.0,0.0,0.0,0.0,0.0,0.0,0.0,0.0,0.0,0.0,0.0,0.0,0.0,0.0,0.0,0.0,0.0,0.0,0.0,0.0,0.0,0.0,0.0,0.0,0.0,0.0,0.0,0.0,0.0,0.0,0.0,0.0,0.0,0.0,0.0,0.0,0.0,0.0,0.0,0.0,0.0,0.0,0.0,0.0,0.0,0.0,0.0,0.0,0.0,0.0,0.0,0.0,0.0,0.0,0.0,0.0,0.0,0.0,0.0,0.0,0.0,0.0,0.0,0.0,0.0,0.0,0.0,0.0,2.5342,2.7661,2.9251,3.0079,3.0245,2.9549,2.6833,2.4845,2.405,2.0605,0.0,0.0,0.0,0.0,0.0,0.0,0.0,0.0,0.0,0.0,0.0,0.0,0.0,0.0,0.0,0.0,0.0,0.0,0.0,0.0,0.0,0.0,0.0,0.0,0.0,0.0,0.0,0.0,0.0,0.0,0.0,0.0,0.0,0.0,0.0,0.0,0.0,0.0,0.0,0.0,0.0,0.0,0.0,0.0,0.0,0.0,0.0,0.0,0.0,0.0,0.0,0.0,0.0,0.0,0.0,0.0,0.0,0.0,0.0,0.0,0.0,0.0,0.0,0.0,0.0,0.0,0.0,0.0,0.0,0.0,0.0,0.0,0.0,0.0,0.0,0.0,0.0,0.0,0.0,0.0,0.0,0.0,0.0,0.0,0.0,0.0,0.0,0.0,0.0,0.0,0.0,0.0,0.0,0.0,0.0,0.0,0.0,0.0,0.0,0.0,0.0,0.0,2.4944,2.6998,0.0,2.9947,2.9715,2.945,2.6766,2.4779,2.405,0.0,0.0,0.0,0.0,0.0,0.0,0.0,0.0,0.0,0.0,0.0,0.0,0.0,0.0,0.0,0.0,0.0,0.0,0.0,0.0,0.0,0.0,0.0,0.0,0.0,0.0,0.0,0.0,0.0,0.0,0.0,0.0,0.0,0.0,0.0,0.0,0.0,0.0,0.0,0.0,0.0,0.0,0.0,0.0,0.0,0.0,0.0,0.0,0.0,0.0,0.0,0.0,0.0,0.0,0.0,0.0,0.0,0.0,0.0,0.0,0.0,0.0,0.0,0.0,0.0,0.0,0.0,0.0,0.0,0.0,0.0,0.0,0.0,0.0,0.0,0.0,0.0,0.0,0.0,0.0,0.0,0.0,0.0,0.0,0.0,0.0,0.0,0.0,0.0,0.0,0.0,0.0,0.0,0.0,0.0,0.0,0.0,0.0,0.0,0.0,0.0,0.0,2.3653,2.5243,2.7098,0.0,2.9582,2.9152,2.8456,2.617,2.4448,2.3686,0.0,0.0,0.0,0.0,0.0,0.0,0.0,0.0,0.0,0.0,0.0,0.0,0.0,0.0,0.0,0.0,0.0,0.0,0.0,0.0,0.0,0.0,0.0,0.0,0.0,0.0,0.0,0.0,0.0,0.0,0.0,0.0,0.0,0.0,0.0,0.0,0.0,0.0,0.0,0.0,0.0,0.0,0.0,0.0,0.0,0.0,0.0,0.0,0.0,0.0,0.0,0.0,0.0,0.0,0.0,0.0,0.0,0.0,0.0,0.0,0.0,0.0,0.0,0.0,0.0,0.0,0.0,0.0,0.0,0.0,0.0,0.0,0.0,0.0,0.0,0.0,0.0,0.0,0.0,0.0,0.0,0.0,0.0,0.0,0.0,0.0,0.0,0.0,0.0,0.0,0.0,0.0,0.0,0.0,0.0,0.0,0.0,0.0,0.0,0.0,0.0,0.0,2.3918,2.6568,2.8428,2.8428,2.8986,2.8555,2.6435,2.4878,2.3686,0.0,0.0,0.0,0.0,0.0,0.0,0.0,0.0,0.0,0.0,0.0,0.0,0.0,0.0,0.0,0.0,0.0,0.0,0.0,0.0,0.0,0.0,0.0,0.0,0.0,0.0,0.0,0.0,0.0,0.0,0.0,0.0,0.0,0.0,0.0,0.0,0.0,0.0,0.0,0.0,0.0,0.0,0.0,0.0,0.0,0.0,0.0,0.0,0.0,0.0,0.0,0.0,0.0,0.0,0.0,0.0,0.0,0.0,0.0,0.0,0.0,0.0,0.0,0.0,0.0,0.0,0.0,0.0,0.0,0.0,0.0,0.0,0.0,0.0,0.0,0.0,0.0,0.0,0.0,0.0,0.0,0.0,0.0,0.0,0.0,0.0,0.0,0.0,0.0,0.0,0.0,0.0,0.0,0.0,0.0,0.0,0.0,0.0,0.0,0.0,0.0,0.0,0.0,2.4547,2.6435,2.8191,2.9715,2.9152,2.8423,2.7793,2.5614,2.411,2.3686,0.0,0.0,0.0,0.0,0.0,0.0,0.0,0.0,0.0,0.0,0.0,0.0,0.0,0.0,0.0,0.0,0.0,0.0,0.0,0.0,0.0,0.0,0.0,0.0,0.0,0.0,0.0,0.0,0.0,0.0,0.0,0.0,0.0,0.0,0.0,0.0,0.0,0.0,0.0,0.0,0.0,0.0,0.0,0.0,0.0,0.0,0.0,0.0,0.0,0.0,0.0,0.0,0.0,0.0,0.0,0.0,0.0,0.0,0.0,0.0,0.0,0.0,0.0,0.0,0.0,0.0,0.0,0.0,0.0,0.0,0.0,0.0,0.0,0.0,0.0,0.0,0.0,0.0,0.0,0.0,0.0,0.0,0.0,0.0,0.0,0.0,0.0,0.0,0.0,0.0,0.0,0.0,0.0,0.0,0.0,0.0,0.0,0.0,0.0,0.0,0.0,0.0,2.4911,2.6634,2.8224,2.9516,2.9043,2.8352,2.7751,2.5813,2.4354,2.3775,0.0,0.0,0.0,0.0,0.0,0.0,0.0,0.0,0.0,0.0,0.0,0.0,0.0,0.0,0.0,0.0,0.0,0.0,0.0,0.0,0.0,0.0,0.0,0.0,0.0,0.0,0.0,0.0,0.0,0.0,0.0,0.0,0.0,0.0,0.0,0.0,0.0,0.0,0.0,0.0,0.0,0.0,0.0,0.0,0.0,0.0,0.0,0.0,0.0,0.0,0.0,0.0,0.0,0.0,0.0,0.0,0.0,0.0,0.0,0.0,0.0,0.0,0.0,0.0,0.0,0.0,0.0,0.0,0.0,0.0,0.0,0.0,0.0,0.0,0.0,0.0,0.0,0.0,0.0,0.0,0.0,0.0,0.0,0.0,0.0,0.0,0.0,0.0,0.0,0.0,0.0,0.0,0.0,0.0,0.0,0.0,0.0,0.0,0.0,0.0,0.0,0.0,2.511,2.7065,2.8461,2.8533,2.877,2.8313,2.6995,2.572,2.4579,2.36,0.0,0.0,0.0,0.0,0.0,0.0,0.0,0.0,0.0,0.0,0.0,0.0,0.0,0.0,0.0,0.0,0.0,0.0,0.0,0.0,0.0,0.0,0.0,0.0,0.0,0.0,0.0,0.0,0.0,0.0,0.0,0.0,0.0,0.0,0.0,0.0,0.0,0.0,0.0,0.0,0.0,0.0,0.0,0.0,0.0,0.0,0.0,0.0,0.0,0.0,0.0,0.0,0.0,0.0,0.0,0.0,0.0,0.0,0.0,0.0,2.2677,0.0,0.0,0.0,0.0,0.0,0.0,0.0,0.0,0.0,0.0,0.0,0.0,0.0,0.0,0.0,0.0,0.0,0.0,0.0,0.0,0.0,0.0,0.0,0.0,0.0,0.0,0.0,0.0,0.0,0.0,0.0,0.0,0.0,0.0,0.0,0.0,0.0,0.0,0.0,0.0,0.0,2.5806,2.7396,2.8705,2.9542,2.9185,2.8623,2.8013,2.6599,2.5429,2.4614,2.3824,0.0,0.0,0.0,0.0,0.0,0.0,0.0,0.0,0.0,0.0,0.0,0.0,0.0,0.0,0.0,0.0,0.0,0.0,0.0,0.0,0.0,0.0,0.0,0.0,0.0,0.0,0.0,0.0,0.0,0.0,0.0,0.0,0.0,0.0,0.0,0.0,0.0,0.0,0.0,0.0,0.0,0.0,0.0,0.0,0.0,0.0,0.0,0.0,0.0,0.0,0.0,0.0,0.0,0.0,0.0,0.0,0.0,0.0,0.0,0.0,2.3371,0.0,0.0,0.0,0.0,0.0,0.0,0.0,0.0,0.0,0.0,0.0,0.0,0.0,0.0,0.0,0.0,0.0,0.0,0.0,0.0,0.0,0.0,0.0,0.0,0.0,0.0,0.0,0.0,0.0,0.0,0.0,0.0,0.0,0.0,0.0,0.0,0.0,0.0,0.0,0.0,2.5541,2.7263,2.881,2.9897,2.9816,2.9522,2.9136,2.7862,2.6667,2.5784,2.4642,0.0,0.0,0.0,0.0,0.0,0.0,0.0,0.0,0.0,0.0,0.0,0.0,0.0,0.0,0.0,0.0,0.0,0.0,0.0,0.0,0.0,0.0,0.0,0.0,0.0,0.0,0.0,0.0,0.0,0.0,0.0,0.0,0.0,0.0,0.0,0.0,0.0,0.0,0.0,0.0,0.0,0.0,0.0,0.0,0.0,0.0,0.0,0.0,0.0,0.0,0.0,0.0,0.0,2.6922,2.7833,2.8386,2.9303,2.9783,2.9748,2.7141,2.5605,2.4884,2.4795,0.0,0.0,0.0,0.0,0.0,0.0,0.0,0.0,0.0,0.0,0.0,0.0,0.0,0.0,0.0,0.0,0.0,0.0,0.0,0.0,0.0,0.0,0.0,0.0,2.6308,2.6139,0.0,0.0,0.0,0.0,0.0,0.0,0.0,0.0,0.0,0.0,0.0,0.0,2.5375,2.7164,2.8815,2.9901,3.0307,3.0318,2.9814,2.8894,2.7875,2.6717,2.5349,2.4336,0.0,0.0,0.0,0.0,0.0,0.0,0.0,0.0,0.0,0.0,0.0,0.0,0.0,0.0,0.0,0.0,0.0,0.0,0.0,0.0,0.0,0.0,0.0,0.0,0.0,0.0,0.0,0.0,0.0,0.0,0.0,0.0,2.1087,2.1464,0.0,0.0,0.0,0.0,0.0,0.0,0.0,0.0,0.0,0.0,0.0,0.0,0.0,2.5172,2.6535,2.6887,2.7979,2.9799,3.0316,3.1105,3.2197,3.2303,3.2763,3.3407,3.298,0.0,2.7324,2.6845,0.0,0.0,0.0,0.0,0.0,0.0,0.0,0.0,0.0,0.0,0.0,0.0,0.0,0.0,0.0,0.0,0.0,0.0,0.0,0.0,0.0,0.0,2.8549,2.9299,2.8766,2.831,0.0,2.6956,2.4911,2.4713,2.4315,0.0,0.0,0.0,0.0,0.0,0.0,0.0,2.6836,2.7831,2.881,2.9892,3.0304,3.0076,2.9047,2.8855,2.8264,2.7032,2.6219,2.56,2.5162,2.4746,0.0,0.0,0.0,0.0,0.0,0.0,0.0,0.0,0.0,0.0,0.0,0.0,0.0,0.0,0.0,0.0,0.0,0.0,0.0,0.0,0.0,0.0,0.0,0.0,0.0,0.0,0.0,0.0,0.0,2.1112,2.173,2.153,2.1792,2.1825,0.0,0.0,0.0,0.0,0.0,0.0,0.0,0.0,0.0,2.57,2.6858,2.7789,2.8456,2.9719,3.1086,3.2599,3.384,3.4871,3.5543,3.6006,3.6399,3.672,3.6256,3.501,3.3128,3.0659,2.8849,2.7564,0.0,0.0,0.0,0.0,2.6539,2.6568,2.6644,2.7198,0.0,2.6493,0.0,0.0,0.0,0.0,0.0,0.0,0.0,0.0,0.0,0.0,3.0825,3.2101,3.229,3.2383,3.2887,3.1542,2.9437,0.0,2.6402,2.6071,2.4845,0.0,0.0,0.0,0.0,2.621,2.7461,2.8602,2.9668,3.0593,3.1185,3.1217,3.0517,3.0052,2.9367,2.8405,2.7197,2.6423,2.6106,2.5316,2.4619,0.0,0.0,0.0,0.0,0.0,0.0,0.0,0.0,0.0,0.0,0.0,0.0,0.0,0.0,0.0,0.0,0.0,0.0,0.0,0.0,0.0,0.0,0.0,0.0,0.0,0.0,0.0,0.0,2.2018,2.2736,2.1626,2.2606,2.2965,0.0,0.0,0.0,0.0,0.0,0.0,2.5064,2.6455,2.7618,2.851,2.984,3.0709,3.1106,3.2689,3.4165,3.5538,3.7171,3.827,3.879,3.9432,3.9718,3.9682,3.904,3.8683,3.8183,3.4436,3.2117,3.0761,2.9369,2.8798,2.8841,2.9213,2.9359,2.9496,3.0066,3.0631,3.0871,2.9312,0.0,2.8735,2.7366,0.0,0.0,0.0,0.0,3.0071,3.1638,3.2576,3.3477,3.5114,3.5798,3.6069,3.5943,3.5451,3.3795,0.0,2.8795,2.8281,2.6647,0.0,0.0,0.0,0.0,2.7326,2.8174,2.9293,3.0299,3.1116,3.1672,3.1882,3.1568,3.0995,3.0386,2.9726,2.8464,2.7634,2.731,2.6435,2.5621,2.5065,0.0,0.0,0.0,0.0,0.0,0.0,0.0,0.0,0.0,0.0,0.0,0.0,0.0,0.0,0.0,0.0,0.0,0.0,0.0,0.0,0.0,0.0,0.0,0.0,0.0,0.0,0.0,0.0,0.0,2.1941,2.4215,0.0,0.0,0.0,0.0,2.5622,2.6418,2.7514,2.8966,2.9799,3.094,3.2365,3.316,3.4253,3.5644,3.6283,3.7536,3.9399,3.9957,4.0884,4.2037,4.2109,4.2109,4.2109,4.2073,4.1609,4.0681,3.747,3.5685,3.4829,3.4044,3.3758,3.3758,3.3761,3.3761,3.3797,3.3832,3.3868,3.3868,3.3794,3.306,3.2117,3.1238,3.0797,0.0,0.0,3.2191,3.3671,3.5072,3.6054,3.7075,3.8655,3.8746,3.8365,3.8012,3.7589,3.6326,0.0,3.1268,2.998,2.9844,0.0,2.8578,2.8268,2.8863,2.9349,2.9337,2.9743,3.0277,3.1026,3.1128,3.1127,3.1144,3.1072,3.0917,3.0481,3.0097,2.9647,2.9269,2.89,2.7982,2.6535,2.6155,0.0,0.0,0.0,0.0,0.0,0.0,0.0,0.0,0.0,0.0,0.0,0.0,0.0,0.0,0.0,0.0,0.0,0.0,0.0,0.0,0.0,0.0,0.0,0.0,0.0,0.0,0.0,0.0,2.5603,2.7879,0.0,2.6956,2.7683,2.8174,2.7977,2.9222,3.0393,3.1331,3.2607,3.4021,3.5479,3.6704,3.7798,3.8791,3.9799,4.0612,4.1291,4.165,4.2035,4.2494,4.2376,4.2573,4.3036,4.2501,4.243,4.2537,4.086,3.9147,3.7398,3.6078,3.5899,3.6328,3.6328,3.697,3.7755,3.7291,3.7791,3.8362,3.6827,3.5366,3.4195,3.391,3.4091,3.4518,3.519,3.5723,3.6541,3.7993,3.8241,3.849,4.0091,4.0324,4.017,4.005,3.9509,3.8541,3.7026,3.4568,3.2513,3.2035,3.1313,3.0857,3.0909,3.1133,3.1564,3.227,3.2012,3.2317,3.3598,3.3318,3.3037,3.3027,3.2069,3.1115,3.0243,2.9349,2.8705,2.8335,2.8182,2.7752,2.6983,2.6673,2.6318,0.0,0.0,0.0,0.0,0.0,0.0,0.0,0.0,0.0,0.0,0.0,0.0,0.0,0.0,0.0,0.0,0.0,0.0,0.0,0.0,0.0,0.0,0.0,0.0,0.0,0.0,2.8421,2.8484,3.0761,3.1667,2.9923,3.0729,3.1232,3.0959,3.2451,3.3749,3.4643,3.5877,3.7199,3.8526,3.9433,4.0194,4.0713,4.1695,4.2098,4.1827,4.2632,4.2858,4.2658,4.2931,4.3358,4.3857,4.3036,4.3001,4.3465,4.2644,4.1359,3.986,3.8504,3.829,3.8754,3.8754,3.9611,4.0646,4.0146,4.0646,4.1145,3.904,3.7648,3.6792,3.6792,3.7148,3.7684,3.8219,3.8362,3.8683,3.9968,3.9753,3.9575,4.1145,4.1288,4.1109,4.1109,4.0681,4.0036,3.9132,3.6658,3.4488,3.3848,3.3121,3.2586,3.2461,3.2815,3.3225,3.3739,3.3481,3.3509,3.434,3.4093,3.3741,3.3523,3.2743,3.193,3.102,3.0213,2.9509,2.886,2.8981,2.8583,2.7592,2.7504,2.7259,2.6932,0.0,0.0,0.0,0.0,0.0,0.0,0.0,0.0,0.0,0.0,0.0,0.0,0.0,0.0,0.0,0.0,0.0,0.0,0.0,0.0,0.0,0.0,0.0,2.514,2.863,3.0977,3.025,3.2831,3.3794,3.1634,3.284,3.4036,3.4579,3.6073,3.7538,3.8952,3.9631,4.0409,4.1385,4.1304,4.1304,4.1475,4.1942,4.1895,4.1238,4.2978,4.3419,4.2808,4.3997,4.4571,4.4535,4.3786,4.35,4.3465,4.2644,4.2287,4.2216,4.1431,4.1145,4.1181,4.1181,4.168,4.2358,4.2323,4.2323,4.2109,4.0503,4.0003,4.0039,4.0003,3.9968,3.9968,3.9968,3.9968,4.0146,4.0895,4.0538,4.0324,4.1895,4.168,4.1109,4.1145,4.1109,4.074,3.9511,3.7466,3.5808,3.5342,3.4599,3.3761,3.2873,3.3842,0.0,3.359,3.3802,3.3766,3.308,3.3276,3.3146,3.2441,3.3073,3.3317,3.287,3.283,3.2278,3.1107,3.143,3.0596,2.8352,2.8728,2.877,2.8461,0.0,0.0,0.0,0.0,0.0,0.0,0.0,0.0,0.0,0.0,0.0,0.0,0.0,0.0,0.0,0.0,0.0,0.0,0.0,0.0,0.0,2.683,2.8533,2.8533,3.1329,3.3697,3.4475,3.63,3.7004,3.5864,3.7122,3.7872,3.7514,3.8962,3.9968,4.0246,4.0533,4.1049,4.1822,4.1796,4.2118,4.2822,4.2999,4.3246,4.3572,4.334,4.3284,4.35,4.3109,4.3251,4.3786,4.2965,4.2965,4.3465,4.2644,4.2287,4.2251,4.2037,4.2323,4.2858,4.2858,4.3322,4.3893,4.3358,4.3536,4.3714,4.2144,4.2037,4.2394,4.1823,4.1645,4.1645,4.1645,4.1645,4.1538,4.1181,4.0931,4.0895,4.1324,4.1252,4.1252,4.1823,4.1502,4.0998,4.0664,3.9597,3.8235,3.6636,3.5797,3.5118,3.4548,3.4506,0.0,3.5351,3.5063,3.5054,3.5723,3.5366,3.4774,3.4018,3.3634,3.2932,3.1729,3.1351,3.08,2.997,3.0269,2.9929,2.8762,2.9101,2.9198,0.0,0.0,0.0,0.0,0.0,0.0,0.0,0.0,0.0,0.0,0.0,0.0,0.0,0.0,0.0,0.0,0.0,0.0,0.0,0.0,0.0,0.0,2.9406,3.1639,3.2805,3.4475,3.6084,3.7469,3.8659,3.9235,3.8813,3.9585,3.991,3.943,4.0587,4.1265,4.1173,4.1499,4.1885,4.2458,4.243,4.2687,4.3235,4.3235,4.331,4.3447,4.3761,4.3888,4.3889,4.4112,4.45,4.4892,4.375,4.3536,4.3893,4.2751,4.2287,0.0,0.0,0.0,0.0,0.0,4.3786,4.4107,4.3679,4.4,4.4428,4.3179,4.3322,4.3822,4.3036,4.3001,4.3144,4.2465,4.2537,4.2608,4.1787,4.1359,4.1288,4.1966,4.1573,4.1395,4.2573,4.218,4.1533,4.1328,4.0811,0.0,3.8093,3.697,3.6011,3.5214,3.4788,3.4816,3.5656,3.538,3.5399,3.6098,3.6028,3.5545,3.4686,3.4658,0.0,0.0,0.0,3.2051,3.1637,3.1219,0.0,0.0,0.0,3.0477,3.0775,0.0,0.0,0.0,3.104,3.1394,0.0,0.0,0.0,0.0,0.0,0.0,0.0,0.0,0.0,0.0,0.0,0.0,0.0,0.0,0.0,0.0,3.2031,3.4522,3.7307,3.776,3.8246,3.9444,4.0124,4.048,4.048,4.0696,4.0729,4.061,4.1411,4.1862,4.1862,0.0,0.0,0.0,0.0,4.2961,4.3052,4.3052,4.2785,4.2249,4.399,4.4521,4.4027,4.5703,4.6529,4.6504,4.5081,4.452,4.4456,4.3036,4.2358,4.2287,4.2287,4.2287,4.2394,4.3108,4.3429,4.35,4.3393,0.0,0.0,4.3786,4.4071,4.4607,4.3857,4.4107,4.4321,4.2929,4.3072,4.3465,4.2644,4.1895,4.1716,4.3179,4.243,4.1787,4.3322,4.3072,4.2412,4.1912,4.1498,4.0882,3.9729,3.8128,3.6596,3.5572,3.5114,3.4983,3.5296,3.5324,3.529,3.5267,0.0,0.0,3.4863,3.5651,3.5758,3.4725,3.4653,3.4579,3.4541,3.3196,3.2883,3.3814,3.2563,3.2166,3.2796,3.2895,3.2928,3.2928,3.2829,3.2751,0.0,0.0,0.0,0.0,0.0,0.0,0.0,0.0,0.0,0.0,0.0,0.0,0.0,0.0,0.0,3.373,3.5551,3.7307,3.9573,4.0383,4.0642,4.0318,4.0415,4.048,4.048,4.1091,4.1415,4.1355,4.2002,4.2423,4.2423,4.2553,4.2618,4.268,4.268,4.2775,4.2961,4.2961,4.3169,4.3589,0.0,0.0,4.3663,4.3477,4.3558,4.3938,4.3815,4.399,4.4307,4.3558,4.2894,4.2287,4.2287,4.2287,4.2323,4.2465,4.2929,4.3429,4.2751,4.3857,4.5356,4.3964,4.4464,4.5427,4.4642,4.45,0.0,4.425,4.4285,4.4214,4.3465,4.3144,4.3108,4.3429,4.3286,4.3286,4.4214,4.4285,4.41,4.4013,4.2959,4.2002,4.1736,3.9287,3.7366,3.7475,3.6835,3.6423,3.6561,3.6571,3.6326,3.5657,3.5203,3.5066,3.5457,3.5146,3.4976,3.5083,3.4835,3.4541,3.4125,3.3509,3.3136,3.2971,3.3217,3.3425,3.3591,3.4187,3.4452,3.4452,3.3856,3.3545,0.0,0.0,0.0,0.0,0.0,0.0,0.0,0.0,0.0,0.0,0.0,2.7034,2.8637,0.0,3.2889,3.5979,3.7584,3.9023,4.0772,4.1355,4.1419,4.1063,4.1355,4.1549,4.1549,4.1873,4.2099,4.2099,4.2423,4.2618,4.2618,4.2618,4.2618,4.2618,4.2618,4.2812,4.3295,4.2938,4.3124,4.385,4.3414,4.3394,4.3608,4.3654,4.3941,4.435,4.4069,4.4222,4.46,4.3951,4.3606,4.3465,4.3337,4.2917,4.2287,4.2287,4.2537,4.2822,4.243,4.3322,4.4571,4.4178,4.4856,4.5713,4.532,4.5499,4.5641,4.4856,4.4892,4.5035,4.425,4.4071,4.4178,4.4571,4.4357,4.4285,4.5035,4.4892,4.4607,4.4607,4.3679,4.2894,4.2894,4.0961,3.9223,3.8549,3.7737,3.7114,3.693,3.6701,3.6486,3.6334,3.5754,3.5723,3.6569,3.6101,3.5738,3.5703,3.5549,3.5267,3.4814,3.4601,3.4385,3.4164,3.4659,3.4883,3.4883,3.5644,3.6009,3.6009,3.5563,3.5102,0.0,0.0,0.0,0.0,0.0,0.0,0.0,0.0,2.5623,2.7128,2.8654,3.013,3.1647,3.3678,3.5678,3.7633,3.9062,4.0318,4.1614,4.1905,4.1938,4.1808,4.2423,4.2844,4.2844,4.2844,4.278,4.2587,4.2618,4.2618,4.2618,4.2618,4.2682,4.2844,4.2844,4.3201,4.3913,4.3201,4.3136,4.3686,4.3558,4.3495,4.3495,4.4068,4.4661,4.5039,4.4526,4.4489,4.4698,4.4104,4.3992,4.4173,4.4117,4.3491,4.2683,4.2567,4.243,4.2287,4.2287,4.2822,4.3607,4.4214,4.4928,4.5606,4.5749,4.6248,4.6534,4.5392,4.5534,4.5891,4.5249,4.5071,4.5249,4.5891,4.5534,4.5249,4.5891,4.5534,4.5071,4.5071,4.4214,4.3572,4.3714,4.2455,4.0941,3.9522,3.8783,3.8135,3.7431,3.7079,3.7004,3.7224,3.6771,3.6781,3.754,3.7243,3.686,3.6464,3.6464,3.6291,3.5864,3.5868,3.5881,3.5791,3.6052,3.6208,3.6208,3.6804,3.7102,3.7102,3.6949,3.6467,2.151,2.1266,2.2173,2.439,2.4842,2.571,0.0,0.0,3.0188,3.0479,3.2091,3.3578,3.3847,3.5609,3.7673,3.9786,4.0858,4.1614,4.2391,4.3071,4.3233,4.2585,4.3136,4.3589,4.3589,4.3589,4.333,4.2682,4.2618,4.2618,4.2618,4.2618,4.2909,4.3589,4.3589,4.3945,4.4658,4.3945,4.3622,4.3686,4.3037,4.2743,4.2743,4.2772,4.3141,4.3588,4.4181,4.4184,4.3768,4.3699,4.3288,4.2757,4.3192,4.3652,4.4028,4.3518,4.2929,4.2287,4.2287,4.2822,4.3536,4.3607,4.4143,4.4892,4.557,4.5856,4.6034,4.6569,4.6783,4.6855,4.6748,4.6712,4.6748,4.6819,4.6783,4.6748,4.6855,4.6783,4.6712,4.6712,4.4999,4.3714,4.4357,4.2638,4.1156,4.1165,4.1121,4.0559,3.9105,3.9257,3.9281,3.8643,3.7893,3.7503,3.7577,3.754,3.7503,3.7466,3.7466,3.7243,3.6781,3.6955,3.6942,3.6569,3.6819,3.697,3.697,3.7069,3.7102,3.7102,3.6847,3.6678,2.3065,2.361,0.0,0.0,2.6993,2.8258,3.0987,3.1695,3.1967,3.2757,3.4535,3.6056,3.6591,3.8049,3.9617,0.0,4.2074,4.2909,4.3233,4.3524,4.3589,4.3298,4.3168,4.3071,4.3071,4.3071,4.2941,4.265,4.2618,4.2618,4.2618,4.3039,4.3395,4.3686,4.4107,4.469,4.537,4.469,4.4528,4.4917,4.3783,4.3265,4.3233,4.2812,4.2867,4.329,4.3881,4.4136,4.4088,4.4361,4.4473,4.4565,4.528,4.5436,4.5093,4.4085,4.3581,4.3314,4.2931,4.2768,4.2894,4.3358,4.4,4.4749,4.557,4.6141,4.6569,4.689,4.6998,4.6998,4.6998,4.6998,4.6998,4.6998,4.6998,4.6998,4.6998,4.6998,4.6855,4.6391,4.5499,4.4785,4.4642,4.3786,4.2903,4.2326,4.1682,4.0861,3.9762,3.9191,3.8726,3.8408,3.8709,3.8679,3.7952,3.7877,3.747,3.6492,3.6832,3.6861,3.6378,3.6895,3.7062,3.695,3.7469,3.7765,3.7765,3.8162,3.8361,3.8361,3.8097,3.7904,2.4442,0.0,0.0,2.7765,2.91,3.0552,3.2338,3.2977,3.3517,3.4638,3.5982,3.7151,3.7774,3.9155,4.0356,4.0864,4.2494,4.3654,4.3427,4.3557,4.3557,4.3168,4.265,4.2261,4.2067,4.2391,4.2618,4.2618,4.2812,4.2909,4.2909,4.3622,4.4107,4.4269,4.4787,4.5403,4.6083,4.5241,4.5046,4.55,4.4107,4.3427,4.3395,4.2877,4.2805,4.3141,4.3443,4.3706,4.3914,4.4245,4.4757,4.5336,4.5964,4.5998,4.5602,4.4595,4.4216,4.4027,4.2998,4.252,4.2434,4.2703,4.3287,4.4057,4.5089,4.5847,4.6391,4.6605,4.6819,4.689,4.6462,4.6676,4.6926,4.6712,4.6819,4.6998,4.6998,4.6998,4.6819,4.6248,4.5784,4.5285,4.4714,4.425,4.3622,4.275,4.1937,4.1176,4.041,3.9722,3.9176,3.8929,3.9487,3.9566,3.8687,3.84,3.7837,3.6861,3.73,3.7387,3.6915,3.7465,3.7719,3.7569,3.8181,3.8493,3.8493,3.9023,3.9288,3.9255,3.8985,3.8919,2.5252,0.0,2.712,2.9552,3.1137,3.2435,3.3867,3.4755,3.5462,3.619,3.6402,3.6435,3.6377,3.8086,3.9531,3.9436,4.1826,4.3427,4.2635,4.3199,4.3201,4.1808,4.1614,4.1322,0.0,4.1808,4.2618,4.2618,4.3265,4.3686,4.3686,4.4366,4.5046,4.5726,4.5759,4.6115,4.6828,4.5467,4.4787,4.4787,4.3362,4.265,4.265,4.2587,4.2618,4.2618,4.2618,4.2618,4.2618,4.265,4.3134,4.3749,4.353,4.4273,4.5458,4.5183,4.472,4.3957,4.209,4.1968,4.2507,4.1453,4.1515,4.2271,4.3873,4.4503,4.4856,4.5606,4.6391,4.6641,4.5106,4.582,4.6783,4.6034,4.6427,4.6998,4.6998,4.6998,4.6998,4.6962,4.5713,4.4642,4.4607,4.3358,4.2358,4.2323,4.2287,4.205,4.1508,4.1853,4.1895,4.1109,4.036,3.9896,3.9857,3.918,3.9073,3.9711,3.9783,3.9585,3.9098,3.9351,3.9303,3.8771,3.9087,3.9255,3.9255,3.9309,3.9288,3.9255,3.8985,3.9182,2.6497,2.8027,2.9658,3.1321,3.2706,3.3888,3.4841,3.5514,3.5798,3.5213,3.5053,3.5222,3.5666,3.6386,3.7266,3.8544,4.069,4.2297,4.2568,4.3595,4.3677,4.1779,4.1581,0.0,0.0,0.0,0.0,4.2585,4.3298,4.3913,4.4399,4.5079,4.5565,4.5791,4.6277,4.6407,4.618,4.5694,4.5241,4.4787,4.3816,4.3103,4.2618,4.2618,4.2618,4.2618,4.2618,4.2618,4.2715,4.3654,4.4204,4.4561,4.5766,4.6323,4.6386,4.6187,4.5967,4.5503,4.4198,4.3735,4.3513,4.2451,4.2647,4.3251,4.3286,4.4389,4.5753,4.6223,4.7121,4.7802,4.6921,4.7074,4.7252,4.6518,4.6692,4.6855,4.632,4.6212,4.5891,4.4892,4.4642,4.4464,4.3964,4.4285,4.4428,4.3929,4.2965,4.2246,4.2044,4.2205,4.218,4.193,4.0902,4.0116,3.9817,3.8781,3.8081,3.8069,3.8791,3.902,3.8565,3.9389,3.9648,3.912,3.9123,3.9094,3.9094,3.904,3.9216,3.9709,3.9486,3.9764,2.865,3.0191,3.1711,3.3389,3.4493,3.5146,3.5355,3.5527,3.5328,3.4283,3.3529,3.331,3.4268,3.4259,3.4841,3.702,3.8953,4.056,4.1589,4.2365,4.2464,4.1661,4.1339,4.1142,0.0,0.0,0.0,4.2974,4.3913,4.4658,4.5111,4.5824,4.618,4.618,4.6633,4.6666,4.618,4.5921,4.5467,4.4787,4.3783,4.3233,4.3006,4.2747,4.2618,4.2618,4.2618,4.2618,4.2715,4.3913,4.4561,4.495,4.6192,4.6615,4.6507,4.6388,4.6258,4.6094,4.495,4.4519,4.4312,4.2963,4.32,4.3885,4.3172,4.455,4.6285,4.6239,4.7116,4.7854,4.7033,4.6976,4.6976,4.62,4.6377,4.6542,4.6046,4.5939,4.5595,4.4396,4.4369,4.4262,4.3601,4.3985,4.4333,4.412,4.3066,4.2427,4.2674,4.2554,4.2392,4.2392,4.1297,4.0408,4.0089,3.9029,3.8391,3.8354,3.9005,3.9176,3.8716,3.9428,3.961,3.9148,3.8985,3.9029,3.9292,3.9237,3.9575,4.0295,4.0123,4.0456,3.1397,3.2511,3.3252,3.5637,3.6241,3.6141,3.5503,3.4806,3.4138,3.3558,3.1816,3.0829,0.0,0.0,3.2467,3.4884,3.6616,3.831,4.0051,3.996,4.0163,0.0,0.0,0.0,0.0,0.0,0.0,4.3881,0.0,4.5856,4.5856,4.6536,4.6925,4.6892,4.6892,4.686,4.6828,4.6115,4.5435,4.4787,4.3362,4.3039,4.3686,4.2974,4.2618,4.2618,4.2618,4.265,4.2747,4.346,4.4204,4.4852,4.4885,4.5305,4.5856,4.5856,4.5856,4.5662,4.4302,4.4355,4.473,4.2914,4.3207,4.4215,4.3517,4.479,4.6374,4.5701,4.643,4.7016,4.546,4.5684,4.6119,4.5348,4.5698,4.6309,4.6274,4.6239,4.6125,4.5541,4.4845,4.4192,4.3665,4.2676,4.2263,4.3006,4.2717,4.2671,4.3408,4.3032,4.2647,4.2682,4.1487,4.0754,4.0789,3.989,3.974,4.0542,4.0397,4.0102,3.961,3.961,3.9382,3.8854,3.8854,3.9214,3.9935,3.9935,4.0271,4.1023,4.0874,4.1113,3.2669,3.4272,3.5444,3.6149,3.6312,3.6141,3.5503,3.4138,3.2948,3.2803,3.0392,2.8655,0.0,0.0,0.0,3.3396,3.616,0.0,4.0114,4.1445,0.0,4.1441,0.0,4.2663,4.2293,4.3619,0.0,0.0,4.6407,4.6601,4.6601,4.7313,4.7475,4.6892,4.6892,4.6633,4.6083,4.5403,4.4949,4.4787,4.3881,4.3524,4.3686,4.2974,4.2618,4.2618,4.2618,4.2941,4.3492,4.4237,4.4917,4.5597,4.6147,4.6471,4.6601,4.6601,4.6601,4.6471,4.5597,4.5636,4.5821,4.4079,4.4148,4.4599,4.3294,4.4505,4.6186,4.5637,4.6758,4.7819,4.6613,4.7065,4.77,4.6906,4.7335,4.7783,4.7136,4.6996,4.6835,4.6028,4.5339,4.4741,4.4624,4.364,4.3044,4.3617,4.2765,4.2591,4.3899,4.3617,4.3383,4.3524,4.1963,4.1043,4.163,4.0075,3.9423,4.017,4.0269,3.9986,3.9454,3.9558,3.9615,3.9607,3.9527,3.983,4.0515,4.0398,4.0729,4.1443,4.1411,4.174,3.4661,3.5938,3.6809,3.707,3.6925,3.6431,3.5143,3.3405,3.1662,3.0473,2.831,0.0,2.7909,2.8685,0.0,0.0,0.0,0.0,3.9062,4.0347,4.1335,0.0,4.2659,0.0,4.3697,4.4636,4.5667,0.0,4.6846,4.7022,4.7378,4.7475,4.7313,4.6892,4.6892,4.6698,4.6277,4.5597,4.5403,4.5694,4.469,4.4334,4.4593,4.3913,4.3395,4.3136,0.0,4.3622,4.3783,4.482,4.5467,4.5888,4.6601,4.6892,4.6892,4.6892,4.6892,4.6828,4.6407,4.648,4.6421,4.4841,4.5003,4.5563,4.4113,4.5189,4.6766,4.6152,4.6915,4.7747,4.7154,4.7022,4.6893,4.6452,4.6452,4.6384,4.5937,4.6028,4.6031,4.5521,4.4753,4.4182,4.4049,4.3504,4.3093,4.3374,4.2521,4.2223,4.3325,4.3079,4.3131,4.3972,4.225,4.1458,4.2518,4.0951,4.0206,4.0949,4.074,4.0528,4.0237,4.004,4.0015,4.0189,4.0105,4.0404,4.1086,4.1026,4.1322,4.2035,4.2035,4.2261,3.6678,3.7418,3.749,3.8057,3.7622,3.6476,3.4485,3.2407,3.0211,2.7882,0.0,2.5483,2.6197,2.7107,2.8455,3.0873,0.0,3.4806,3.7912,3.8405,3.9565,4.2713,4.2712,4.3163,4.4861,4.5379,4.5835,4.6485,4.6717,4.7082,4.7831,4.7346,4.6989,4.6892,4.6892,4.6892,4.6892,4.6277,4.6277,4.686,4.5565,4.5241,4.5791,4.5111,4.4464,4.3881,4.4528,0.0,4.4075,4.5305,4.5856,4.6018,4.6633,4.6892,4.6892,4.6892,4.6892,4.686,4.6763,4.6795,4.6666,4.5338,4.5824,4.6633,4.5338,4.6191,4.7407,4.6684,4.6843,4.7195,4.7095,4.6191,4.535,4.545,4.4875,4.4365,4.4566,4.4889,4.5103,4.5027,4.4233,4.3528,4.3357,4.3184,4.3064,4.3168,4.2518,4.2125,4.2555,4.2098,4.2309,4.3666,4.2278,4.1794,4.3044,4.1822,4.123,4.187,4.1288,4.0885,4.0885,4.0456,4.0286,4.048,4.048,4.0836,4.1581,4.1678,4.197,4.2488,4.2585,4.2618,3.7432,3.7907,3.7861,3.8098,3.6954,3.5328,3.3734,3.0672,0.0,0.0,2.609,2.4787,2.5952,2.7598,2.928,3.0859,3.3235,3.5825,3.8638,3.945,4.043,0.0,4.2812,4.3259,4.3578,4.4266,0.0,0.0,4.5887,4.6262,4.7087,4.754,4.754,4.6892,4.6892,4.6892,4.6892,4.6763,4.6763,4.686,4.6018,4.5694,4.5791,4.5111,4.4723,4.4625,4.4723,0.0,4.5467,4.5694,4.6147,4.6698,4.6828,4.6892,4.6892,4.6892,4.6892,4.6795,4.6212,4.6374,4.673,4.5888,4.618,4.673,4.5888,4.628,4.6867,4.6153,4.6448,4.6808,4.6222,4.6225,4.6515,4.711,4.6533,4.6234,4.7378,4.7709,4.7536,4.6952,4.6178,4.579,4.6136,4.5052,4.4356,4.5196,4.449,4.378,4.3642,4.2213,4.1323,4.1852,4.1794,4.1829,4.2064,4.1272,4.0836,4.097,3.9918,3.9402,3.9402,3.8958,3.9314,4.048,4.048,4.0836,4.1581,4.2164,4.2197,4.1776,4.2359,4.2618,3.7572,3.8005,3.7929,3.8127,3.6519,3.4361,3.2507,0.0,0.0,0.0,2.5251,2.4436,2.5367,2.7173,0.0,2.9911,3.153,3.3821,3.7244,3.7941,0.0,4.1773,4.2474,4.2953,0.0,4.3768,4.417,4.4838,4.5032,4.5562,4.6742,4.72,4.7249,4.6892,4.6892,4.6892,4.6892,4.6892,4.6892,4.6892,4.6536,4.6374,4.6342,4.6018,4.5662,4.5338,4.5726,0.0,4.5824,4.6212,4.6568,4.6892,4.6892,4.6892,4.6892,4.6892,4.6892,4.6828,4.6504,4.6601,4.6828,4.6471,4.6601,4.6828,4.6471,4.6601,4.6828,4.6471,4.6633,4.6795,4.6439,4.6285,4.629,4.6649,4.6094,4.5758,4.6706,4.6872,4.6899,4.6719,4.6229,4.5872,4.6118,4.5512,4.5127,4.5617,4.5069,4.4643,4.4456,4.3132,4.2211,4.2139,4.2244,4.2167,4.1909,4.1485,4.1392,4.1606,4.0896,4.0458,4.0458,4.0015,4.0,4.048,4.0869,4.1225,4.1581,4.2294,4.2456,4.2132,4.2456,4.2618,3.7451,3.7853,3.7825,3.7878,3.6012,3.357,3.1346,2.8397,0.0,2.5286,2.4638,2.4329,2.5036,0.0,2.8081,0.0,2.9918,3.1795,3.552,3.6389,3.7866,0.0,4.1918,0.0,4.3485,4.3278,0.0,4.3694,4.4043,4.4878,4.6487,4.6731,4.6892,4.6892,4.6892,4.6892,4.6892,4.6892,4.6892,4.6892,4.6892,4.6892,4.6892,4.6892,4.6568,4.6083,4.6633,0.0,0.0,4.6633,4.6892,4.6892,4.7054,4.7022,4.6892,4.7054,4.7022,4.6892,4.6892,4.6892,4.6892,4.6892,4.6892,4.6892,4.6892,4.6892,4.6892,4.6892,4.6892,4.6892,4.6892,4.6342,4.5759,4.5629,4.5403,4.5341,4.5537,4.57,4.5927,4.6308,4.5923,4.5634,4.5927,4.5764,4.5634,4.5927,4.552,4.5147,4.5147,4.4245,4.3427,4.2891,4.2759,4.2584,4.2076,4.1843,4.1911,4.2274,4.1777,4.151,4.151,4.1148,4.09,4.0707,4.129,4.1581,4.1581,4.2294,4.2553,4.2423,4.2553,4.2715,3.7006,3.7596,3.7482,3.6985,3.5065,3.2745,3.05,0.0,2.5416,2.5765,2.4868,2.447,2.5598,0.0,0.0,0.0,0.0,3.1789,3.479,3.6735,3.8457,4.0118,0.0,0.0,4.2266,4.2233,4.2204,4.2262,4.296,4.4128,4.5719,4.6474,4.6892,4.6892,4.6892,4.6892,4.6892,4.6892,4.6892,4.6892,4.6892,4.6892,4.6892,4.6892,4.686,4.6795,4.686,4.686,0.0,4.686,4.6892,4.6957,4.7637,4.7475,4.6957,4.767,4.7475,4.6892,4.6892,4.6892,4.6892,4.6892,4.6892,4.6892,4.6892,4.6892,4.6892,4.6892,4.6892,4.6892,4.6892,4.6342,4.5662,4.5046,4.5824,4.6504,4.5923,4.628,4.6767,4.6835,4.6283,4.6123,4.7309,4.6551,4.6189,4.7342,4.6486,4.5731,4.5731,4.508,4.414,4.2808,4.2645,4.2613,4.2548,4.1963,4.1634,4.1694,4.1016,4.0599,4.0599,4.0599,4.0864,4.1452,4.1549,4.1581,4.1581,4.2294,4.2294,4.1678,4.2326,4.2974,3.5634,3.6618,3.6845,3.6739,3.4552,3.2004,3.0267,0.0,2.4906,2.5737,2.4924,2.4498,2.5683,2.6104,2.6722,0.0,2.8137,0.0,3.2758,3.3876,3.5468,3.8485,3.996,0.0,0.0,0.0,4.2092,4.2092,4.356,4.4529,4.4816,4.5254,4.5697,4.6127,4.623,4.6667,4.754,4.7119,4.7119,4.7572,4.7087,4.7119,4.754,4.7087,4.7119,4.7572,4.7572,4.7313,0.0,4.7378,4.7572,4.7605,4.7896,4.7831,4.7605,4.7896,4.754,4.6892,4.6892,4.6892,4.6892,4.6892,4.6892,4.6892,4.6892,4.6892,4.6892,4.6892,4.6892,4.6892,4.6892,4.6666,4.6374,4.6115,4.6471,4.6795,4.6504,4.7022,4.7572,4.7572,4.7346,4.7286,4.7785,4.7095,4.6604,4.7101,4.677,4.6309,4.5856,4.5565,4.5014,4.4043,4.3557,4.2747,4.1452,4.1484,4.1508,4.1292,4.1023,4.0893,4.0893,4.0893,4.0906,4.0934,4.1355,4.1581,4.1581,4.2294,4.2715,4.2877,4.3136,4.3654,3.3762,3.522,3.6088,3.5793,3.363,3.1247,0.0,0.0,2.4515,2.5455,2.4783,2.4498,2.5683,2.6048,2.6497,2.7484,2.7371,2.8222,3.1247,3.2274,3.3882,0.0,0.0,3.9852,0.0,4.186,4.2179,4.2353,4.3725,4.4353,4.3879,4.3968,4.4557,4.5614,4.5426,4.5971,4.7212,4.6795,4.6995,4.7927,4.7432,4.7605,4.8285,4.754,4.7605,4.8285,4.7864,4.7508,0.0,4.7799,4.8026,4.8026,4.822,4.8317,4.8285,4.8091,4.767,4.7184,4.6957,4.6892,4.6892,4.6892,4.6892,4.6892,4.6892,4.6892,4.6892,4.6892,4.6892,4.6925,4.7151,4.7216,4.7281,4.7475,4.7508,4.7508,4.7508,4.7929,4.8252,4.8058,4.8188,4.8252,4.8026,4.7734,4.7508,4.7508,4.7151,4.6698,4.618,4.5759,4.5305,4.4852,4.4334,4.333,4.1581,4.1711,4.1768,4.1547,4.1573,4.1573,4.1573,4.1573,4.1395,4.1128,4.1614,4.1905,4.1905,4.2618,4.3201,4.3719,4.3913,4.4399,3.1331,3.3437,3.5164,3.3734,3.2055,3.0318,0.0,0.0,2.4301,2.4868,2.4554,2.4498,2.5683,2.6385,2.6807,2.6807,2.838,2.9848,3.0715,3.2993,3.4882,0.0,0.0,3.8294,3.9794,4.1256,4.2353,4.2934,4.2992,0.0,4.2992,4.2992,4.3767,4.5387,4.4849,4.4818,4.5464,4.5645,4.6392,4.7675,4.7854,4.835,4.8997,4.8317,4.8382,4.8933,4.7508,4.7313,0.0,4.8026,4.8026,4.8091,4.8738,4.8997,4.8933,4.8252,4.8026,4.7896,4.7151,4.6892,4.6892,4.6892,4.6892,4.6892,4.6892,4.6892,4.6892,4.6892,4.6892,4.7054,4.7799,4.7993,4.8188,4.8835,4.8997,4.8997,4.8997,4.8997,4.8803,4.8155,4.8544,4.8803,4.8123,4.8544,4.8997,4.8997,4.7799,4.6892,4.686,4.5662,4.4787,4.4787,4.4787,4.4464,4.3751,4.3039,4.2618,4.2618,4.2618,4.2618,4.2618,4.2618,4.2618,4.2618,4.2618,4.2618,4.2618,4.333,4.3719,4.3719,4.4464,4.5144,2.8436,2.9904,3.0721,3.0263,2.9116,2.7792,2.6722,0.0,2.3069,2.4188,2.3906,2.3772,2.5036,2.5767,2.661,2.7902,2.8605,2.9504,3.103,3.2664,0.0,3.5975,3.8703,4.0756,0.0,0.0,4.2963,4.3631,4.3689,4.3689,4.3689,4.3224,4.3466,4.4549,4.3995,4.4491,4.6142,4.6366,4.6866,4.7751,4.8409,4.8803,4.8997,4.8317,4.8123,4.8317,4.7864,4.7508,0.0,4.8285,4.8706,4.8771,4.9483,4.9775,4.9677,4.8965,4.8414,4.7993,4.7734,4.7313,4.6957,4.7475,4.7313,4.6989,4.7508,4.7281,4.6989,4.7508,4.7993,4.8414,4.8641,4.8706,4.8771,4.8965,4.903,4.903,4.903,4.903,4.9094,4.9386,4.9224,4.9094,4.9386,4.9192,4.903,4.903,4.8641,4.8188,4.7702,4.7281,4.6795,4.6277,4.6212,4.5532,4.3848,4.3492,4.3168,4.265,4.2618,4.2844,4.3362,4.3362,4.3589,4.4107,4.4107,4.4107,4.4107,4.4334,4.469,4.5144,4.5888,4.6342,0.0,2.734,2.824,2.7762,2.6863,2.5823,0.0,0.0,0.0,2.3202,2.321,2.3491,2.4755,2.5683,2.6554,2.7481,2.824,2.9167,3.0572,3.2061,0.0,3.6052,0.0,0.0,0.0,4.2334,4.3197,4.395,4.3979,4.3979,4.3979,4.334,4.3215,4.3714,4.3175,4.3567,4.5152,4.5633,4.6269,4.7198,4.839,4.9106,4.9331,4.8691,4.8544,4.8771,4.8252,0.0,0.0,4.8641,4.9192,4.9451,4.9613,4.9872,5.0001,4.9289,4.8609,4.8026,4.8026,4.7508,4.6957,4.7443,4.7443,4.7443,4.8188,4.8058,4.7734,4.7961,4.8512,4.9094,4.9354,4.9418,4.9515,4.9775,4.9839,4.9839,4.9839,4.9839,4.9872,5.0066,4.9969,4.9904,5.0066,4.9969,4.9839,4.9839,4.9613,4.9289,4.8868,4.8576,4.822,4.7734,4.7702,4.7054,4.5467,4.5079,4.4723,4.4269,4.4237,4.4431,4.4885,4.4658,4.4723,4.5176,4.4917,4.4787,4.4787,4.5046,4.5532,4.6212,4.6666,4.6892,0.0,2.5514,2.7031,2.5907,2.5205,2.4306,2.2536,0.0,0.0,0.0,0.0,0.0,2.4727,2.5936,2.6638,2.6273,2.765,2.8998,2.9701,3.1499,0.0,0.0,3.8088,0.0,3.9682,4.1449,4.3055,4.4008,4.3979,4.3921,4.3921,4.3282,4.2934,4.2934,4.2382,4.2382,4.2992,4.3826,4.4945,4.6142,4.7898,4.9095,4.9821,4.9138,4.9248,0.0,0.0,0.0,0.0,4.8997,4.9451,5.0034,4.9354,4.9515,5.0001,4.9289,4.8609,4.8026,4.8058,4.7572,4.6892,4.6892,4.741,4.8123,4.8771,4.903,4.8965,4.8317,4.8641,4.9321,5.0001,5.0196,5.0357,5.1038,5.1199,5.1199,5.1199,5.1135,5.0908,5.0293,5.0714,5.0973,5.0357,5.0843,5.1329,5.1329,5.0778,5.0325,5.026,4.9677,4.9224,4.9192,4.9192,4.8933,4.8285,4.7443,4.6957,4.6892,4.6892,4.6892,4.6957,4.6309,4.5986,4.605,4.5403,4.5079,4.5014,4.5662,4.6342,4.7022,4.6989,4.6989,2.0207,0.0,2.2893,2.3013,2.2957,2.2592,0.0,0.0,0.0,0.0,0.0,0.0,0.0,2.5598,2.6835,2.9083,2.942,2.9954,3.1527,3.414,0.0,3.7344,3.9278,4.0858,4.1624,4.2138,4.3056,4.4589,4.343,4.2883,4.3224,4.2447,4.21,4.2295,4.2179,4.2382,4.2992,4.4353,4.5155,4.5567,4.7119,4.8292,4.9015,4.785,4.7782,4.8447,0.0,0.0,4.8285,4.8803,4.9451,5.0098,4.9904,4.9969,5.0001,4.9289,4.8609,4.8091,4.8609,4.7961,4.6892,4.6892,4.741,4.8026,4.8188,4.8997,4.9807,4.9645,5.0131,5.0714,5.0876,5.094,5.0973,5.1135,5.1199,5.1199,5.1199,5.0746,5.0455,5.0876,5.107,5.1297,5.1653,5.2333,5.2819,5.2819,5.2689,5.2365,5.1782,5.1556,5.1264,5.0746,5.0681,5.0617,5.0455,4.8771,4.7508,4.6925,4.6892,4.7151,4.7734,4.7572,4.7734,4.8252,4.8091,4.7767,4.7249,4.741,4.7864,4.8512,4.7993,4.7884,1.8349,2.0007,2.1574,2.2404,2.2395,2.2086,2.1823,0.0,0.0,0.0,0.0,0.0,0.0,0.0,2.6722,2.9279,2.9392,3.0038,0.0,0.0,3.6894,3.7793,3.9619,4.1198,0.0,4.2422,4.3024,4.4239,4.3027,4.2482,4.2992,4.2048,4.1731,4.2092,4.198,4.2154,4.2586,4.3671,4.4394,4.4689,4.6237,4.7201,4.7577,4.6998,4.6724,0.0,0.0,0.0,4.7426,4.8456,4.9309,4.9993,5.008,5.0098,5.0098,5.0034,4.9159,4.8123,4.8803,4.8091,4.6989,4.7637,4.7929,4.8123,4.8771,4.9515,5.0034,4.971,5.0357,5.1102,5.0778,5.094,5.1199,5.1199,5.1426,5.1653,5.1653,5.162,5.1685,5.2106,5.2171,5.2268,5.2657,5.3045,5.3337,5.3337,5.3337,5.3175,5.2754,5.2721,5.256,5.2203,5.2171,5.2094,5.183,5.0478,4.9393,4.89,4.8868,4.903,4.9451,4.9159,4.8835,4.8576,4.8544,4.8117,4.7194,4.7516,4.7798,4.8006,4.7901,4.8019,1.7375,1.9441,2.1636,2.2623,2.2656,2.2451,2.2339,0.0,0.0,0.0,0.0,0.0,0.0,0.0,0.0,2.8689,2.9223,0.0,3.3466,3.5293,3.681,3.8046,3.976,0.0,4.1907,4.2616,4.3133,4.3401,4.2768,4.2453,4.2763,4.1851,4.1564,4.2009,4.1785,4.1785,4.2009,4.2702,4.3282,4.3834,4.5102,4.5794,4.6052,4.6062,4.5909,4.5649,0.0,0.0,4.6744,4.8011,4.9047,4.9884,4.993,5.0001,5.0196,5.0778,4.9807,4.8252,4.8835,4.822,4.741,4.8512,4.8479,4.8252,4.9548,4.9936,4.9839,4.9321,5.0163,5.1038,5.0422,5.0811,5.1329,5.1329,5.1847,5.2365,5.2365,5.2708,5.3096,5.3147,5.3226,5.3258,5.3388,5.3485,5.3628,5.3628,5.3549,5.3517,5.342,5.3308,5.3197,5.3068,5.3068,5.2909,5.2556,5.2013,5.1563,5.1295,5.1145,5.1016,5.1016,5.0435,4.9425,4.8135,4.82,4.7766,4.671,4.7212,4.7448,4.7277,4.7751,4.7959,1.8065,1.9752,2.1118,2.1636,2.2797,2.3681,0.0,0.0,0.0,0.0,0.0,0.0,0.0,0.0,2.8689,0.0,0.0,3.3494,0.0,0.0,3.8074,3.9339,0.0,4.159,4.1964,4.2834,4.3178,4.251,4.2502,4.2332,4.168,4.1255,4.1198,4.148,4.1619,4.1702,4.1785,4.2589,4.305,4.3137,4.3394,4.4221,4.5447,4.4298,4.4747,4.6265,0.0,4.5803,4.7311,4.7195,4.8193,4.9821,4.9383,4.9548,5.0131,5.0228,4.9677,4.8868,4.8997,4.8868,4.8641,4.8285,4.8091,4.8155,4.8933,4.9192,4.9289,4.9807,5.0519,5.1167,5.1038,5.1523,5.2041,5.2041,5.2592,5.3142,5.3142,5.2441,5.2012,5.2589,5.2717,5.299,5.3518,5.4454,5.5086,5.5086,5.4759,5.4319,5.3711,5.3286,5.2816,5.2182,5.2118,5.2118,5.2036,5.1941,5.1815,5.1801,5.0723,5.0089,5.0089,4.9962,4.9519,4.8694,4.9297,4.9233,4.8428,4.8523,4.8825,4.9426,4.892,4.8781,1.7051,1.8858,2.0524,2.1266,2.3022,2.4526,0.0,0.0,0.0,0.0,0.0,0.0,0.0,0.0,2.9813,3.1724,0.0,3.5686,3.6838,3.7512,3.8243,0.0,0.0,4.125,4.1762,4.2547,4.2806,4.2194,4.2072,4.1846,4.1453,4.1029,4.1029,4.1396,4.1367,4.1423,4.1702,4.199,4.2391,4.2992,4.2992,4.339,4.4074,4.3755,4.4004,4.4594,0.0,4.4899,4.6087,4.6366,4.7292,4.8481,4.8638,4.8922,4.9221,4.9369,4.9502,4.9548,4.9159,4.903,4.8965,4.8673,4.8544,4.8673,4.9386,4.9466,4.948,5.0413,5.094,5.1092,5.0864,5.1334,5.1913,5.2029,5.2588,5.3163,5.3163,5.3031,5.3076,5.3311,5.3458,5.3553,5.3903,5.4389,5.4665,5.4665,5.4497,5.4317,5.3999,5.3682,5.3471,5.3155,5.3123,5.3007,5.2753,5.2408,5.1957,5.1367,5.0736,5.0311,4.9931,4.9931,4.9584,4.8825,4.9141,4.8828,4.798,4.8279,4.8545,4.8649,4.868,4.8786,1.6338,1.8067,1.994,2.1067,0.0,0.0,0.0,0.0,0.0,0.0,0.0,0.0,0.0,2.9982,0.0,3.355,3.5658,3.7147,3.7569,3.8046,3.8636,3.9423,4.035,4.1081,4.1587,4.2205,4.235,4.1736,4.1618,4.1508,4.1255,4.0887,4.0859,4.1227,4.1085,4.117,4.1506,4.148,4.1877,4.2789,4.2705,4.2705,4.2789,4.3226,4.334,4.3021,4.3398,4.3979,4.4734,4.5421,4.6232,4.7036,4.7965,4.8358,4.8533,4.8922,4.9464,5.0037,4.9636,4.9548,4.9515,4.9321,4.9289,4.9386,4.9789,4.9855,4.9917,5.0852,5.1218,5.1238,5.0845,5.1246,5.1869,5.2131,5.2776,5.3281,5.3281,5.3512,5.371,5.3899,5.3773,5.371,5.3899,5.4017,5.4103,5.4103,5.4017,5.3931,5.3931,5.3844,5.3758,5.3758,5.3758,5.3671,5.329,5.2735,5.2067,5.1132,5.0963,5.0555,4.9896,4.9864,4.9519,4.8765,4.8765,4.8357,4.7542,4.8071,4.8159,4.7865,4.8543,4.8881,1.7105,1.8285,1.9409,2.0852,0.0,0.0,0.0,0.0,0.0,0.0,0.0,0.0,0.0,3.1021,3.3016,3.5461,3.6501,3.7597,3.9339,0.0,4.0097,4.1278,4.1502,4.1559,4.1615,4.2205,4.2064,4.0856,4.1278,4.1334,4.0801,4.0688,4.0688,4.0773,4.0916,4.1001,4.1085,4.1283,4.1676,4.215,4.1734,4.1734,4.215,4.193,4.2302,4.2963,4.244,4.2934,4.4094,4.4264,4.5155,4.6376,4.721,4.7989,4.8594,4.9456,4.9884,5.0041,5.0811,5.1038,5.0908,5.0228,5.0034,4.996,4.9652,4.9981,5.0466,5.085,5.1403,5.1833,5.155,5.2061,5.2571,5.2891,5.3502,5.4008,5.4008,5.3193,5.2715,5.334,5.2965,5.2715,5.3371,5.3813,5.4103,5.4103,5.3726,5.3465,5.3465,5.3055,5.2788,5.2788,5.2788,5.2788,5.2788,5.2667,5.2418,5.1678,5.1061,5.0383,4.9704,4.9674,4.9365,4.8625,4.8625,4.8594,4.8481,4.8512,4.8543,4.8573,4.9281,4.962,1.6846,1.7977,0.0,0.0,0.0,0.0,0.0,0.0,0.0,0.0,0.0,0.0,0.0,0.0,3.4225,3.6304,3.7484,3.8664,4.0154,4.035,4.0519,4.0997,4.1053,4.1053,4.1053,4.1615,4.1615,4.0772,4.1278,4.1362,4.0716,4.0688,4.0688,4.0688,4.0773,4.083,4.1001,4.0944,4.1227,4.1647,4.148,4.148,4.1676,4.2134,4.2422,4.2538,4.2647,4.3052,4.3719,4.3562,4.4229,4.5433,4.6194,4.698,4.7758,4.8126,4.8512,4.8942,4.8778,4.8983,4.9233,4.8275,4.8337,4.876,4.9062,4.9403,4.9883,5.0718,5.1203,5.1602,5.1957,5.2178,5.247,5.276,5.3046,5.3233,5.3233,5.2838,5.2657,5.2905,5.275,5.2657,5.2905,5.3144,5.3233,5.3233,5.3055,5.2966,5.2966,5.2788,5.2698,5.2698,5.2698,5.2698,5.2698,5.2698,5.2606,5.2359,5.1682,5.1005,5.0328,5.0328,5.0174,4.9928,4.9897,4.9897,4.9897,4.9897,4.9897,4.9928,5.0174,5.0328,1.6613,1.7655,1.894,0.0,0.0,0.0,0.0,0.0,0.0,0.0,0.0,0.0,0.0,0.0,0.0,0.0,3.8046,3.9283,4.0519,4.0688,4.0688,4.0688,4.0688,4.0688,4.0688,4.1081,4.1137,4.0716,4.1081,4.1137,4.0716,4.0519,4.0407,4.0407,4.0407,4.0492,4.0633,4.0661,4.0859,4.1227,4.1227,4.1227,4.1424,4.2023,4.2195,4.1996,4.2534,4.2849,4.2969,4.2909,4.3661,4.4849,4.5401,4.6108,4.6725,4.6569,4.7171,4.8004,4.7302,4.7516,4.8087,4.7266,4.7418,4.7897,4.8293,4.8906,4.9665,5.0319,5.1087,5.184,5.2306,5.2331,5.2362,5.2634,5.2698,5.2698,5.2698,5.2698,5.2698,5.2698,5.2698,5.279,5.3006,5.2852,5.279,5.3006,5.2852,5.2698,5.2698,5.2698,5.2698,5.2698,5.2698,5.2698,5.2698,5.2698,5.2698,5.2698,5.2267,5.1713,5.1036,5.1005,5.0913,5.0697,5.0697,5.0697,5.0697,5.0697,5.0697,5.0697,5.0913,5.1005,1.652,1.7373,0.0,0.0,0.0,0.0,0.0,0.0,0.0,0.0,0.0,0.0,0.0,0.0,0.0,3.681,3.8046,3.9283,4.0519,4.0688,4.0688,4.0688,4.0688,4.0688,4.0688,4.0688,4.0688,4.0688,4.0688,4.0688,4.0688,4.0097,3.976,3.976,3.976,3.976,3.976,4.0378,4.0688,4.0688,4.0688,4.0972,4.1396,4.1396,4.1396,4.1396,4.1926,4.1897,4.176,4.2422,4.343,4.4642,4.4791,4.5285,4.581,4.5191,4.5913,4.7156,4.697,4.7433,4.8095,4.7897,4.7813,4.7728,4.7276,4.8611,5.011,4.973,5.1088,5.2698,5.2698,5.244,5.2362,5.2634,5.2698,5.2698,5.2698,5.2698,5.2698,5.2698,5.2698,5.2914,5.3591,5.316,5.2944,5.3622,5.316,5.2729,5.2729,5.2729,5.2729,5.2729,5.2729,5.2698,5.2729,5.2698,5.2698,5.2698,5.2698,5.2421,5.1744,5.1713,5.1405,5.0728,5.0728,5.0728,5.0728,5.0728,5.0728,5.0728,5.1405,5.1713,1.6851,1.747,0.0,0.0,0.0,0.0,0.0,0.0,0.0,0.0,0.0,0.0,0.0,0.0,0.0,3.6577,3.7975,3.9283,4.0519,4.0688,4.0688,4.0688,4.0688,4.0688,4.0688,4.0688,4.0688,4.0688,4.0294,4.0069,4.0069,3.9479,3.9142,3.9142,3.9142,3.9142,3.9142,3.976,4.0069,4.0069,4.0491,4.0773,4.0887,4.1029,4.1029,4.0972,4.1396,4.1564,4.1508,4.2337,4.2797,4.3113,4.4002,4.4579,4.4694,4.4469,4.4733,4.5022,4.482,4.4849,4.5109,4.5364,4.5417,4.5537,4.5898,4.6751,4.7786,4.8623,4.964,5.0693,5.1636,5.1881,5.1971,5.2577,5.2698,5.2698,5.2698,5.2698,5.2698,5.2698,5.2698,5.2914,5.3591,5.356,5.3652,5.433,5.4268,5.4145,5.4145,5.3714,5.3591,5.4083,5.3283,5.2914,5.3375,5.2975,5.2698,5.2698,5.2698,5.2637,5.2421,5.2421,5.2329,5.2113,5.2113,5.2113,5.2113,5.2113,5.2113,5.2113,5.2329,5.2421,1.6997,1.7879,0.0,0.0,0.0,0.0,0.0,0.0,0.0,0.0,0.0,0.0,3.4199,3.4594,0.0,3.5624,3.6904,3.8141,3.931,3.9615,3.9784,3.9985,3.9957,3.9957,3.9957,3.9957,3.9957,3.9957,3.962,3.9423,3.9423,3.8833,3.8468,3.8468,3.8468,3.8468,3.8468,3.9339,3.9788,3.9788,4.0407,4.0688,4.0688,4.0916,4.0916,4.0688,4.1114,4.1198,4.134,4.2138,4.2396,4.2281,4.3138,4.3595,4.3767,4.3165,4.345,4.4167,4.3551,4.3715,4.4167,4.4377,4.4425,4.449,4.4954,4.5752,4.6755,4.7736,4.8752,4.9774,5.0832,5.1075,5.1386,5.2427,5.2698,5.2698,5.2698,5.2698,5.279,5.3067,5.3129,5.3406,5.433,5.4299,5.433,5.5007,5.4884,5.473,5.473,5.4145,5.3868,5.4299,5.3345,5.2883,5.3283,5.2944,5.2698,5.2698,5.2698,5.2698,5.2698,5.2698,5.2698,5.2698,5.2698,5.2698,5.2698,5.2698,5.2698,5.2698,5.2698,5.2698,1.6926,0.0,0.0,0.0,0.0,0.0,0.0,0.0,3.3582,3.362,0.0,3.4335,3.4067,3.4192,3.4302,3.423,3.5312,3.6392,3.725,3.7795,3.8215,3.8588,3.8697,3.8779,3.8779,3.8861,3.8861,3.8861,3.8805,3.8777,3.8777,3.8159,3.7821,3.7821,3.7821,3.7821,3.7821,3.9002,3.9648,3.9704,4.0266,4.0575,4.0688,4.0916,4.083,4.0688,4.0916,4.1001,4.1057,4.1882,4.2023,4.1907,4.2167,4.2653,4.2936,4.1596,4.2278,4.3849,4.2918,4.3511,4.4563,4.4462,4.4425,4.4425,4.4425,4.5259,4.639,4.7088,4.8195,4.9404,5.0052,5.0258,5.0698,5.2124,5.2518,5.2518,5.2608,5.2608,5.2793,5.3498,5.3622,5.4022,5.5284,5.5068,5.4976,5.5684,5.5222,5.4853,5.4914,5.433,5.3899,5.3899,5.3283,5.2883,5.2821,5.279,5.279,5.279,5.279,5.2821,5.2883,5.2821,5.276,5.2698,5.2821,5.2821,5.2698,5.276,5.279,5.279,5.279,5.2821,0.0,1.8201,0.0,0.0,0.0,0.0,0.0,0.0,3.2641,3.2269,3.3174,3.3829,3.3032,3.413,3.4945,3.4121,3.5227,3.6218,3.6479,3.6584,3.6698,3.6764,3.7362,3.7783,3.7783,3.8504,3.8861,3.8861,3.8383,3.8102,3.8102,3.7512,3.7175,3.7175,3.7175,3.7175,3.7175,3.7934,3.8552,0.0,3.9198,3.976,4.0688,4.0773,4.0773,4.0688,4.0916,4.0916,4.0773,4.1142,4.1142,4.1027,4.1505,4.1874,4.1959,4.159,4.1759,4.2241,4.2547,4.2857,4.3223,4.4088,4.4425,4.4425,4.4425,4.4603,4.5016,4.5609,4.6356,4.727,4.8423,4.9165,4.9737,5.0698,5.0887,5.1075,5.1665,5.188,5.2094,5.2793,5.2944,5.3191,5.3991,5.4483,5.513,5.6361,5.593,5.5684,5.6238,5.5715,5.5284,5.5284,5.4668,5.4083,5.356,5.3498,5.3498,5.3498,5.3498,5.3745,5.4268,5.3775,5.3252,5.2729,5.3745,5.3775,5.2698,5.3252,5.3498,5.3498,5.3498,5.3775,0.0,0.0,0.0,0.0,0.0,0.0,0.0,0.0,3.1336,3.1288,3.2563,3.3428,3.2635,3.3381,3.3818,3.2956,3.372,3.4527,3.4658,3.4863,3.5115,3.526,3.5717,3.5969,3.5969,3.6412,3.6688,3.6688,3.6361,3.6361,3.6792,3.6567,3.6559,3.6978,3.6978,3.6978,3.6978,3.7597,3.8074,3.8412,3.8721,3.9198,3.9845,4.0435,4.0688,4.0688,4.0859,4.0773,4.0688,4.0859,4.0773,4.0716,4.1053,4.1165,4.1165,4.1165,4.1362,4.1671,4.2008,4.2514,4.3132,4.375,4.4172,4.4425,4.4425,4.4425,4.4537,4.5155,4.5577,4.6123,4.7417,4.7998,4.841,4.9092,4.9834,5.0478,5.0887,5.0981,5.1259,5.1964,5.2118,5.2423,5.3495,5.4449,5.5438,5.6146,5.593,5.5715,5.5776,5.5191,5.476,5.476,5.4453,5.396,5.3283,5.3837,5.4052,5.3745,5.4022,5.436,5.473,5.4699,5.436,5.3683,5.436,5.4391,5.3683,5.4022,5.4206,5.4206,5.4206,5.4391,0.0,0.0,0.0,0.0,0.0,0.0,0.0,2.9701,3.0206,3.0639,3.1961,3.2875,3.2442,3.2442,3.2322,3.1745,3.2058,3.2422,3.2599,3.3009,3.3345,3.3585,3.3674,3.3809,3.3887,3.3975,3.4058,3.4162,3.4058,3.4442,3.5357,3.5437,3.5809,3.6576,3.6732,3.6732,3.6576,3.7349,3.7737,3.7737,3.8496,3.8805,3.8749,3.9873,4.0378,4.0378,4.0378,4.0435,4.0547,4.0547,4.0603,4.0688,4.0688,4.0688,4.0688,4.0688,4.1025,4.1474,4.1587,4.2374,4.3357,4.3469,4.3919,4.4425,4.4425,4.4425,4.4509,4.5015,4.5324,4.5745,4.6785,4.7207,4.7488,4.7993,4.9079,5.0028,5.022,5.0191,5.0464,5.109,5.1297,5.1757,5.3121,5.4279,5.5027,5.5463,5.5402,5.5187,5.4945,5.4514,5.4206,5.4083,5.4176,5.3929,5.3129,5.4176,5.4668,5.4083,5.4607,5.4945,5.5068,5.5592,5.5622,5.5099,5.5068,5.4976,5.473,5.4853,5.4884,5.4884,5.4884,5.4976,0.0,0.0,0.0,0.0,0.0,0.0,0.0,0.0,3.011,0.0,3.1096,3.1865,3.1793,3.2178,3.2322,3.1745,3.1721,3.1665,3.1221,3.1196,3.1137,3.0688,3.1315,3.1984,3.2465,3.282,3.3144,3.3616,3.3197,3.333,3.4213,3.4213,3.443,3.4998,3.5781,3.5857,3.5026,3.6364,3.7119,3.7119,3.8299,3.858,3.8046,3.8777,3.9114,3.9114,3.9114,3.9423,3.9901,3.9901,4.021,4.0688,4.0688,4.0688,4.0688,4.0688,4.0744,4.0884,4.1418,4.2093,4.2795,4.3329,4.3919,4.4425,4.4425,4.4425,4.4425,4.4509,4.5324,4.6195,4.6364,4.7207,4.8021,4.8106,4.8207,4.861,4.9277,4.9444,4.9669,5.0405,5.0972,5.1562,5.2309,5.2112,5.2494,5.4345,5.4238,5.4248,5.5404,5.6023,5.6115,5.5499,5.5992,5.5838,5.4576,5.513,5.553,5.5438,5.553,5.5838,5.6453,5.6577,5.6577,5.6484,5.6484,5.5899,5.473,5.5284,5.5561,5.5561,5.5561,5.5899,1.737,0.0,0.0,0.0,0.0,0.0,0.0,0.0,2.8931,2.9532,3.0013,3.0518,3.112,3.1408,3.1504,3.1264,3.1216,3.1048,3.0518,3.0422,3.035,3.011,3.0396,3.0719,3.0964,3.1183,3.1379,3.1605,3.1405,3.1686,3.2541,3.2541,3.2883,3.362,3.4039,3.4039,3.362,3.4776,3.5328,3.5328,3.5707,3.598,3.6239,3.6253,3.7236,3.8861,3.8861,3.9226,3.9816,4.0154,4.0463,4.0716,4.1081,4.0997,4.0688,4.0688,4.0688,4.0744,4.0997,4.1755,4.2626,4.2907,4.3638,4.4425,4.4425,4.4425,4.4425,4.4425,4.5071,4.583,4.6195,4.6954,4.7684,4.805,4.8134,4.8235,4.861,4.861,4.8681,4.9079,4.9675,5.0348,5.1087,5.1267,5.166,5.2613,5.2792,5.3114,5.3918,5.4496,5.4992,5.5097,5.5745,5.5776,5.4822,5.5684,5.6115,5.5715,5.6084,5.6423,5.6761,5.6761,5.6761,5.6761,5.6761,5.6484,5.5869,5.6146,5.63,5.63,5.63,5.6453,0.0,0.0,0.0,0.0,0.0,0.0,0.0,0.0,2.7699,0.0,2.9003,2.9388,3.0302,3.0591,3.0687,3.0687,3.0687,3.0494,2.9965,2.9893,2.9845,2.9701,2.9677,2.9749,2.9869,2.9773,2.9749,2.9869,2.9773,3.0089,3.0934,3.1014,3.1385,3.2175,3.2411,3.2411,3.2254,3.3034,3.35,3.3661,3.3437,3.3728,3.4524,3.4228,3.5408,3.7785,3.8116,3.8809,3.9592,4.021,4.0659,4.0969,4.1278,4.1193,4.0912,4.0772,4.0688,4.0688,4.0688,4.1531,4.257,4.257,4.3413,4.4425,4.4425,4.4425,4.4425,4.4425,4.4987,4.5689,4.6167,4.6869,4.7544,4.8021,4.8134,4.8134,4.8134,4.8134,4.8134,4.8134,4.8723,4.9352,4.9839,5.0398,5.0865,5.1062,5.1619,5.2151,5.2486,5.3241,5.3946,5.4557,5.5079,5.5171,5.4683,5.5761,5.6225,5.5674,5.6357,5.6761,5.6761,5.6761,5.6761,5.6761,5.6761,5.6761,5.6761,5.6761,5.6761,5.6761,5.6761,5.6761,1.7456,1.8695,0.0,0.0,0.0,0.0,0.0,0.0,0.0,2.7603,2.821,2.8715,2.9268,2.9797,3.0134,3.0134,3.0134,2.9941,2.9412,2.934,2.9148,2.8643,2.8595,2.8787,2.9292,2.8883,2.8811,2.9292,2.8883,2.8968,2.9727,2.9779,3.003,3.0637,3.1397,3.1474,3.0637,3.1474,3.2226,3.2883,3.283,3.3119,3.3537,3.3564,3.3904,3.459,3.6087,3.7538,3.8945,3.9592,4.0519,4.1502,4.0969,4.1081,4.1502,4.0912,4.0688,4.0688,4.0688,4.1531,4.257,4.257,4.3413,4.4425,4.4425,4.4425,4.4425,4.4425,4.5296,4.6251,4.6279,4.7178,4.8078,4.8106,4.8134,4.8134,4.8134,4.8134,4.8134,4.8134,4.8583,4.9005,4.9033,4.9136,4.9416,5.0098,5.0847,5.1527,5.217,5.3491,5.4288,5.4318,5.4318,5.4347,5.4288,5.5089,5.5521,5.546,5.6311,5.6761,5.6761,5.6761,5.6761,5.6761,5.6761,5.6761,5.6761,5.6761,5.6761,5.6761,5.6761,5.6761,1.7863,1.8363,0.0,0.0,0.0,2.1839,0.0,2.4608,2.5541,2.6502,2.7392,2.8065,2.8258,2.9003,2.9581,2.9581,2.9581,2.9388,2.8859,2.8787,2.8715,2.8522,2.8522,2.8595,2.8763,2.8619,2.8595,2.8787,0.0,2.8657,2.887,2.8973,2.9047,2.9242,2.9534,2.977,3.0005,2.977,3.0027,3.0829,3.0658,3.111,3.2128,3.193,3.2693,3.4345,3.4666,3.5693,3.716,3.7752,3.8478,3.9231,3.9365,3.9699,4.0041,3.9848,4.0142,4.0688,4.0688,4.1531,4.257,4.257,4.3413,4.4425,4.4425,4.4425,4.4425,4.4425,4.5324,4.6307,4.6307,4.7207,4.8134,4.8134,4.8134,4.8134,4.8134,4.8134,4.8134,4.8134,4.8302,4.8443,4.8443,4.878,4.9136,4.9416,5.0294,5.1233,5.2034,5.292,5.3652,5.42,5.4304,5.4304,5.4304,5.4611,5.4713,5.4713,5.5018,5.522,5.522,5.522,5.543,5.5748,5.543,5.572,5.6761,5.6761,5.6761,5.6761,5.6761,5.6761,1.8084,1.8193,0.0,0.0,0.0,2.037,2.2178,0.0,2.4154,2.5348,2.643,2.7176,2.7176,2.8041,2.8835,2.9003,2.9027,2.8907,2.857,2.8522,2.8522,2.8522,2.8522,2.8522,2.8522,2.8522,2.8522,2.8522,0.0,0.0,2.8522,2.8522,2.8522,2.8522,2.8522,2.8736,2.9263,2.8736,2.8736,2.9341,2.91,2.9715,3.0976,3.0676,3.1638,3.342,3.3196,3.4299,3.6184,3.676,3.7468,3.8109,3.8358,3.8674,3.9033,3.8845,3.9149,3.9733,3.9925,4.0666,4.1663,4.2223,4.3204,4.4177,4.4359,4.4565,4.4678,4.4481,4.5324,4.6307,4.6307,4.7207,4.8134,4.8134,4.8134,4.8134,4.8134,4.8134,4.8134,4.8134,4.8134,4.819,4.8387,4.8752,4.9117,4.9314,5.0213,5.1073,5.168,5.2223,5.2808,5.3366,5.3471,5.3471,5.3471,5.3652,5.386,5.386,5.42,5.4304,5.4304,5.451,5.4834,5.5142,5.4834,5.5143,5.6252,5.6366,5.6342,5.6342,5.6664,5.6761,0.0,0.0,0.0,0.0,0.0,0.0,2.1846,0.0,2.2793,2.4174,2.53,2.6045,2.6045,2.6935,2.7849,2.8354,2.8474,2.8522,2.8522,2.8522,2.8522,2.8522,2.8522,2.8522,2.8522,2.8522,2.8522,0.0,2.8522,2.8522,2.8522,2.8522,2.8522,2.8522,2.8522,2.8522,2.8522,2.8522,2.8522,2.8522,2.8522,2.9051,3.0062,3.0086,3.0663,3.1649,3.1649,3.3358,3.607,3.6619,3.7534,3.8501,3.7886,3.8109,3.8527,3.8004,3.7795,3.79,3.8382,3.905,3.979,4.1328,4.2711,4.3748,4.4188,4.4724,4.506,4.4471,4.5324,4.6307,4.6335,4.7235,4.8134,4.8134,4.8134,4.8134,4.8134,4.8134,4.8134,4.8134,4.8134,4.8331,4.8949,4.9061,4.9314,4.9904,5.0494,5.0916,5.0916,5.1421,5.1787,5.1787,5.1787,5.1787,5.1815,5.2516,5.2914,5.2972,5.3785,5.42,5.4259,5.4848,5.5171,5.5171,5.5171,5.5142,5.5142,5.5317,5.5421,5.5521,5.6372,5.6792,1.8575,0.0,0.0,0.0,0.0,0.0,1.989,2.0721,2.1611,2.2488,2.3819,2.4823,2.4893,2.5829,2.6598,2.6743,2.7753,2.8522,2.8522,2.8522,2.8522,2.8522,2.8522,2.8522,2.8522,2.8522,0.0,0.0,2.8522,2.8522,2.8522,2.8522,2.8522,2.8522,2.8522,2.8522,2.8522,2.8522,2.8522,2.8522,2.8522,2.8859,2.9532,2.9917,3.0446,3.112,3.1504,3.239,3.3498,3.3646,3.4336,3.5273,3.5149,3.5868,3.6981,3.676,3.715,3.79,3.8382,3.905,3.9599,4.0465,4.1248,4.1928,4.2065,4.2217,4.2422,4.3039,4.4178,4.5531,4.7175,4.7881,4.8134,4.8134,4.8134,4.8134,4.8134,4.8134,4.8134,4.8134,4.8471,4.8836,4.9005,4.9764,5.0438,5.0607,5.114,5.1534,5.1534,5.1674,5.1787,5.1787,5.1787,5.1764,5.1766,5.204,5.2371,5.2715,5.2594,5.2944,5.3856,5.3599,5.3685,5.4141,5.3575,5.3347,5.3347,5.4182,5.4611,5.4611,5.6003,5.6546,1.9149,1.9011,1.8827,1.9034,0.0,0.0,1.9668,2.0229,2.0771,0.0,2.2815,2.3747,2.3881,2.4723,2.5444,2.5444,2.6598,2.7584,2.7825,2.8041,2.8089,2.7873,2.8041,2.8089,2.7873,2.8041,2.8186,2.8186,2.8378,2.8522,2.8522,2.8522,2.8522,2.8522,2.8522,2.8522,2.8522,2.8522,2.8522,2.8522,2.8522,2.8787,2.9316,2.9845,3.0374,3.0903,3.1432,3.1841,3.2154,3.2154,3.2779,3.3741,3.3958,3.4603,3.5347,3.5593,3.6048,3.6597,3.7127,3.7707,3.8336,3.9389,4.0207,4.0926,4.1097,4.1402,4.1634,4.2065,4.3363,4.5084,4.6929,4.7801,4.8134,4.8134,4.8134,4.8134,4.8134,4.8134,4.8134,4.8134,4.8612,4.9117,4.937,5.0213,5.0972,5.1225,5.1562,5.1787,5.1787,5.1568,5.1458,5.1458,5.1461,5.1431,5.145,5.1594,5.1845,5.1971,5.2041,5.2436,5.291,5.3304,5.3528,5.3692,5.3078,5.2631,5.2352,5.3337,5.4111,5.4716,5.5783,5.6288,1.9769,1.9769,1.9861,2.0228,1.9723,0.0,2.0401,2.0404,2.0394,2.0974,2.193,2.2663,2.2639,2.3502,2.4198,2.4198,2.5085,2.6069,2.6743,2.7296,2.7464,2.6983,2.7344,2.744,2.6983,2.7368,2.7633,2.7633,2.8114,2.8402,2.833,2.845,2.8474,2.8426,2.8474,2.8522,2.8522,2.8522,2.8522,2.8522,2.8522,2.8787,2.9316,2.9845,3.0374,3.0903,3.1432,3.1673,3.1673,3.1673,3.2274,3.326,3.3813,3.403,3.4102,3.4703,3.4871,3.4895,3.5425,3.5954,3.6686,3.8113,3.9393,4.0354,4.0771,4.1181,4.1594,4.1305,4.2796,4.4861,4.5867,4.6922,4.7801,4.7903,4.7903,4.7903,4.8106,4.8134,4.8134,4.8134,4.8668,4.9314,4.9876,5.0522,5.1061,5.1593,5.1677,5.1677,5.1677,5.1238,5.0906,5.0906,5.0867,5.0932,5.0871,5.1359,5.1494,5.1088,5.2048,5.2449,5.2008,5.3549,5.4222,5.3496,5.2917,5.2338,5.1787,5.2537,5.3617,5.4943,5.5586,5.5879,2.0274,2.0274,2.0205,1.9907,2.0274,0.0,2.0035,2.0128,2.0303,2.0181,2.0334,2.0534,2.0712,2.154,2.2226,2.2226,2.3257,2.456,2.6069,2.6743,2.7055,2.6959,2.7031,2.7031,2.6935,2.7031,2.7079,2.7079,2.7584,2.7681,2.7272,2.8041,2.8306,2.7897,2.8282,2.8522,2.8522,2.8522,2.8522,2.8522,2.8522,2.8787,2.9316,2.9845,3.0374,3.0903,3.1432,3.1673,3.1673,3.1673,3.2058,3.2755,3.3669,3.403,3.415,3.5112,3.5184,3.4895,3.5425,3.5954,3.6483,3.7321,3.7927,3.8518,3.8631,3.8656,3.9111,4.0807,4.2551,4.4098,4.4783,4.5074,4.5502,4.6478,4.6714,4.7026,4.7903,4.8134,4.8134,4.8134,4.9033,4.982,4.9932,5.0537,5.0989,5.11,5.1128,5.1128,5.1128,5.1017,5.0906,5.0906,5.0867,5.0864,5.088,5.1368,5.1917,5.2272,5.2025,5.2298,5.3261,5.3634,5.3496,5.2788,5.2217,5.1836,5.1727,5.2425,5.2881,5.3247,5.4572,5.4828,2.1537,2.1537,2.1491,2.1238,2.1169,0.0,0.0,2.0473,2.0526,2.0331,2.0554,2.0862,2.0922,2.1346,2.1675,2.1675,2.2462,2.3442,2.4297,2.5157,2.5636,2.5372,2.5805,0.0,2.5757,2.6214,2.6622,2.6911,2.7176,2.72,2.6959,2.7681,2.7993,2.7729,2.8234,2.8522,2.8522,2.8522,2.8522,2.8522,2.8522,2.8643,2.8931,2.9725,3.0086,3.0158,3.1216,3.1504,3.1288,3.1553,3.1841,3.2226,3.3525,3.403,3.4174,3.5232,3.5449,3.5232,3.5232,3.5569,3.6098,3.6627,3.7156,3.7685,3.8238,3.8407,3.861,3.9766,4.1053,4.2285,4.3131,4.3769,4.4385,4.5316,4.5502,4.5608,4.6269,4.6374,4.6374,4.6374,4.7636,4.8908,4.9799,5.029,5.0547,5.0851,5.0683,5.0572,5.0906,5.032,5.0096,5.046,5.0209,5.01,5.0326,5.0883,5.1296,5.1223,5.183,5.2191,5.2218,5.3087,5.3114,5.2191,5.2191,5.2057,5.1642,5.2296,5.2652,5.2732,5.4102,5.438,2.2708,2.2823,2.2914,2.2731,2.2271,2.1812,0.0,0.0,0.0,2.0819,0.0,0.0,0.0,0.0,0.0,0.0,0.0,0.0,0.0,2.3346,0.0,2.3718,2.4506,0.0,2.4342,2.5228,2.6021,2.6574,2.6719,2.6719,2.6622,2.7224,2.7584,2.7584,2.8089,2.8402,2.8522,2.8522,2.8522,2.8522,2.8522,2.857,2.8691,2.9532,2.9749,2.9532,3.0903,3.1264,3.0903,3.1456,3.1673,3.1841,3.3525,3.4126,3.4174,3.5352,3.5713,3.5545,3.5016,3.5232,3.5833,3.6266,3.6916,3.7661,3.8431,3.8815,3.896,3.8839,3.9487,4.0508,4.1504,4.2518,4.3403,4.4054,4.4318,4.4318,4.4509,4.4509,4.4509,4.4509,4.5739,4.7325,4.9292,4.9824,5.0216,5.0712,5.0348,5.0123,5.0572,4.9756,4.9301,4.9783,4.9425,4.927,4.9688,5.0394,5.0577,5.0106,5.1514,5.204,5.111,5.2473,5.2742,5.1896,5.2226,5.213,5.1652,5.2253,5.2593,5.262,5.3681,5.3806,2.28,2.3328,2.381,2.2891,2.358,2.4131,2.28,0.0,2.1629,2.1233,0.0,0.0,0.0,0.0,0.0,0.0,0.0,0.0,2.1556,2.1799,2.2391,2.3375,2.379,2.3838,0.0,2.4294,2.4915,2.5444,2.5925,2.5997,2.5516,2.6454,2.7031,2.7031,2.7536,2.8041,2.8498,2.8522,2.8522,2.8522,2.8522,2.8763,2.922,2.934,2.9605,3.0037,3.0687,3.0927,3.0903,3.1456,3.1673,3.1865,3.3933,3.4463,3.4222,3.5761,3.6026,3.5545,3.5016,3.5473,3.6314,3.6386,3.7421,3.8575,3.819,3.8743,3.9417,3.896,3.9261,3.9854,4.0459,4.0716,4.1174,4.276,4.3108,4.3305,4.4074,4.4292,4.4292,4.4292,4.4513,4.5637,4.8029,4.9336,4.9996,5.0154,5.001,4.9783,4.9415,4.9186,4.9072,4.9186,4.9165,4.9113,4.9165,5.0159,5.076,5.0681,5.138,5.1669,5.1538,5.1767,5.2068,5.2508,5.1944,5.1695,5.1616,5.2315,5.2562,5.2631,5.2807,5.2465,2.3626,2.3879,2.4085,2.3672,2.381,2.3902,2.3259,2.2731,2.2294,2.2088,0.0,0.0,0.0,0.0,0.0,0.0,2.1197,0.0,0.0,0.0,2.1863,0.0,0.0,0.0,0.0,0.0,0.0,0.0,2.5059,2.5228,2.53,2.6021,2.6598,2.6935,2.744,2.7969,2.8498,2.8522,2.8522,2.8522,2.8522,2.8619,2.8859,2.9148,2.9244,2.922,3.0062,3.0422,3.047,3.0975,3.1384,3.1841,3.3669,3.4246,3.4198,3.5473,3.5809,3.5545,3.5016,3.5112,3.5593,3.6218,3.7709,3.9104,3.8238,3.8743,3.9417,3.8575,3.8503,3.8791,3.9345,3.9705,4.0178,4.0974,4.1363,4.1696,4.1874,4.2119,4.234,4.234,4.3333,4.4662,4.6025,4.6794,4.7643,4.8736,4.8469,4.8353,4.8957,4.8726,4.8753,4.9098,4.8758,4.8695,4.9061,4.9531,4.9949,5.0263,5.0812,5.1256,5.1596,5.197,5.2094,5.197,5.2094,5.197,5.1596,5.1846,5.197,5.197,5.2465,5.2218,2.42,2.4292,2.4361,2.4223,2.4016,2.381,2.3672,2.3374,2.3052,2.2914,2.2891,0.0,0.0,0.0,2.1973,2.1445,0.0,2.1499,0.0,2.1486,0.0,0.0,0.0,0.0,0.0,0.0,0.0,2.4414,2.4462,2.4677,2.5276,2.5661,2.6214,2.6911,2.7296,2.7825,2.8498,2.8522,2.8522,2.8522,2.8522,2.8522,2.8522,2.8907,2.8883,2.857,2.9629,3.0086,3.0134,3.0807,3.1408,3.2034,3.3332,3.3909,3.4174,3.5232,3.5617,3.5569,3.5184,3.5232,3.5617,3.6531,3.7998,3.9224,3.8262,3.8647,3.92,3.8238,3.7974,3.8118,3.8671,3.9224,3.9618,4.0009,4.0445,4.0711,4.0339,4.0528,4.0952,4.0975,4.2327,4.3664,4.4442,4.5085,4.6111,4.7548,4.7061,4.6942,4.7886,4.7677,4.756,4.8055,4.7703,4.7648,4.8418,4.8755,4.9343,5.0315,5.0513,5.0929,5.157,5.2094,5.2094,5.1596,5.2094,5.2094,5.1596,5.1596,5.1596,5.1596,5.2094,5.2094,0.0,0.0,0.0,2.4315,0.0,0.0,0.0,0.0,2.4016,2.3441,2.3349,2.3259,2.2754,2.2662,2.2501,2.1973,2.1904,0.0,0.0,2.1233,2.1273,2.14,0.0,0.0,0.0,2.2563,2.3053,2.4184,2.4324,2.4632,2.5276,2.5324,2.5829,2.6911,2.6959,2.7464,2.8498,2.8522,2.8522,2.8522,2.8522,2.8522,2.8522,2.8522,2.8522,2.857,2.9629,3.0086,3.0158,3.1216,3.1961,3.2539,3.3092,3.3621,3.4174,3.5232,3.5617,3.5617,3.5593,3.6266,3.7204,3.7757,3.8359,3.8743,3.8166,3.8383,3.8719,3.8142,3.7974,3.8118,3.8671,3.9224,3.9729,4.0258,4.0787,4.0942,4.0339,4.0479,4.0785,4.0905,4.1445,4.2205,4.3288,4.5229,4.6579,4.6696,4.6415,4.608,4.55,4.5403,4.5403,4.5403,4.5403,4.5768,4.673,4.7841,4.9307,5.1465,5.0664,5.0563,5.1596,5.1596,5.1596,5.1596,5.1596,5.1596,5.1596,5.1596,5.1596,5.1596,5.1596,5.1596,0.0,0.0,2.4866,2.4705,0.0,0.0,0.0,0.0,0.0,2.4039,2.42,2.4154,2.3351,2.319,2.3006,2.2501,2.2134,2.1858,0.0,2.1675,2.1537,2.1319,2.1336,2.1533,0.0,0.0,0.0,2.3185,2.3699,2.4174,2.4747,2.5444,2.6166,2.6911,2.7272,2.7801,2.8498,2.8522,2.8522,2.8522,2.8522,2.8522,2.8522,2.8522,2.8522,2.8546,2.9268,2.9773,3.0134,3.0855,3.1456,3.2034,3.2947,3.3597,3.4174,3.5232,3.54,3.5136,3.5497,3.6074,3.6771,3.73,3.807,3.8719,3.8142,3.8383,3.8695,3.8142,3.7974,3.8118,3.8671,3.8981,3.9372,3.9694,4.0009,4.027,4.0013,4.055,4.1184,4.1492,4.2343,4.3227,4.364,4.4133,4.4646,4.5354,4.5013,4.4767,4.5281,4.5281,4.5281,4.5281,4.5576,4.5896,4.6265,4.7259,4.8181,4.8937,4.9082,4.9152,4.954,4.954,4.9925,5.0588,5.0588,5.0968,5.1596,5.1596,5.1596,5.1596,5.1596,5.1596,2.5532,2.5463,0.0,2.5187,2.5187,0.0,2.4568,0.0,2.5004,0.0,2.4568,2.4659,2.3856,2.3718,2.3534,2.3029,2.2685,2.2409,0.0,2.2203,2.2065,2.1743,2.1666,2.1545,2.14,2.1588,2.2084,2.2924,2.3436,2.4006,0.0,0.0,2.6358,2.6911,2.744,2.7969,2.8498,2.8522,2.8522,2.8522,2.8522,2.8522,2.8522,2.8522,2.8619,2.8811,2.934,2.9893,3.0422,3.0927,3.148,3.2058,3.2947,3.3717,3.4414,3.5304,3.5641,3.5689,3.5833,3.6362,3.7012,3.7372,3.795,3.8455,3.8094,3.8238,3.8527,3.8551,3.8431,3.8455,3.9067,3.9276,3.9386,3.9628,3.9755,3.9896,3.9896,4.0691,4.1442,4.1751,4.2824,4.3712,4.3778,4.3553,4.3553,4.4175,4.3678,4.3498,4.4439,4.4587,4.4535,4.4702,4.5014,4.5405,4.5978,4.6633,4.7377,4.7807,4.7914,4.8109,4.8502,4.8502,4.8936,4.9987,4.9741,4.9999,5.1023,5.064,5.0563,5.0563,5.0563,5.0563]},{"header":{"parameterUnit":"m.s-1","parameterCategory":1,"la1":30.6,"la2":29.2853,"lo1":-89.7004,"lo2":-87.6739,"dy":0.0162,"dx":0.0183,"nx":112,"ny":82,"refTime":"2024-04-02T18:00:00:Z","depth":0,"parameterNumber":3,"parameterNumberName":"V-component_of_WINDS"},"data":[0.0,0.0,0.0,0.0,0.0,0.0,0.0,0.0,0.0,0.0,0.0,0.0,0.0,0.0,0.0,0.0,0.0,0.0,0.0,0.0,0.0,0.0,0.0,0.0,0.0,0.0,0.0,0.0,0.0,0.0,0.0,0.0,0.0,0.0,0.0,0.0,0.0,0.0,0.0,0.0,0.0,0.0,0.0,0.0,0.0,0.0,0.0,0.0,0.0,0.0,0.0,0.0,0.0,0.0,0.0,0.0,0.0,0.0,0.0,0.0,0.0,0.0,0.0,0.0,0.0,0.0,0.0,0.0,0.0,0.0,0.0,0.0,0.0,0.0,0.0,0.0,0.0,0.0,0.0,0.0,0.0,0.0,0.0,0.0,0.0,0.0,0.0,0.0,0.0,0.0,-1.3558,-1.5235,-1.7616,-1.9106,-1.9168,-1.8154,-1.6622,-1.4552,0.0,0.0,0.0,0.0,0.0,0.0,0.0,0.0,0.0,0.0,0.0,0.0,0.0,0.0,0.0,0.0,0.0,0.0,0.0,0.0,0.0,0.0,0.0,0.0,0.0,0.0,0.0,0.0,0.0,0.0,0.0,0.0,0.0,0.0,0.0,0.0,0.0,0.0,0.0,0.0,0.0,0.0,0.0,0.0,0.0,0.0,0.0,0.0,0.0,0.0,0.0,0.0,0.0,0.0,0.0,0.0,0.0,0.0,0.0,0.0,0.0,0.0,0.0,0.0,0.0,0.0,0.0,0.0,0.0,0.0,0.0,0.0,0.0,0.0,0.0,0.0,0.0,0.0,0.0,0.0,0.0,0.0,0.0,0.0,0.0,0.0,0.0,0.0,0.0,0.0,0.0,0.0,0.0,0.0,0.0,0.0,0.0,0.0,0.0,0.0,0.0,0.0,0.0,0.0,-1.4006,-1.7015,-1.8361,-1.923,-1.9692,-1.7761,-1.6105,-1.4966,0.0,0.0,0.0,0.0,0.0,0.0,0.0,0.0,0.0,0.0,0.0,0.0,0.0,0.0,0.0,0.0,0.0,0.0,0.0,0.0,0.0,0.0,0.0,0.0,0.0,0.0,0.0,0.0,0.0,0.0,0.0,0.0,0.0,0.0,0.0,0.0,0.0,0.0,0.0,0.0,0.0,0.0,0.0,0.0,0.0,0.0,0.0,0.0,0.0,0.0,0.0,0.0,0.0,0.0,0.0,0.0,0.0,0.0,0.0,0.0,0.0,0.0,0.0,0.0,0.0,0.0,0.0,0.0,0.0,0.0,0.0,0.0,0.0,0.0,0.0,0.0,0.0,0.0,0.0,0.0,0.0,0.0,0.0,0.0,0.0,0.0,0.0,0.0,0.0,0.0,0.0,0.0,0.0,0.0,0.0,0.0,0.0,0.0,0.0,0.0,0.0,0.0,0.0,-1.3786,-1.509,-1.7802,-1.8671,-1.9168,-1.9375,-1.7533,-1.598,-1.5049,-1.3662,0.0,0.0,0.0,0.0,0.0,0.0,0.0,0.0,0.0,0.0,0.0,0.0,0.0,0.0,0.0,0.0,0.0,0.0,0.0,0.0,0.0,0.0,0.0,0.0,0.0,0.0,0.0,0.0,0.0,0.0,0.0,0.0,0.0,0.0,0.0,0.0,0.0,0.0,0.0,0.0,0.0,0.0,0.0,0.0,0.0,0.0,0.0,0.0,0.0,0.0,0.0,0.0,0.0,0.0,0.0,0.0,0.0,0.0,0.0,0.0,0.0,0.0,0.0,0.0,0.0,0.0,0.0,0.0,0.0,0.0,0.0,0.0,0.0,0.0,0.0,0.0,0.0,0.0,0.0,0.0,0.0,0.0,0.0,0.0,0.0,0.0,0.0,0.0,0.0,0.0,0.0,0.0,0.0,0.0,0.0,0.0,0.0,0.0,0.0,0.0,0.0,0.0,-1.5214,-1.6229,-1.8175,-1.8796,-1.9023,-1.892,-1.7264,-1.5877,-1.5049,-1.3232,0.0,0.0,0.0,0.0,0.0,0.0,0.0,0.0,0.0,0.0,0.0,0.0,0.0,0.0,0.0,0.0,0.0,0.0,0.0,0.0,0.0,0.0,0.0,0.0,0.0,0.0,0.0,0.0,0.0,0.0,0.0,0.0,0.0,0.0,0.0,0.0,0.0,0.0,0.0,0.0,0.0,0.0,0.0,0.0,0.0,0.0,0.0,0.0,0.0,0.0,0.0,0.0,0.0,0.0,0.0,0.0,0.0,0.0,0.0,0.0,0.0,0.0,0.0,0.0,0.0,0.0,0.0,0.0,0.0,0.0,0.0,0.0,0.0,0.0,0.0,0.0,0.0,0.0,0.0,0.0,0.0,0.0,0.0,0.0,0.0,0.0,0.0,0.0,0.0,0.0,0.0,0.0,0.0,0.0,0.0,0.0,0.0,0.0,0.0,0.0,0.0,0.0,-1.5835,-1.7284,-1.8278,-1.8796,-1.8899,-1.8464,-1.6767,-1.5525,-1.5028,-1.2875,0.0,0.0,0.0,0.0,0.0,0.0,0.0,0.0,0.0,0.0,0.0,0.0,0.0,0.0,0.0,0.0,0.0,0.0,0.0,0.0,0.0,0.0,0.0,0.0,0.0,0.0,0.0,0.0,0.0,0.0,0.0,0.0,0.0,0.0,0.0,0.0,0.0,0.0,0.0,0.0,0.0,0.0,0.0,0.0,0.0,0.0,0.0,0.0,0.0,0.0,0.0,0.0,0.0,0.0,0.0,0.0,0.0,0.0,0.0,0.0,0.0,0.0,0.0,0.0,0.0,0.0,0.0,0.0,0.0,0.0,0.0,0.0,0.0,0.0,0.0,0.0,0.0,0.0,0.0,0.0,0.0,0.0,0.0,0.0,0.0,0.0,0.0,0.0,0.0,0.0,0.0,0.0,0.0,0.0,0.0,0.0,0.0,0.0,0.0,0.0,0.0,0.0,-1.5587,-1.687,0.0,-1.8713,-1.8568,-1.8402,-1.6726,-1.5484,-1.5028,0.0,0.0,0.0,0.0,0.0,0.0,0.0,0.0,0.0,0.0,0.0,0.0,0.0,0.0,0.0,0.0,0.0,0.0,0.0,0.0,0.0,0.0,0.0,0.0,0.0,0.0,0.0,0.0,0.0,0.0,0.0,0.0,0.0,0.0,0.0,0.0,0.0,0.0,0.0,0.0,0.0,0.0,0.0,0.0,0.0,0.0,0.0,0.0,0.0,0.0,0.0,0.0,0.0,0.0,0.0,0.0,0.0,0.0,0.0,0.0,0.0,0.0,0.0,0.0,0.0,0.0,0.0,0.0,0.0,0.0,0.0,0.0,0.0,0.0,0.0,0.0,0.0,0.0,0.0,0.0,0.0,0.0,0.0,0.0,0.0,0.0,0.0,0.0,0.0,0.0,0.0,0.0,0.0,0.0,0.0,0.0,0.0,0.0,0.0,0.0,0.0,0.0,-1.478,-1.5773,-1.6933,0.0,-1.8485,-1.8216,-1.7781,-1.6353,-1.5277,-1.48,0.0,0.0,0.0,0.0,0.0,0.0,0.0,0.0,0.0,0.0,0.0,0.0,0.0,0.0,0.0,0.0,0.0,0.0,0.0,0.0,0.0,0.0,0.0,0.0,0.0,0.0,0.0,0.0,0.0,0.0,0.0,0.0,0.0,0.0,0.0,0.0,0.0,0.0,0.0,0.0,0.0,0.0,0.0,0.0,0.0,0.0,0.0,0.0,0.0,0.0,0.0,0.0,0.0,0.0,0.0,0.0,0.0,0.0,0.0,0.0,0.0,0.0,0.0,0.0,0.0,0.0,0.0,0.0,0.0,0.0,0.0,0.0,0.0,0.0,0.0,0.0,0.0,0.0,0.0,0.0,0.0,0.0,0.0,0.0,0.0,0.0,0.0,0.0,0.0,0.0,0.0,0.0,0.0,0.0,0.0,0.0,0.0,0.0,0.0,0.0,0.0,0.0,-1.4945,-1.6601,-1.7678,-1.7678,-1.8112,-1.7843,-1.6519,-1.5546,-1.48,0.0,0.0,0.0,0.0,0.0,0.0,0.0,0.0,0.0,0.0,0.0,0.0,0.0,0.0,0.0,0.0,0.0,0.0,0.0,0.0,0.0,0.0,0.0,0.0,0.0,0.0,0.0,0.0,0.0,0.0,0.0,0.0,0.0,0.0,0.0,0.0,0.0,0.0,0.0,0.0,0.0,0.0,0.0,0.0,0.0,0.0,0.0,0.0,0.0,0.0,0.0,0.0,0.0,0.0,0.0,0.0,0.0,0.0,0.0,0.0,0.0,0.0,0.0,0.0,0.0,0.0,0.0,0.0,0.0,0.0,0.0,0.0,0.0,0.0,0.0,0.0,0.0,0.0,0.0,0.0,0.0,0.0,0.0,0.0,0.0,0.0,0.0,0.0,0.0,0.0,0.0,0.0,0.0,0.0,0.0,0.0,0.0,0.0,0.0,0.0,0.0,0.0,0.0,-1.5339,-1.6519,-1.7616,-1.8568,-1.8216,-1.7761,-1.7367,-1.5543,-1.4558,-1.48,0.0,0.0,0.0,0.0,0.0,0.0,0.0,0.0,0.0,0.0,0.0,0.0,0.0,0.0,0.0,0.0,0.0,0.0,0.0,0.0,0.0,0.0,0.0,0.0,0.0,0.0,0.0,0.0,0.0,0.0,0.0,0.0,0.0,0.0,0.0,0.0,0.0,0.0,0.0,0.0,0.0,0.0,0.0,0.0,0.0,0.0,0.0,0.0,0.0,0.0,0.0,0.0,0.0,0.0,0.0,0.0,0.0,0.0,0.0,0.0,0.0,0.0,0.0,0.0,0.0,0.0,0.0,0.0,0.0,0.0,0.0,0.0,0.0,0.0,0.0,0.0,0.0,0.0,0.0,0.0,0.0,0.0,0.0,0.0,0.0,0.0,0.0,0.0,0.0,0.0,0.0,0.0,0.0,0.0,0.0,0.0,0.0,0.0,0.0,0.0,0.0,0.0,-1.5566,-1.6643,-1.7636,-1.8444,-1.7798,-1.7205,-1.684,-1.4978,-1.399,-1.4356,0.0,0.0,0.0,0.0,0.0,0.0,0.0,0.0,0.0,0.0,0.0,0.0,0.0,0.0,0.0,0.0,0.0,0.0,0.0,0.0,0.0,0.0,0.0,0.0,0.0,0.0,0.0,0.0,0.0,0.0,0.0,0.0,0.0,0.0,0.0,0.0,0.0,0.0,0.0,0.0,0.0,0.0,0.0,0.0,0.0,0.0,0.0,0.0,0.0,0.0,0.0,0.0,0.0,0.0,0.0,0.0,0.0,0.0,0.0,0.0,0.0,0.0,0.0,0.0,0.0,0.0,0.0,0.0,0.0,0.0,0.0,0.0,0.0,0.0,0.0,0.0,0.0,0.0,0.0,0.0,0.0,0.0,0.0,0.0,0.0,0.0,0.0,0.0,0.0,0.0,0.0,0.0,0.0,0.0,0.0,0.0,0.0,0.0,0.0,0.0,0.0,0.0,-1.5691,-1.6912,-1.7698,-1.7657,-1.7116,-1.6429,-1.5429,-1.411,-1.3346,-1.342,0.0,0.0,0.0,0.0,0.0,0.0,0.0,0.0,0.0,0.0,0.0,0.0,0.0,0.0,0.0,0.0,0.0,0.0,0.0,0.0,0.0,0.0,0.0,0.0,0.0,0.0,0.0,0.0,0.0,0.0,0.0,0.0,0.0,0.0,0.0,0.0,0.0,0.0,0.0,0.0,0.0,0.0,0.0,0.0,0.0,0.0,0.0,0.0,0.0,0.0,0.0,0.0,0.0,0.0,0.0,0.0,0.0,0.0,0.0,0.0,-1.1679,0.0,0.0,0.0,0.0,0.0,0.0,0.0,0.0,0.0,0.0,0.0,0.0,0.0,0.0,0.0,0.0,0.0,0.0,0.0,0.0,0.0,0.0,0.0,0.0,0.0,0.0,0.0,0.0,0.0,0.0,0.0,0.0,0.0,0.0,0.0,0.0,0.0,0.0,0.0,0.0,0.0,-1.6125,-1.7119,-1.7677,-1.7576,-1.7105,-1.636,-1.5289,-1.4292,-1.3663,-1.3364,-1.2935,0.0,0.0,0.0,0.0,0.0,0.0,0.0,0.0,0.0,0.0,0.0,0.0,0.0,0.0,0.0,0.0,0.0,0.0,0.0,0.0,0.0,0.0,0.0,0.0,0.0,0.0,0.0,0.0,0.0,0.0,0.0,0.0,0.0,0.0,0.0,0.0,0.0,0.0,0.0,0.0,0.0,0.0,0.0,0.0,0.0,0.0,0.0,0.0,0.0,0.0,0.0,0.0,0.0,0.0,0.0,0.0,0.0,0.0,0.0,0.0,-1.2037,0.0,0.0,0.0,0.0,0.0,0.0,0.0,0.0,0.0,0.0,0.0,0.0,0.0,0.0,0.0,0.0,0.0,0.0,0.0,0.0,0.0,0.0,0.0,0.0,0.0,0.0,0.0,0.0,0.0,0.0,0.0,0.0,0.0,0.0,0.0,0.0,0.0,0.0,0.0,0.0,-1.596,-1.7036,-1.7655,-1.7435,-1.6869,-1.6113,-1.5006,-1.3891,-1.3223,-1.3067,-1.2556,0.0,0.0,0.0,0.0,0.0,0.0,0.0,0.0,0.0,0.0,0.0,0.0,0.0,0.0,0.0,0.0,0.0,0.0,0.0,0.0,0.0,0.0,0.0,0.0,0.0,0.0,0.0,0.0,0.0,0.0,0.0,0.0,0.0,0.0,0.0,0.0,0.0,0.0,0.0,0.0,0.0,0.0,0.0,0.0,0.0,0.0,0.0,0.0,0.0,0.0,0.0,0.0,0.0,-1.4923,-1.4799,-1.4153,-1.4056,-1.4047,-1.403,-1.2873,-1.2282,-1.2069,-1.1893,0.0,0.0,0.0,0.0,0.0,0.0,0.0,0.0,0.0,0.0,0.0,0.0,0.0,0.0,0.0,0.0,0.0,0.0,0.0,0.0,0.0,0.0,0.0,0.0,-1.628,-1.6255,0.0,0.0,0.0,0.0,0.0,0.0,0.0,0.0,0.0,0.0,0.0,0.0,-1.5856,-1.6974,-1.7571,-1.735,-1.6713,-1.5867,-1.4703,-1.3551,-1.2777,-1.2672,-1.2363,-1.2467,0.0,0.0,0.0,0.0,0.0,0.0,0.0,0.0,0.0,0.0,0.0,0.0,0.0,0.0,0.0,0.0,0.0,0.0,0.0,0.0,0.0,0.0,0.0,0.0,0.0,0.0,0.0,0.0,0.0,0.0,0.0,0.0,-1.4628,-1.414,0.0,0.0,0.0,0.0,0.0,0.0,0.0,0.0,0.0,0.0,0.0,0.0,0.0,-1.5959,-1.6581,-1.6155,-1.5991,-1.5928,-1.553,-1.5087,-1.4503,-1.4552,-1.4673,-1.5049,-1.4856,0.0,-1.3033,-1.2305,0.0,0.0,0.0,0.0,0.0,0.0,0.0,0.0,0.0,0.0,0.0,0.0,0.0,0.0,0.0,0.0,0.0,0.0,0.0,0.0,0.0,0.0,-1.6566,-1.6831,-1.7199,-1.7349,0.0,-1.6117,-1.5566,-1.5442,-1.5194,0.0,0.0,0.0,0.0,0.0,0.0,0.0,-1.6688,-1.7307,-1.7655,-1.752,-1.6798,-1.574,-1.4403,-1.3996,-1.333,-1.2177,-1.3072,-1.3255,-1.2477,-1.295,0.0,0.0,0.0,0.0,0.0,0.0,0.0,0.0,0.0,0.0,0.0,0.0,0.0,0.0,0.0,0.0,0.0,0.0,0.0,0.0,0.0,0.0,0.0,0.0,0.0,0.0,0.0,0.0,0.0,-1.5269,-1.4657,-1.4183,-1.4424,-1.4514,0.0,0.0,0.0,0.0,0.0,0.0,0.0,0.0,0.0,-1.6294,-1.6946,-1.7449,-1.7781,-1.7506,-1.732,-1.7151,-1.6872,-1.6353,-1.5825,-1.6031,-1.6206,-1.6349,-1.6142,-1.5771,-1.5097,-1.3731,-1.2995,-1.2707,0.0,0.0,0.0,0.0,-1.3304,-1.3246,-1.3357,-1.356,0.0,-1.2779,0.0,0.0,0.0,0.0,0.0,0.0,0.0,0.0,0.0,0.0,-1.6824,-1.7339,-1.7807,-1.8043,-1.7856,-1.7304,-1.6825,0.0,-1.6498,-1.6291,-1.5525,0.0,0.0,0.0,0.0,-1.614,-1.6337,-1.7016,-1.7129,-1.6266,-1.6061,-1.5479,-1.423,-1.3934,-1.3461,-1.2647,-1.2754,-1.2745,-1.2592,-1.3039,-1.3437,0.0,0.0,0.0,0.0,0.0,0.0,0.0,0.0,0.0,0.0,0.0,0.0,0.0,0.0,0.0,0.0,0.0,0.0,0.0,0.0,0.0,0.0,0.0,0.0,0.0,0.0,0.0,0.0,-1.5274,-1.4907,-1.4178,-1.4821,-1.5057,0.0,0.0,0.0,0.0,0.0,0.0,-1.6199,-1.6854,-1.7426,-1.7989,-1.8736,-1.9189,-1.9437,-1.916,-1.8938,-1.8697,-1.8331,-1.7846,-1.727,-1.7556,-1.7683,-1.7668,-1.7382,-1.7223,-1.7,-1.5332,-1.4299,-1.3696,-1.3076,-1.2822,-1.2916,-1.37,-1.3847,-1.3832,-1.418,-1.4447,-1.4395,-1.3204,0.0,-1.3706,-1.3126,0.0,0.0,0.0,0.0,-1.5322,-1.612,-1.6688,-1.7242,-1.7988,-1.8536,-1.8777,-1.8512,-1.8357,-1.8064,0.0,-1.7302,-1.7246,-1.625,0.0,0.0,0.0,0.0,-1.6257,-1.6513,-1.6998,-1.6968,-1.594,-1.6138,-1.5809,-1.447,-1.4125,-1.3768,-1.3235,-1.2897,-1.274,-1.288,-1.3252,-1.3551,-1.368,0.0,0.0,0.0,0.0,0.0,0.0,0.0,0.0,0.0,0.0,0.0,0.0,0.0,0.0,0.0,0.0,0.0,0.0,0.0,0.0,0.0,0.0,0.0,0.0,0.0,0.0,0.0,0.0,0.0,-1.3978,-1.5353,0.0,0.0,0.0,0.0,-1.656,-1.6911,-1.7444,-1.8365,-1.8802,-1.9334,-2.0224,-2.0721,-2.1404,-2.2273,-2.1372,-2.0914,-2.0839,-1.9922,-1.9173,-1.8716,-1.8748,-1.8748,-1.8748,-1.8732,-1.8526,-1.8112,-1.6683,-1.5888,-1.5507,-1.5157,-1.503,-1.503,-1.512,-1.512,-1.5136,-1.5152,-1.5168,-1.5168,-1.5046,-1.5153,-1.5233,-1.49,-1.5271,0.0,0.0,-1.5441,-1.6241,-1.72,-1.7682,-1.8083,-1.8853,-1.9636,-1.9865,-1.8745,-1.9153,-1.9213,0.0,-1.7154,-1.7135,-1.7057,0.0,-1.675,-1.7492,-1.6413,-1.6185,-1.8066,-1.7695,-1.748,-1.7823,-1.7881,-1.7166,-1.5274,-1.5155,-1.4664,-1.3651,-1.4114,-1.4061,-1.3108,-1.363,-1.3648,-1.2871,-1.3543,0.0,0.0,0.0,0.0,0.0,0.0,0.0,0.0,0.0,0.0,0.0,0.0,0.0,0.0,0.0,0.0,0.0,0.0,0.0,0.0,0.0,0.0,0.0,0.0,0.0,0.0,0.0,0.0,-1.6946,-1.8105,0.0,-1.7589,-1.7977,-1.8296,-1.8169,-1.8617,-1.9177,-1.996,-2.0573,-2.1259,-2.217,-2.2936,-2.3619,-2.424,-2.356,-2.3329,-2.3242,-2.1336,-2.0388,-2.0155,-1.9201,-1.8955,-1.9161,-1.8923,-1.8891,-1.8939,-1.8192,-1.7429,-1.6651,-1.6063,-1.5983,-1.6174,-1.6174,-1.646,-1.681,-1.6603,-1.6826,-1.708,-1.6397,-1.5931,-1.5583,-1.5454,-1.5716,-1.6096,-1.6037,-1.628,-1.6652,-1.7515,-1.7629,-1.7744,-1.8376,-1.8803,-1.8946,-1.8464,-1.8423,-1.828,-1.7463,-1.7424,-1.7562,-1.7213,-1.6825,-1.6929,-1.8026,-1.7794,-1.7586,-1.8165,-1.7745,-1.7183,-1.6569,-1.634,-1.5935,-1.5225,-1.4784,-1.4427,-1.4263,-1.3686,-1.3309,-1.3364,-1.3593,-1.3761,-1.3897,-1.4482,-1.5118,0.0,0.0,0.0,0.0,0.0,0.0,0.0,0.0,0.0,0.0,0.0,0.0,0.0,0.0,0.0,0.0,0.0,0.0,0.0,0.0,0.0,0.0,0.0,0.0,0.0,0.0,-1.8633,-1.9033,-2.0264,-2.0663,-1.9619,-1.9956,-2.0186,-2.0105,-2.0673,-2.1397,-2.2176,-2.2856,-2.3471,-2.4074,-2.476,-2.5238,-2.544,-2.4806,-2.4428,-2.4271,-2.2075,-2.1019,-2.0805,-1.9678,-1.9304,-1.9526,-1.9161,-1.9145,-1.9352,-1.8986,-1.8414,-1.7747,-1.7143,-1.7048,-1.7254,-1.7254,-1.7636,-1.8097,-1.7874,-1.8097,-1.8319,-1.7382,-1.6762,-1.6381,-1.6381,-1.654,-1.6778,-1.7016,-1.708,-1.7223,-1.7795,-1.7699,-1.762,-1.8319,-1.8383,-1.8303,-1.8303,-1.8112,-1.793,-1.7937,-1.778,-1.7667,-1.7714,-1.7334,-1.7509,-1.8931,-1.8471,-1.8134,-1.8414,-1.799,-1.7351,-1.638,-1.6444,-1.6275,-1.5454,-1.5095,-1.4805,-1.463,-1.3769,-1.3526,-1.4076,-1.3823,-1.4018,-1.4671,-1.5482,-1.6218,-1.6829,0.0,0.0,0.0,0.0,0.0,0.0,0.0,0.0,0.0,0.0,0.0,0.0,0.0,0.0,0.0,0.0,0.0,0.0,0.0,0.0,0.0,0.0,0.0,-1.8098,-1.9585,-2.0504,-2.0117,-2.1525,-2.2051,-2.0642,-2.1225,-2.1893,-2.2563,-2.3203,-2.403,-2.4935,-2.5614,-2.5992,-2.5986,-2.6187,-2.6187,-2.5916,-2.5077,-2.431,-2.3809,-2.2254,-2.1294,-2.0763,-2.0166,-1.9844,-1.9828,-1.9495,-1.9368,-1.9352,-1.8986,-1.8827,-1.8796,-1.8446,-1.8319,-1.8335,-1.8335,-1.8557,-1.8859,-1.8843,-1.8843,-1.8748,-1.8033,-1.7811,-1.7826,-1.7811,-1.7795,-1.7795,-1.7795,-1.7795,-1.7874,-1.8208,-1.8049,-1.7954,-1.8653,-1.8557,-1.8303,-1.8319,-1.8303,-1.8459,-1.9058,-1.8172,-1.7562,-1.8398,-1.83,-1.8618,-2.0145,-1.8471,0.0,-1.9004,-1.8544,-1.7954,-1.7496,-1.8445,-1.8278,-1.5998,-1.6131,-1.5802,-1.4721,-1.4617,-1.4795,-1.5172,-1.449,-1.443,-1.5155,-1.6254,-1.7116,-1.7698,0.0,0.0,0.0,0.0,0.0,0.0,0.0,0.0,0.0,0.0,0.0,0.0,0.0,0.0,0.0,0.0,0.0,0.0,0.0,0.0,0.0,-1.9226,-1.9519,-1.9519,-2.1032,-2.241,-2.3144,-2.414,-2.4492,-2.3738,-2.4454,-2.4949,-2.4712,-2.5423,-2.5955,-2.6387,-2.6448,-2.6657,-2.6901,-2.7013,-2.7091,-2.7149,-2.6868,-2.6243,-2.5156,-2.3409,-2.2173,-2.1216,-1.976,-1.9256,-1.9495,-1.9129,-1.9129,-1.9352,-1.8986,-1.8827,-1.8812,-1.8716,-1.8843,-1.9082,-1.9082,-1.9288,-1.9542,-1.9304,-1.9383,-1.9463,-1.8764,-1.8716,-1.8875,-1.8621,-1.8541,-1.8541,-1.8541,-1.8541,-1.8494,-1.8335,-1.8224,-1.8208,-1.8398,-1.8367,-1.8367,-1.8621,-1.8478,-1.8361,-1.8532,-1.8046,-1.7829,-1.8266,-1.7848,-1.7894,-1.9052,-1.9127,0.0,-1.9294,-1.884,-1.8443,-1.7908,-1.7923,-1.7623,-1.6776,-1.6495,-1.5973,-1.5049,-1.4287,-1.4362,-1.5519,-1.4927,-1.5085,-1.6273,-1.74,-1.8068,0.0,0.0,0.0,0.0,0.0,0.0,0.0,0.0,0.0,0.0,0.0,0.0,0.0,0.0,0.0,0.0,0.0,0.0,0.0,0.0,0.0,0.0,-2.059,-2.1341,-2.2127,-2.3144,-2.4111,-2.5273,-2.5953,-2.6216,-2.5934,-2.6325,-2.6541,-2.6346,-2.6864,-2.7183,-2.7252,-2.7467,-2.7592,-2.7572,-2.7686,-2.7721,-2.7809,-2.7809,-2.7327,-2.6364,-2.4507,-2.3213,-2.2363,-2.057,-1.9812,-1.9987,-1.9479,-1.9383,-1.9542,-1.9034,-1.8827,0.0,0.0,0.0,0.0,0.0,-1.9495,-1.9638,-1.9447,-1.959,-1.9781,-1.9225,-1.9288,-1.9511,-1.9161,-1.9145,-1.9209,-1.8907,-1.8939,-1.897,-1.8605,-1.8414,-1.8383,-1.8684,-1.851,-1.843,-1.8955,-1.878,-1.86,-1.9052,-1.8491,0.0,-1.8579,-1.8031,-1.7856,-1.8724,-1.8692,-1.8805,-1.9058,-1.8911,-1.8625,-1.8294,-1.8258,-1.7916,-1.7011,-1.6531,0.0,0.0,0.0,-1.5373,-1.6207,-1.6251,0.0,0.0,0.0,-1.9044,-1.923,0.0,0.0,0.0,-1.9396,-1.9713,0.0,0.0,0.0,0.0,0.0,0.0,0.0,0.0,0.0,0.0,0.0,0.0,0.0,0.0,0.0,0.0,-2.2015,-2.3285,-2.5164,-2.5469,-2.5797,-2.6605,-2.7064,-2.7304,-2.7304,-2.7192,-2.7214,-2.7392,-2.767,-2.7839,-2.7839,0.0,0.0,0.0,0.0,-2.8301,-2.8092,-2.8092,-2.7785,-2.7175,-2.5526,-2.4425,-2.3781,-2.2045,-2.1204,-2.1071,-2.0426,-2.0055,-1.991,-1.9161,-1.8859,-1.8827,-1.8827,-1.8827,-1.8875,-1.9193,-1.9336,-1.9368,-1.932,0.0,0.0,-1.9495,-1.9622,-1.986,-1.9526,-1.9638,-1.9733,-1.9113,-1.9177,-1.9352,-1.8986,-1.8653,-1.8573,-1.9225,-1.8891,-1.8605,-1.9288,-1.9177,-1.9217,-2.0103,-1.9241,-1.8523,-1.9056,-1.8596,-1.8346,-1.8715,-1.7988,-1.7729,-1.857,-1.8683,-1.8665,-1.8457,0.0,0.0,-1.7004,-1.653,-1.6485,-1.6843,-1.6901,-1.7052,-1.7128,-1.8024,-1.851,-1.8359,-1.9373,-2.01,-2.0493,-2.0555,-2.0576,-2.0576,-2.0514,-2.0564,0.0,0.0,0.0,0.0,0.0,0.0,0.0,0.0,0.0,0.0,0.0,0.0,0.0,0.0,0.0,-2.3948,-2.4548,-2.5164,-2.6693,-2.7239,-2.7413,-2.7195,-2.7261,-2.7304,-2.7304,-2.7586,-2.7804,-2.7894,-2.8331,-2.8615,-2.8615,-2.8702,-2.8746,-2.8653,-2.8653,-2.8581,-2.8301,-2.8301,-2.7767,-2.6581,0.0,0.0,-2.4203,-2.3484,-2.2917,-2.2267,-2.1726,-2.11,-2.0426,-1.9621,-1.9098,-1.8827,-1.8827,-1.8827,-1.8843,-1.8907,-1.9113,-1.9336,-1.9034,-1.9526,-2.0194,-1.9574,-1.9797,-2.0226,-1.9876,-1.9812,0.0,-1.9701,-1.9717,-1.9685,-1.9352,-1.9209,-1.9193,-1.9336,-1.9272,-1.9272,-1.9685,-1.9717,-1.975,-1.9942,-1.9239,-1.87,-1.891,-1.9162,-1.9245,-1.8684,-1.9586,-1.9776,-1.8329,-1.8134,-1.8013,-1.7778,-1.7552,-1.7388,-1.739,-1.7047,-1.6589,-1.5988,-1.6522,-1.7128,-1.7859,-1.867,-1.9324,-1.9909,-2.0555,-2.0886,-2.099,-2.1362,-2.1528,-2.1528,-2.1155,-2.1063,0.0,0.0,0.0,0.0,0.0,0.0,0.0,0.0,0.0,0.0,0.0,-2.0464,-2.1191,0.0,-2.3244,-2.496,-2.559,-2.6321,-2.7501,-2.7894,-2.7938,-2.7697,-2.7894,-2.8025,-2.8025,-2.8244,-2.8396,-2.8396,-2.8615,-2.8746,-2.8746,-2.8746,-2.8746,-2.8746,-2.8746,-2.8877,-2.8929,-2.869,-2.8408,-2.7935,-2.6866,-2.6074,-2.5559,-2.4698,-2.3858,-2.3087,-2.2697,-2.2048,-2.1273,-2.0729,-1.9987,-1.9352,-1.9636,-1.9333,-1.8827,-1.8827,-1.8939,-1.9066,-1.8891,-1.9288,-1.9844,-1.9669,-1.9971,-2.0353,-2.0178,-2.0257,-2.0321,-1.9971,-1.9987,-2.0051,-1.9701,-1.9622,-1.9669,-1.9844,-1.9749,-1.9717,-2.0051,-1.9987,-1.986,-1.986,-1.9447,-1.9098,-1.9098,-1.9647,-1.9556,-1.8078,-1.8508,-1.8707,-1.8112,-1.8399,-1.8391,-1.782,-1.8021,-1.7908,-1.715,-1.7316,-1.7527,-1.751,-1.7821,-1.8457,-1.9298,-1.9676,-2.0053,-2.0426,-2.1343,-2.1797,-2.1797,-2.2273,-2.2501,-2.2501,-2.233,-2.2255,0.0,0.0,0.0,0.0,0.0,0.0,0.0,0.0,-1.9929,-2.0535,-2.13,-2.2194,-2.3098,-2.4022,-2.4982,-2.5864,-2.6472,-2.7195,-2.8069,-2.8265,-2.8287,-2.82,-2.8615,-2.8899,-2.8899,-2.8899,-2.8855,-2.8861,-2.8746,-2.8746,-2.8746,-2.8746,-2.879,-2.8899,-2.8899,-2.9139,-2.962,-2.9139,-2.9095,-2.9467,-2.7883,-2.7179,-2.7179,-2.6088,-2.5139,-2.4454,-2.3925,-2.316,-2.2407,-2.211,-2.1456,-2.0716,-2.0925,-2.0512,-1.9564,-1.9063,-1.8891,-1.8827,-1.8827,-1.9066,-1.9415,-1.9685,-2.0003,-2.0305,-2.0369,-2.0591,-2.0718,-2.021,-2.0273,-2.0432,-2.0146,-2.0067,-2.0146,-2.0432,-2.0273,-2.0146,-2.0432,-2.0273,-2.0067,-2.0067,-1.9685,-1.9399,-1.9463,-1.9685,-1.9418,-1.8116,-1.7572,-1.758,-1.8155,-1.869,-1.8753,-1.7955,-1.8434,-1.8238,-1.6812,-1.7367,-1.8078,-1.878,-1.878,-1.9195,-1.9982,-2.0293,-2.0508,-2.0664,-2.1985,-2.2625,-2.2625,-2.2998,-2.3184,-2.3184,-2.3426,-2.3456,-1.878,-1.8405,-1.8116,-1.897,-1.8635,-1.8509,0.0,0.0,-2.104,-2.2246,-2.268,-2.3621,-2.6089,-2.5753,-2.6013,-2.8642,-2.8344,-2.8069,-2.8593,-2.9052,-2.9161,-2.8724,-2.9095,-2.9401,-2.9401,-2.9401,-2.9226,-2.879,-2.8746,-2.8746,-2.8746,-2.8746,-2.8943,-2.9401,-2.9401,-2.9642,-3.0122,-2.9642,-2.9423,-2.9467,-2.8892,-2.856,-2.856,-2.8445,-2.7882,-2.7105,-2.5895,-2.4871,-2.4012,-2.3974,-2.3749,-2.3336,-2.2604,-2.2482,-2.2433,-2.0178,-1.9113,-1.8827,-1.8827,-1.9066,-1.9383,-1.9415,-1.9654,-1.9987,-2.0289,-2.0416,-2.0496,-2.0734,-2.0829,-2.0861,-2.0813,-2.0798,-2.0813,-2.0845,-2.0829,-2.0813,-2.0861,-2.0829,-2.0798,-2.0798,-2.0035,-1.9463,-1.9749,-1.9095,-1.8864,-1.9855,-1.9945,-1.9672,-1.9178,-1.841,-1.7798,-1.7407,-1.7169,-1.6894,-1.673,-1.6812,-1.6894,-1.6976,-1.6976,-1.7367,-1.8238,-1.9443,-2.0372,-2.1113,-2.2452,-2.3101,-2.3101,-2.3163,-2.3184,-2.3184,-2.3587,-2.3705,-1.9183,-1.9811,0.0,0.0,-2.0712,-2.2077,-2.2411,-2.356,-2.4752,-2.5135,-2.6024,-2.6925,-2.7449,-2.7644,-2.7869,0.0,-2.8782,-2.8943,-2.9161,-2.9358,-2.9401,-2.9205,-2.9117,-2.9052,-2.9052,-2.9052,-2.8964,-2.8768,-2.8746,-2.8746,-2.8746,-2.903,-2.927,-2.9467,-2.9751,-3.0144,-3.0603,-3.0144,-3.0035,-3.0297,-2.9532,-2.9183,-2.9161,-2.8877,-2.8373,-2.7579,-2.6628,-2.574,-2.5198,-2.5741,-2.5548,-2.483,-2.4585,-2.4542,-2.4356,-2.1621,-2.0322,-1.9968,-1.9678,-1.9378,-1.9098,-1.9304,-1.959,-1.9924,-2.0289,-2.0543,-2.0734,-2.0877,-2.0925,-2.0925,-2.0925,-2.0925,-2.0925,-2.0925,-2.0925,-2.0925,-2.0925,-2.0925,-2.0861,-2.0655,-2.0257,-1.994,-1.9876,-1.9495,-1.9552,-2.0415,-1.977,-1.8945,-1.8436,-1.8275,-1.8161,-1.8012,-1.7641,-1.7423,-1.7697,-1.7763,-1.8074,-1.8895,-1.9173,-1.9703,-2.0582,-2.1409,-2.2049,-2.2312,-2.3186,-2.3598,-2.3598,-2.3846,-2.3971,-2.3971,-2.4388,-2.4615,-1.997,0.0,0.0,-2.0922,-2.2838,-2.4962,-2.459,-2.5997,-2.7507,-2.7924,-2.8621,-2.9157,-2.9248,-2.9238,-2.932,-2.9418,-2.9479,-2.9584,-2.9847,-2.9657,-2.9379,-2.9117,-2.8768,-2.8506,-2.8375,-2.8593,-2.8746,-2.8746,-2.8877,-2.8943,-2.8943,-2.9423,-2.9751,-2.986,-3.0209,-3.0624,-3.1083,-3.0515,-3.0384,-3.069,-2.9751,-2.9292,-2.927,-2.8921,-2.8466,-2.7882,-2.741,-2.6914,-2.6648,-2.738,-2.7293,-2.6705,-2.6404,-2.6423,-2.6328,-2.3962,-2.2408,-2.1473,-2.1088,-2.0281,-1.945,-1.98,-1.9841,-1.9846,-2.0311,-2.0532,-2.0655,-2.075,-2.0845,-2.0877,-2.0686,-2.0782,-2.0893,-2.0798,-2.0845,-2.0925,-2.0925,-2.0925,-2.0845,-2.0591,-2.0384,-2.0162,-1.9908,-1.9701,-1.9765,-2.0162,-1.9222,-1.8441,-1.8523,-1.8523,-1.8581,-1.8464,-1.8099,-1.7927,-1.8246,-1.8213,-1.8659,-1.9703,-2.0042,-2.0618,-2.1528,-2.2289,-2.2776,-2.3023,-2.3742,-2.4053,-2.4053,-2.4385,-2.455,-2.4529,-2.4956,-2.5275,-2.1378,0.0,-2.2555,-2.3401,-2.4546,-2.58,-2.6698,-2.7276,-2.8208,-3.0099,-2.9346,-2.9242,-3.2042,-3.0431,-2.9519,-3.2364,-3.0949,-2.9847,-3.0835,-3.0108,-2.9139,-2.82,-2.8069,-2.7872,0.0,-2.82,-2.8746,-2.8746,-2.9183,-2.9467,-2.9467,-2.9925,-3.0384,-3.0843,-3.0865,-3.1105,-3.1586,-3.0668,-3.0209,-3.0209,-2.9248,-2.8768,-2.8768,-2.8861,-2.8746,-2.8746,-2.8746,-2.8746,-2.8746,-2.8768,-2.8958,-2.9232,-2.8,-2.807,-2.8682,-2.7418,-2.543,-2.3249,-2.3091,-2.208,-2.0847,-2.1121,-2.0473,-1.9711,-2.0342,-2.0281,-1.9971,-2.0305,-2.0655,-2.0766,-2.0083,-2.04,-2.0829,-2.0496,-2.067,-2.0925,-2.0925,-2.0925,-2.0925,-2.0909,-2.0353,-1.9876,-1.986,-1.9304,-1.8859,-1.8843,-1.8827,-1.9163,-2.0133,-1.9405,-1.8653,-1.8303,-1.7969,-1.7763,-1.785,-1.7547,-1.7499,-1.7889,-1.7921,-1.8354,-1.9281,-2.0594,-2.1674,-2.2611,-2.3835,-2.4529,-2.4529,-2.4444,-2.455,-2.4529,-2.4956,-2.5445,-2.3754,-2.4796,-2.5781,-2.5934,-2.7566,-2.9071,-2.8849,-2.9932,-3.0982,-3.0881,-3.0471,-3.0215,-3.0597,-2.9861,-2.9642,-3.0796,-3.1223,-3.1298,-3.0928,-3.124,-3.0583,-2.8313,-2.8047,0.0,0.0,0.0,0.0,-2.8724,-2.9205,-2.962,-2.9947,-3.0406,-3.0734,-3.0887,-3.1214,-3.1302,-3.1149,-3.0821,-3.0515,-3.0209,-2.9554,-2.9074,-2.8746,-2.8746,-2.8746,-2.8746,-2.8746,-2.8746,-2.8811,-2.9445,-2.9816,-2.9916,-2.9579,-2.9939,-3.0557,-2.9283,-2.8307,-2.7341,-2.5006,-2.35,-2.2411,-2.1397,-2.0916,-2.0745,-2.0762,-2.1172,-2.1578,-2.1309,-2.1973,-2.2545,-2.1755,-2.1702,-2.1783,-2.1322,-2.1033,-2.0861,-2.0623,-2.0575,-2.0432,-1.9987,-1.9876,-1.9797,-1.9574,-1.9717,-1.9781,-1.9558,-1.9129,-1.892,-1.9271,-1.9012,-1.878,-1.8669,-1.8856,-1.9242,-1.9852,-2.0081,-2.0569,-2.132,-2.1062,-2.1296,-2.2266,-2.2399,-2.2891,-2.3856,-2.4447,-2.4786,-2.4786,-2.4871,-2.5104,-2.5419,-2.5765,-2.6195,-2.5683,-2.7065,-2.8179,-2.8391,-2.9984,-3.1369,-3.0599,-3.1293,-3.181,-3.0869,-3.0189,-2.9731,-2.9527,-2.8875,-2.8849,-3.0381,-3.0846,-3.1264,-3.1912,-3.1924,-3.1136,-2.9036,-2.8678,-2.8276,0.0,0.0,0.0,-2.8986,-2.962,-3.0122,-3.0428,-3.0908,-3.1149,-3.1149,-3.1455,-3.1476,-3.1149,-3.0974,-3.0668,-3.0209,-2.9532,-2.9161,-2.9008,-2.8833,-2.8746,-2.8746,-2.8746,-2.8746,-2.8811,-2.962,-3.0057,-3.0177,-3.0285,-3.0708,-3.1222,-3.0413,-3.0184,-2.9791,-2.7276,-2.5703,-2.4562,-2.3448,-2.3091,-2.2967,-2.2474,-2.2699,-2.3077,-2.2552,-2.298,-2.334,-2.2434,-2.2281,-2.2281,-2.1912,-2.1626,-2.1456,-2.1227,-2.1178,-2.0899,-2.0232,-2.0103,-2.0055,-1.9526,-1.9814,-2.0087,-1.999,-1.9854,-1.9559,-1.9111,-1.9281,-1.9543,-1.9543,-2.003,-2.0589,-2.1204,-2.1523,-2.1942,-2.2705,-2.2519,-2.2847,-2.3842,-2.3574,-2.38,-2.47,-2.4956,-2.5105,-2.5274,-2.5359,-2.57,-2.6168,-2.6431,-2.6778,-2.7293,-2.8511,-2.9678,-3.0571,-3.1782,-3.2542,-3.1967,-3.1339,-3.0738,-3.0215,-2.8647,-2.7758,0.0,0.0,-2.7364,-3.1135,-3.0318,-3.0337,-3.3458,-3.2215,-3.0818,0.0,0.0,0.0,0.0,0.0,0.0,-2.9598,0.0,-3.093,-3.093,-3.1389,-3.1651,-3.1629,-3.1629,-3.1607,-3.1586,-3.1105,-3.0646,-3.0209,-2.9248,-2.903,-2.9467,-2.8986,-2.8746,-2.8746,-2.8746,-2.8768,-2.8833,-2.9314,-2.9816,-3.0253,-3.0275,-3.0559,-3.093,-3.093,-3.093,-3.0799,-2.9882,-2.8667,-2.7411,-2.7077,-2.6607,-2.5915,-2.5251,-2.4827,-2.4528,-2.4045,-2.3657,-2.3186,-2.2542,-2.2529,-2.2619,-2.224,-2.2412,-2.2586,-2.2569,-2.2552,-2.2248,-2.1478,-2.1031,-2.049,-1.967,-1.9674,-1.982,-2.0168,-2.095,-2.1043,-1.9668,-2.0295,-2.0916,-2.0933,-2.1482,-2.1784,-2.1802,-2.1658,-2.1689,-2.2013,-2.2277,-2.2804,-2.38,-2.38,-2.4251,-2.5232,-2.5232,-2.5466,-2.5934,-2.5934,-2.6277,-2.6768,-2.6926,-2.7342,-2.9158,-3.0589,-3.1914,-3.2123,-3.241,-3.2542,-3.1967,-3.0738,-2.9666,-2.9536,-2.7485,-2.6143,0.0,0.0,0.0,-3.0335,-3.1992,0.0,-3.3809,-3.447,0.0,-3.2232,0.0,-3.0996,-3.0307,-3.0119,0.0,0.0,-3.1302,-3.1433,-3.1433,-3.1913,-3.2022,-3.1629,-3.1629,-3.1455,-3.1083,-3.0624,-3.0319,-3.0209,-2.9598,-2.9358,-2.9467,-2.8986,-2.8746,-2.8746,-2.8746,-2.8964,-2.9336,-2.9838,-3.0297,-3.0756,-3.1127,-3.1345,-3.1433,-3.1433,-3.1433,-3.1345,-3.0756,-2.992,-2.8911,-2.7277,-2.679,-2.6798,-2.6013,-2.6346,-2.68,-2.5952,-2.6589,-2.7331,-2.5971,-2.5554,-2.5362,-2.4941,-2.4118,-2.3306,-2.3117,-2.3049,-2.2843,-2.2449,-2.1991,-2.1701,-2.1404,-2.164,-2.1696,-2.1156,-2.1555,-2.1468,-2.0471,-2.1156,-2.163,-2.1346,-2.1496,-2.1823,-2.2135,-2.2214,-2.2418,-2.2843,-2.2668,-2.3086,-2.4059,-2.3887,-2.4395,-2.5721,-2.5915,-2.6238,-2.6689,-2.6866,-2.7214,-2.7692,-2.767,-2.8021,-3.1209,-3.2359,-3.3143,-3.3378,-3.3247,-3.2803,-3.1782,-3.021,-2.8759,-2.7802,-2.5942,0.0,-2.5686,-2.6285,0.0,0.0,0.0,0.0,-3.3956,-3.4919,-3.5147,0.0,-3.378,0.0,-3.3078,-3.2134,-3.1828,0.0,-3.2046,-3.1717,-3.1957,-3.2022,-3.1913,-3.1629,-3.1629,-3.1498,-3.1214,-3.0756,-3.0624,-3.0821,-3.0144,-2.9904,-3.0078,-2.962,-2.927,-2.9095,0.0,-2.9423,-2.9532,-3.0231,-3.0668,-3.0952,-3.1433,-3.1629,-3.1629,-3.1629,-3.1629,-3.1586,-3.1302,-3.0911,-3.029,-2.8705,-2.867,-2.9027,-2.8103,-2.8375,-2.8799,-2.8006,-2.8329,-2.8689,-2.7776,-2.7148,-2.6666,-2.6415,-2.5616,-2.4923,-2.4683,-2.4345,-2.3835,-2.2944,-2.2558,-2.239,-2.2565,-2.2767,-2.2793,-2.2339,-2.2371,-2.2097,-2.1131,-2.1714,-2.2214,-2.2284,-2.2465,-2.2862,-2.3447,-2.3287,-2.333,-2.3761,-2.4118,-2.4472,-2.5021,-2.5263,-2.5738,-2.6474,-2.6671,-2.6997,-2.7453,-2.7542,-2.7872,-2.8353,-2.8353,-2.8506,-3.3171,-3.3692,-3.3904,-3.4267,-3.3875,-3.2987,-3.1461,-2.9566,-2.7683,-2.5887,0.0,-2.3763,-2.4429,-2.5057,-2.6188,-2.829,0.0,-3.1339,-3.4136,-3.458,-3.5159,-3.6481,-3.5999,-3.5581,-3.5844,-3.4351,-3.3608,-3.424,-3.2712,-3.1907,-3.2263,-3.1935,-3.1695,-3.1629,-3.1629,-3.1629,-3.1629,-3.1214,-3.1214,-3.1607,-3.0734,-3.0515,-3.0887,-3.0428,-2.9991,-2.9598,-3.0035,0.0,-2.9729,-3.0559,-3.093,-3.104,-3.1455,-3.1629,-3.1629,-3.1629,-3.1629,-3.1607,-3.1542,-3.1564,-3.1476,-3.0581,-3.0908,-3.1455,-3.0581,-3.0428,-3.0493,-3.0028,-2.9413,-2.8921,-2.886,-2.8167,-2.7519,-2.758,-2.7097,-2.6657,-2.6778,-2.631,-2.5388,-2.3815,-2.3395,-2.3389,-2.3786,-2.3937,-2.3994,-2.3805,-2.3689,-2.335,-2.2389,-2.2502,-2.2852,-2.3463,-2.3798,-2.4251,-2.4977,-2.4512,-2.4286,-2.4663,-2.555,-2.6046,-2.6046,-2.6778,-2.7173,-2.7304,-2.7304,-2.7545,-2.8047,-2.8112,-2.8309,-2.8659,-2.8724,-2.8746,-3.3852,-3.4432,-3.4541,-3.4454,-3.3273,-3.181,-3.0777,-2.8106,0.0,0.0,-2.4543,-2.342,-2.452,-2.5962,-2.7424,-2.8651,-3.0454,-3.2541,-3.4789,-3.5521,-3.6243,0.0,-3.6726,-3.6138,-3.6243,-3.5211,0.0,0.0,-3.38,-3.2544,-3.176,-3.2066,-3.2066,-3.1629,-3.1629,-3.1629,-3.1629,-3.1542,-3.1542,-3.1607,-3.104,-3.0821,-3.0887,-3.0428,-3.0166,-3.01,-3.0166,0.0,-3.0668,-3.0821,-3.1127,-3.1498,-3.1586,-3.1629,-3.1629,-3.1629,-3.1629,-3.1564,-3.1171,-3.128,-3.152,-3.0952,-3.1149,-3.152,-3.0952,-3.107,-3.1316,-3.0838,-3.0889,-3.0982,-3.0594,-2.9876,-2.9349,-2.9724,-2.8655,-2.7643,-2.8468,-2.8525,-2.8281,-2.7657,-2.7201,-2.6704,-2.6102,-2.6803,-2.7049,-2.5701,-2.66,-2.7092,-2.5964,-2.4618,-2.3738,-2.3438,-2.4251,-2.4886,-2.5025,-2.4676,-2.4415,-2.4496,-2.4943,-2.5102,-2.5102,-2.5786,-2.6518,-2.7304,-2.7304,-2.7545,-2.8047,-2.844,-2.8462,-2.8178,-2.8571,-2.8746,-3.4278,-3.4673,-3.4756,-3.4481,-3.2881,-3.1075,-2.9918,0.0,0.0,0.0,-2.4067,-2.3393,-2.4284,-2.5786,0.0,-2.7893,-2.9019,-3.0856,-3.3535,-3.4162,0.0,-3.7612,-3.7413,-3.7339,0.0,-3.6563,-3.5768,-3.6309,-3.4868,-3.3714,-3.2881,-3.2288,-3.187,-3.1629,-3.1629,-3.1629,-3.1629,-3.1629,-3.1629,-3.1629,-3.1389,-3.128,-3.1258,-3.104,-3.0799,-3.0581,-3.0843,0.0,-3.0908,-3.1171,-3.1411,-3.1629,-3.1629,-3.1629,-3.1629,-3.1629,-3.1629,-3.1586,-3.1367,-3.1433,-3.1586,-3.1345,-3.1433,-3.1586,-3.1345,-3.1433,-3.1586,-3.1345,-3.1455,-3.1564,-3.1323,-3.0781,-3.0349,-3.0584,-2.9791,-2.9011,-2.9044,-2.9147,-2.8881,-2.835,-2.8329,-2.8387,-2.7985,-2.8301,-2.8473,-2.7681,-2.7754,-2.7626,-2.711,-2.6431,-2.5614,-2.4822,-2.5257,-2.5462,-2.5057,-2.4927,-2.4626,-2.4264,-2.4694,-2.5036,-2.5036,-2.5738,-2.6476,-2.7304,-2.7566,-2.7807,-2.8047,-2.8528,-2.8637,-2.8418,-2.8637,-2.8746,-3.4468,-3.4839,-3.4812,-3.4406,-3.2568,-3.0493,-2.9103,-2.6481,0.0,-2.4312,-2.3689,-2.3392,-2.4177,0.0,-2.6532,0.0,-2.7656,-2.9135,-3.2123,-3.2909,-3.4245,0.0,-3.7743,0.0,-3.9155,-3.7621,0.0,-3.7318,-3.5985,-3.4748,-3.3775,-3.2418,-3.1629,-3.1629,-3.1629,-3.1629,-3.1629,-3.1629,-3.1629,-3.1629,-3.1629,-3.1629,-3.1629,-3.1629,-3.1411,-3.1083,-3.1455,0.0,0.0,-3.1455,-3.1629,-3.1629,-3.1738,-3.1717,-3.1629,-3.1738,-3.1717,-3.1629,-3.1629,-3.1629,-3.1629,-3.1629,-3.1629,-3.1629,-3.1629,-3.1629,-3.1629,-3.1629,-3.1629,-3.1629,-3.1629,-3.1258,-3.0865,-3.0777,-3.0624,-3.0296,-2.9572,-2.9536,-2.94,-2.8796,-2.9115,-2.9494,-2.94,-2.9437,-2.9494,-2.94,-2.8582,-2.8074,-2.8074,-2.8187,-2.7799,-2.6671,-2.6589,-2.6352,-2.5911,-2.5767,-2.5432,-2.4901,-2.5351,-2.5562,-2.5562,-2.6214,-2.6815,-2.7457,-2.785,-2.8047,-2.8047,-2.8528,-2.8702,-2.8615,-2.8702,-2.8811,-3.466,-3.5059,-3.4952,-3.4339,-3.2273,-3.0006,-2.8692,0.0,-2.4119,-2.4772,-2.4015,-2.3527,-2.472,0.0,0.0,0.0,0.0,-2.9774,-3.1879,-3.3515,-3.4931,-3.6123,0.0,0.0,-3.8057,-3.786,-3.7834,-3.7886,-3.6854,-3.5259,-3.3369,-3.224,-3.1629,-3.1629,-3.1629,-3.1629,-3.1629,-3.1629,-3.1629,-3.1629,-3.1629,-3.1629,-3.1629,-3.1629,-3.1607,-3.1564,-3.1607,-3.1607,0.0,-3.1607,-3.1629,-3.1673,-3.2132,-3.2022,-3.1673,-3.2154,-3.2022,-3.1629,-3.1629,-3.1629,-3.1629,-3.1629,-3.1629,-3.1629,-3.1629,-3.1629,-3.1629,-3.1629,-3.1629,-3.1629,-3.1629,-3.1258,-3.0799,-3.0384,-3.0908,-3.1367,-3.083,-3.107,-3.1396,-3.1294,-3.0925,-3.0673,-3.0284,-3.052,-3.0572,-3.0305,-3.0477,-3.0556,-3.0556,-3.0264,-2.9633,-2.8603,-2.8495,-2.8473,-2.843,-2.8039,-2.7688,-2.7597,-2.7277,-2.7127,-2.7127,-2.7127,-2.7434,-2.796,-2.8025,-2.8047,-2.8047,-2.8528,-2.8528,-2.8112,-2.8549,-2.8986,-3.3668,-3.4446,-3.4661,-3.426,-3.208,-2.9714,-2.8597,0.0,-2.3635,-2.4745,-2.4069,-2.3554,-2.4801,-2.5208,-2.5693,0.0,-2.6701,0.0,-3.0281,-3.1315,-3.2643,-3.4958,-3.6297,0.0,0.0,0.0,-3.79,-3.79,-3.7534,-3.687,-3.5649,-3.4256,-3.3201,-3.26,-3.2521,-3.2374,-3.2066,-3.1782,-3.1782,-3.2088,-3.176,-3.1782,-3.2066,-3.176,-3.1782,-3.2088,-3.2088,-3.1913,0.0,-3.1957,-3.2088,-3.211,-3.2306,-3.2263,-3.211,-3.2306,-3.2066,-3.1629,-3.1629,-3.1629,-3.1629,-3.1629,-3.1629,-3.1629,-3.1629,-3.1629,-3.1629,-3.1629,-3.1629,-3.1629,-3.1629,-3.1476,-3.128,-3.1105,-3.1345,-3.1564,-3.1367,-3.1717,-3.2088,-3.2088,-3.1935,-3.1745,-3.1629,-3.1468,-3.1287,-3.1176,-3.1251,-3.1236,-3.093,-3.0734,-3.0362,-2.9707,-2.9379,-2.8833,-2.796,-2.7981,-2.7735,-2.7072,-2.6768,-2.6683,-2.6683,-2.6683,-2.6947,-2.761,-2.7894,-2.8047,-2.8047,-2.8528,-2.8811,-2.8921,-2.9095,-2.9445,-3.2179,-3.3423,-3.4097,-3.367,-3.1636,-2.9266,0.0,0.0,-2.3366,-2.4475,-2.3933,-2.3554,-2.4801,-2.5154,-2.5476,-2.6196,-2.6088,-2.6781,-2.9266,-3.0228,-3.1596,0.0,0.0,-3.6358,0.0,-3.7691,-3.7978,-3.8135,-3.8178,-3.8049,-3.7642,-3.6568,-3.5284,-3.3907,-3.3767,-3.3554,-3.3366,-3.2463,-3.245,-3.3093,-3.2295,-3.211,-3.2569,-3.2066,-3.211,-3.2569,-3.2285,-3.2044,0.0,-3.2241,-3.2394,-3.2394,-3.2525,-3.259,-3.2569,-3.2437,-3.2154,-3.1826,-3.1673,-3.1629,-3.1629,-3.1629,-3.1629,-3.1629,-3.1629,-3.1629,-3.1629,-3.1629,-3.1629,-3.1651,-3.1804,-3.1848,-3.1891,-3.2022,-3.2044,-3.2044,-3.2044,-3.2328,-3.2547,-3.2416,-3.2503,-3.2547,-3.2394,-3.2197,-3.2044,-3.2044,-3.1804,-3.1498,-3.1149,-3.0865,-3.0559,-3.0253,-2.9904,-2.9226,-2.8047,-2.8134,-2.7909,-2.711,-2.6998,-2.6998,-2.6998,-2.6998,-2.7269,-2.7741,-2.8069,-2.8265,-2.8265,-2.8746,-2.9139,-2.9489,-2.962,-2.9947,-3.0256,-3.2009,-3.3369,-3.2434,-3.0686,-2.8771,0.0,0.0,-2.3365,-2.4015,-2.3608,-2.3554,-2.4801,-2.548,-2.5887,-2.5887,-2.7406,-2.8698,-2.9147,-3.1173,-3.2814,0.0,0.0,-3.5398,-3.6305,-3.731,-3.8135,-3.8658,-3.871,0.0,-3.871,-3.871,-3.7712,-3.562,-3.504,-3.5016,-3.5521,-3.393,-3.3706,-3.4797,-3.3198,-3.2612,-3.3049,-3.259,-3.2634,-3.3005,-3.2044,-3.1913,0.0,-3.2394,-3.2394,-3.2437,-3.2874,-3.3049,-3.3005,-3.2547,-3.2394,-3.2306,-3.1804,-3.1629,-3.1629,-3.1629,-3.1629,-3.1629,-3.1629,-3.1629,-3.1629,-3.1629,-3.1629,-3.1738,-3.2241,-3.2372,-3.2503,-3.294,-3.3049,-3.3049,-3.3049,-3.3049,-3.2918,-3.2481,-3.2743,-3.2918,-3.2459,-3.2743,-3.3049,-3.3049,-3.2241,-3.1629,-3.1607,-3.0799,-3.0209,-3.0209,-3.0209,-2.9991,-2.951,-2.903,-2.8746,-2.8746,-2.8746,-2.8746,-2.8746,-2.8746,-2.8746,-2.8746,-2.8746,-2.8746,-2.8746,-2.9226,-2.9489,-2.9489,-2.9991,-3.045,-2.7461,-2.8752,-2.9537,-2.9224,-2.7994,-2.6722,-2.5805,0.0,-2.2278,-2.3256,-2.2986,-2.2956,-2.4177,-2.4883,-2.5697,-2.6945,-2.7623,-2.8492,-2.9835,-3.1405,0.0,-3.399,-3.5934,-3.751,0.0,0.0,-3.8684,-3.9285,-3.9337,-3.9337,-3.9337,-3.8919,-3.8118,-3.6723,-3.6106,-3.5868,-3.605,-3.4466,-3.405,-3.4693,-3.3426,-3.2918,-3.3049,-3.259,-3.2459,-3.259,-3.2285,-3.2044,0.0,-3.2569,-3.2853,-3.2896,-3.3377,-3.3573,-3.3508,-3.3027,-3.2656,-3.2372,-3.2197,-3.1913,-3.1673,-3.2022,-3.1913,-3.1695,-3.2044,-3.1891,-3.1695,-3.2044,-3.2372,-3.2656,-3.2809,-3.2853,-3.2896,-3.3027,-3.3071,-3.3071,-3.3071,-3.3071,-3.3115,-3.3311,-3.3202,-3.3115,-3.3311,-3.318,-3.3071,-3.3071,-3.2809,-3.2503,-3.2175,-3.1891,-3.1564,-3.1214,-3.1171,-3.0712,-2.9576,-2.9336,-2.9117,-2.8768,-2.8746,-2.8899,-2.9248,-2.9248,-2.9401,-2.9751,-2.9751,-2.9751,-2.9751,-2.9904,-3.0144,-3.045,-3.0952,-3.1258,0.0,-2.6402,-2.7271,-2.6809,-2.5941,-2.4937,0.0,0.0,0.0,-2.2309,-2.2414,-2.2685,-2.3906,-2.4801,-2.5643,-2.6538,-2.7271,-2.8166,-2.9523,-3.0961,0.0,-3.4362,0.0,0.0,0.0,-3.8622,-3.9066,-3.9573,-3.9599,-3.9599,-3.9599,-3.9024,-3.8402,-3.7833,-3.7202,-3.7045,-3.722,-3.5813,-3.5503,-3.6216,-3.4676,-3.4066,-3.4222,-3.3153,-3.2743,-3.2896,-3.2547,0.0,0.0,-3.2809,-3.318,-3.3355,-3.3464,-3.3639,-3.3726,-3.3246,-3.2787,-3.2394,-3.2394,-3.2044,-3.1673,-3.2001,-3.2001,-3.2001,-3.2503,-3.2416,-3.2197,-3.235,-3.2721,-3.3115,-3.3289,-3.3333,-3.3399,-3.3573,-3.3617,-3.3617,-3.3617,-3.3617,-3.3639,-3.377,-3.3704,-3.3661,-3.377,-3.3704,-3.3617,-3.3617,-3.3464,-3.3246,-3.2962,-3.2765,-3.2525,-3.2197,-3.2175,-3.1738,-3.0668,-3.0406,-3.0166,-2.986,-2.9838,-2.9969,-3.0275,-3.0122,-3.0166,-3.0472,-3.0297,-3.0209,-3.0209,-3.0384,-3.0712,-3.1171,-3.1476,-3.1629,0.0,-2.4639,-2.6104,-2.5018,-2.434,-2.3472,-2.1762,0.0,0.0,0.0,0.0,0.0,-2.3879,-2.5046,-2.5724,-2.5371,-2.6701,-2.8003,-2.8682,-3.0418,0.0,0.0,-3.6302,0.0,-3.7004,-3.8315,-3.928,-3.9625,-3.9599,-3.9547,-3.9547,-3.8972,-3.8658,-3.8658,-3.8161,-3.8161,-3.871,-3.7763,-3.7713,-3.8718,-3.6588,-3.5833,-3.6031,-3.4088,-3.3375,0.0,0.0,0.0,0.0,-3.3049,-3.3355,-3.3748,-3.3289,-3.3399,-3.3726,-3.3246,-3.2787,-3.2394,-3.2416,-3.2088,-3.1629,-3.1629,-3.1979,-3.2459,-3.2896,-3.3071,-3.3027,-3.259,-3.2809,-3.3268,-3.3726,-3.3857,-3.3967,-3.4425,-3.4534,-3.4534,-3.4534,-3.4491,-3.4338,-3.3923,-3.4207,-3.4382,-3.3967,-3.4294,-3.4622,-3.4622,-3.425,-3.3945,-3.3901,-3.3508,-3.3202,-3.318,-3.318,-3.3005,-3.2569,-3.2001,-3.1673,-3.1629,-3.1629,-3.1629,-3.1673,-3.1236,-3.1018,-3.1061,-3.0624,-3.0406,-3.0362,-3.0799,-3.1258,-3.1717,-3.1695,-3.1695,-2.0834,0.0,-2.2011,-2.2224,-2.2169,-2.1817,0.0,0.0,0.0,0.0,0.0,0.0,0.0,-2.472,-2.5914,-2.8085,-2.841,-2.8926,-3.0446,-3.2969,0.0,-3.6062,-3.7601,-3.8604,-3.8815,-3.9123,-3.9627,-4.0148,-3.9796,-3.9295,-3.8919,-3.8556,-3.8241,-3.8083,-3.7978,-3.8161,-3.871,-3.8049,-3.7889,-3.8066,-3.7146,-3.6391,-3.5611,-3.4289,-3.3302,-3.2678,0.0,0.0,-3.2569,-3.2918,-3.3355,-3.3792,-3.3661,-3.3704,-3.3726,-3.3246,-3.2787,-3.2437,-3.2787,-3.235,-3.1629,-3.1629,-3.1979,-3.2394,-3.2503,-3.3049,-3.3595,-3.3486,-3.3814,-3.4207,-3.4316,-3.436,-3.4382,-3.4491,-3.4534,-3.4534,-3.4534,-3.4229,-3.4032,-3.4316,-3.4447,-3.46,-3.484,-3.5299,-3.5627,-3.5627,-3.5539,-3.5321,-3.4928,-3.4775,-3.4578,-3.4229,-3.4185,-3.4141,-3.4032,-3.2896,-3.2044,-3.1651,-3.1629,-3.1804,-3.2197,-3.2088,-3.2197,-3.2547,-3.2437,-3.2219,-3.187,-3.1979,-3.2285,-3.2721,-3.2372,-3.2603,-2.0378,-2.0809,-2.1293,-2.173,-2.1627,-2.1328,-2.0982,0.0,0.0,0.0,0.0,0.0,0.0,0.0,-2.5805,-2.8275,-2.8383,-2.9007,0.0,0.0,-3.5628,-3.6497,-3.8093,-3.9267,0.0,-3.9906,-4.0121,-4.0184,-3.9773,-3.927,-3.871,-3.853,-3.8239,-3.79,-3.7965,-3.8123,-3.8344,-3.8299,-3.8421,-3.8677,-3.8115,-3.7545,-3.7004,-3.5577,-3.4574,0.0,0.0,0.0,-3.4142,-3.4245,-3.4527,-3.4843,-3.4098,-3.3792,-3.3792,-3.3748,-3.3158,-3.2459,-3.2918,-3.2437,-3.1695,-3.2132,-3.2328,-3.2459,-3.2896,-3.3399,-3.3748,-3.353,-3.3967,-3.4469,-3.425,-3.436,-3.4534,-3.4534,-3.4687,-3.484,-3.484,-3.4818,-3.4862,-3.5146,-3.519,-3.5255,-3.5517,-3.578,-3.5976,-3.5976,-3.5976,-3.5867,-3.5583,-3.5561,-3.5452,-3.5212,-3.519,-3.5303,-3.5622,-3.4692,-3.3788,-3.2984,-3.2962,-3.3071,-3.3355,-3.3158,-3.294,-3.2765,-3.2743,-3.2608,-3.2436,-3.2657,-3.3005,-3.3458,-3.3541,-3.378,-2.0707,-2.1497,-2.2113,-2.2232,-2.1975,-2.1681,-2.1572,0.0,0.0,0.0,0.0,0.0,0.0,0.0,0.0,-2.7705,-2.822,0.0,-3.2318,-3.4082,-3.5547,-3.6741,-3.8396,0.0,-3.9769,-4.0441,-4.0576,-3.9944,-3.9708,-3.9415,-3.8673,-3.8686,-3.8421,-3.7992,-3.8122,-3.8122,-3.7992,-3.8449,-3.8972,-3.9468,-3.9035,-3.8767,-3.8642,-3.6969,-3.603,-3.5665,0.0,0.0,-3.6357,-3.5527,-3.5634,-3.6077,-3.4316,-3.3726,-3.3857,-3.425,-3.3595,-3.2547,-3.294,-3.2525,-3.1979,-3.2721,-3.27,-3.2547,-3.342,-3.3683,-3.3617,-3.3268,-3.3835,-3.4425,-3.401,-3.4272,-3.4622,-3.4622,-3.4971,-3.5321,-3.5321,-3.572,-3.5983,-3.6187,-3.607,-3.6092,-3.618,-3.6246,-3.6173,-3.6173,-3.629,-3.6268,-3.6202,-3.6296,-3.6391,-3.6302,-3.6302,-3.6534,-3.6971,-3.6589,-3.5938,-3.5089,-3.4823,-3.4736,-3.4736,-3.434,-3.381,-3.2928,-3.2972,-3.2982,-3.2858,-3.3366,-3.3844,-3.4349,-3.4693,-3.5004,-2.2013,-2.2424,-2.2449,-2.2113,-2.2501,-2.2769,0.0,0.0,0.0,0.0,0.0,0.0,0.0,0.0,-2.7705,0.0,0.0,-3.2345,0.0,0.0,-3.6768,-3.7989,0.0,-3.9988,-3.9822,-4.1004,-4.1153,-3.9641,-4.0333,-4.0172,-3.8698,-3.8809,-3.8756,-3.8512,-3.8304,-3.8213,-3.8122,-3.8516,-3.8762,-3.8841,-3.873,-3.8441,-3.7966,-3.6843,-3.6235,-3.6146,0.0,-3.5785,-3.6964,-3.4923,-3.5014,-3.6031,-3.394,-3.342,-3.3814,-3.3879,-3.3508,-3.2962,-3.3049,-3.2962,-3.2809,-3.2569,-3.2437,-3.2481,-3.3005,-3.318,-3.3246,-3.3595,-3.4076,-3.4513,-3.4425,-3.4753,-3.5102,-3.5102,-3.5474,-3.5845,-3.5845,-3.6042,-3.625,-3.6652,-3.6742,-3.676,-3.73,-3.7251,-3.7156,-3.7156,-3.7635,-3.7859,-3.7434,-3.7834,-3.8022,-3.7565,-3.752,-3.752,-3.7633,-3.7565,-3.7473,-3.7291,-3.6516,-3.6059,-3.6059,-3.5968,-3.5648,-3.5055,-3.5489,-3.5443,-3.5024,-3.5092,-3.5474,-3.591,-3.5543,-3.5931,-2.1824,-2.2574,-2.3097,-2.3005,-2.3325,-2.3581,0.0,0.0,0.0,0.0,0.0,0.0,0.0,0.0,-2.879,-3.0635,0.0,-3.4461,-3.5574,-3.6225,-3.6931,0.0,0.0,-3.9834,-3.9978,-4.0908,-4.0977,-3.9692,-4.0275,-4.0059,-3.8655,-3.8935,-3.8935,-3.8602,-3.8575,-3.8459,-3.8213,-3.8477,-3.8675,-3.871,-3.871,-3.8558,-3.8313,-3.8203,-3.7916,-3.7585,0.0,-3.801,-3.8844,-3.7213,-3.7115,-3.7878,-3.632,-3.5871,-3.5926,-3.5052,-3.4181,-3.342,-3.3158,-3.3071,-3.3027,-3.2831,-3.2743,-3.2831,-3.3311,-3.368,-3.4006,-3.4164,-3.436,-3.4624,-3.4958,-3.5446,-3.5846,-3.6431,-3.6994,-3.7398,-3.7398,-3.7653,-3.7859,-3.8202,-3.8131,-3.8199,-3.8449,-3.8439,-3.8455,-3.8455,-3.8693,-3.8744,-3.8517,-3.8824,-3.8849,-3.8619,-3.8596,-3.8689,-3.9035,-3.878,-3.8271,-3.7492,-3.7031,-3.6553,-3.6277,-3.6277,-3.6025,-3.5474,-3.5703,-3.5802,-3.5503,-3.5888,-3.625,-3.6826,-3.685,-3.7098,-2.178,-2.2714,-2.345,-2.4128,0.0,0.0,0.0,0.0,0.0,0.0,0.0,0.0,0.0,-2.8953,0.0,-3.2399,-3.4434,-3.5873,-3.628,-3.6741,-3.7311,-3.807,-3.8966,-3.9671,-4.016,-4.0757,-4.0719,-3.9779,-4.0015,-3.9735,-3.8809,-3.9141,-3.9114,-3.8782,-3.8819,-3.8729,-3.8368,-3.8512,-3.8542,-3.8527,-3.862,-3.862,-3.8527,-3.9092,-3.9024,-3.8736,-3.9076,-3.9599,-4.0103,-3.8965,-3.8793,-3.9293,-3.8153,-3.7781,-3.7748,-3.62,-3.512,-3.4229,-3.3638,-3.342,-3.3399,-3.3268,-3.3246,-3.3311,-3.39,-3.4425,-3.4952,-3.5113,-3.5201,-3.5379,-3.5602,-3.605,-3.6658,-3.7702,-3.8344,-3.8711,-3.8711,-3.9058,-3.9382,-3.9521,-3.9428,-3.9382,-3.9521,-3.9426,-3.9308,-3.9308,-3.9426,-3.9544,-3.9544,-3.9661,-3.9779,-3.9779,-3.9779,-3.9896,-4.0339,-4.0101,-3.9235,-3.8008,-3.7711,-3.7409,-3.6921,-3.6898,-3.6642,-3.6084,-3.6084,-3.611,-3.6152,-3.6554,-3.6954,-3.7397,-3.7926,-3.819,-2.3011,-2.309,-2.3131,-2.5183,0.0,0.0,0.0,0.0,0.0,0.0,0.0,0.0,0.0,-2.9957,-3.1884,-3.4244,-3.5248,-3.6307,-3.7989,0.0,-3.8722,-3.9861,-4.0078,-4.0133,-4.0187,-4.0757,-4.0621,-3.9454,-3.9861,-3.9916,-3.923,-3.9292,-3.9292,-3.9203,-3.8997,-3.8908,-3.8819,-3.8666,-3.8357,-3.7952,-3.841,-3.841,-3.7952,-3.8254,-3.8425,-3.8684,-3.8214,-3.8658,-3.9529,-3.7973,-3.7889,-3.8742,-3.7721,-3.7493,-3.7796,-3.6595,-3.6077,-3.5859,-3.4759,-3.4425,-3.4338,-3.3879,-3.3748,-3.3857,-3.4445,-3.4997,-3.5666,-3.6607,-3.7175,-3.7314,-3.6432,-3.6453,-3.7154,-3.8251,-3.8872,-3.9239,-3.9239,-3.936,-3.9544,-4.0012,-3.9731,-3.9544,-4.0036,-3.9638,-3.9308,-3.9308,-3.9755,-4.0106,-4.0106,-4.0711,-4.1057,-4.1057,-4.1057,-4.1057,-4.1057,-4.1148,-4.0769,-4.0194,-3.9714,-3.9187,-3.8659,-3.8635,-3.8395,-3.782,-3.782,-3.7796,-3.7878,-3.7902,-3.7926,-3.795,-3.8503,-3.8767,-2.2765,-2.3429,0.0,0.0,0.0,0.0,0.0,0.0,0.0,0.0,0.0,0.0,0.0,0.0,-3.305,-3.5058,-3.6198,-3.7338,-3.8776,-3.8966,-3.9129,-3.959,-3.9644,-3.9644,-3.9644,-4.0187,-4.0187,-3.9373,-3.9861,-3.9943,-3.9319,-3.9292,-3.9292,-3.9292,-3.9203,-3.9087,-3.8908,-3.9024,-3.8782,-3.833,-3.8512,-3.8512,-3.8357,-3.8609,-3.8873,-3.915,-3.8568,-3.8935,-3.9712,-3.8541,-3.8788,-3.9844,-3.9803,-3.9421,-3.8847,-3.8453,-3.7902,-3.7216,-3.659,-3.6577,-3.6764,-3.6543,-3.659,-3.6744,-3.647,-3.7059,-3.759,-3.7188,-3.7715,-3.8358,-3.8271,-3.8433,-3.8826,-3.9938,-4.0337,-4.0479,-4.0479,-4.0544,-4.0588,-4.0779,-4.066,-4.0588,-4.0779,-4.0595,-4.0479,-4.0479,-4.0711,-4.0826,-4.0826,-4.1057,-4.1172,-4.1172,-4.1172,-4.1172,-4.1172,-4.1172,-4.11,-4.0908,-4.0379,-3.985,-3.932,-3.932,-3.92,-3.9008,-3.8984,-3.8984,-3.8984,-3.8984,-3.8984,-3.9008,-3.92,-3.932,-2.2451,-2.3429,-2.4462,0.0,0.0,0.0,0.0,0.0,0.0,0.0,0.0,0.0,0.0,0.0,0.0,0.0,-3.6741,-3.7935,-3.9129,-3.9292,-3.9292,-3.9292,-3.9292,-3.9292,-3.9292,-3.9671,-3.9726,-3.9319,-3.9671,-3.9726,-3.9319,-3.9129,-3.902,-3.902,-3.902,-3.8932,-3.8728,-3.9094,-3.9114,-3.8782,-3.8782,-3.8782,-3.8629,-3.8845,-3.9004,-3.9162,-3.8635,-3.8751,-3.9374,-3.8976,-3.9485,-4.0559,-4.088,-4.0614,-4.0084,-3.9424,-3.8885,-3.8355,-3.7795,-3.7965,-3.8251,-3.8275,-3.8398,-3.8613,-3.8243,-3.8728,-3.9153,-3.8437,-3.8847,-3.9599,-3.9955,-3.9793,-3.9817,-4.0937,-4.1172,-4.1172,-4.1172,-4.1172,-4.1172,-4.1172,-4.1172,-4.1244,-4.1413,-4.1293,-4.1244,-4.1413,-4.1293,-4.1172,-4.1172,-4.1172,-4.1172,-4.1172,-4.1172,-4.1172,-4.1172,-4.1172,-4.1172,-4.1172,-4.0836,-4.0403,-3.9874,-3.985,-3.9777,-3.9609,-3.9609,-3.9609,-3.9609,-3.9609,-3.9609,-3.9609,-3.9777,-3.985,-2.2326,-2.3054,0.0,0.0,0.0,0.0,0.0,0.0,0.0,0.0,0.0,0.0,0.0,0.0,0.0,-3.5547,-3.6741,-3.7935,-3.9129,-3.9292,-3.9292,-3.9292,-3.9292,-3.9292,-3.9292,-3.9292,-3.9292,-3.9292,-3.9292,-3.9292,-3.9292,-3.8722,-3.8396,-3.8396,-3.8396,-3.8396,-3.8396,-3.8993,-3.9292,-3.9292,-3.9292,-3.9051,-3.8602,-3.8602,-3.8602,-3.8602,-3.8083,-3.8057,-3.8266,-3.8873,-3.9796,-4.0728,-4.0507,-4.0775,-4.1067,-3.9111,-3.8868,-3.9393,-3.8206,-3.8069,-3.8428,-3.8613,-3.8718,-3.8822,-3.9494,-3.9717,-4.0038,-4.0631,-4.1003,-4.1172,-4.1172,-4.0421,-3.9817,-4.0937,-4.1172,-4.1172,-4.1172,-4.1172,-4.1172,-4.1172,-4.1172,-4.1341,-4.187,-4.1533,-4.1365,-4.1894,-4.1533,-4.1196,-4.1196,-4.1196,-4.1196,-4.1196,-4.1196,-4.1172,-4.1196,-4.1172,-4.1172,-4.1172,-4.1172,-4.0956,-4.0427,-4.0403,-4.0162,-3.9633,-3.9633,-3.9633,-3.9633,-3.9633,-3.9633,-3.9633,-4.0162,-4.0403,-2.2567,-2.3079,0.0,0.0,0.0,0.0,0.0,0.0,0.0,0.0,0.0,0.0,0.0,0.0,0.0,-3.7059,-3.7318,-3.7935,-3.9129,-3.9292,-3.9292,-3.9292,-3.9292,-3.9292,-3.9292,-3.9292,-3.9292,-3.9292,-3.8912,-3.8695,-3.8695,-3.8125,-3.7799,-3.7799,-3.7799,-3.7799,-3.7799,-3.8396,-3.8695,-3.8695,-3.9102,-3.9203,-3.9141,-3.8935,-3.8935,-3.9051,-3.8602,-3.8421,-3.8538,-3.8965,-3.9388,-3.9853,-4.0675,-4.1029,-4.1134,-4.057,-4.0455,-4.0717,-4.0533,-4.0559,-4.0795,-4.1386,-4.1617,-4.1544,-4.1145,-4.1362,-4.1723,-4.1711,-4.2023,-4.2349,-4.2188,-4.1825,-4.1525,-4.1263,-4.1172,-4.1172,-4.1172,-4.1172,-4.1172,-4.1172,-4.1172,-4.1341,-4.187,-4.1846,-4.1918,-4.2447,-4.2399,-4.2303,-4.2303,-4.1966,-4.187,-4.2254,-4.1629,-4.1341,-4.1701,-4.1389,-4.1172,-4.1172,-4.1172,-4.1124,-4.0956,-4.0956,-4.0884,-4.0715,-4.0715,-4.0715,-4.0715,-4.0715,-4.0715,-4.0715,-4.0884,-4.0956,-2.2555,-2.3406,0.0,0.0,0.0,0.0,0.0,0.0,0.0,0.0,0.0,0.0,-3.8485,-3.7919,0.0,-3.787,-3.8215,-3.8644,-3.8968,-3.9271,-3.9267,-3.8613,-3.8586,-3.8586,-3.8586,-3.8586,-3.8586,-3.8586,-3.826,-3.807,-3.807,-3.7501,-3.7148,-3.7148,-3.7148,-3.7148,-3.7148,-3.7989,-3.8423,-3.8423,-3.902,-3.9292,-3.9292,-3.8997,-3.8997,-3.9292,-3.8845,-3.8756,-3.8719,-3.9123,-3.9362,-3.96,-4.0227,-4.0653,-4.0813,-4.0428,-4.0695,-4.1186,-4.1328,-4.1666,-4.2097,-4.2668,-4.29,-4.2776,-4.2289,-4.2292,-4.2469,-4.2606,-4.2754,-4.2888,-4.3033,-4.3048,-4.2737,-4.1516,-4.1172,-4.1172,-4.1172,-4.1172,-4.1244,-4.1461,-4.1509,-4.1725,-4.2447,-4.2423,-4.2447,-4.2976,-4.288,-4.276,-4.276,-4.2303,-4.2086,-4.2423,-4.1677,-4.1317,-4.1629,-4.1365,-4.1172,-4.1172,-4.1172,-4.1172,-4.1172,-4.1172,-4.1172,-4.1172,-4.1172,-4.1172,-4.1172,-4.1172,-4.1172,-4.1172,-4.1172,-4.1172,-2.2462,0.0,0.0,0.0,0.0,0.0,0.0,0.0,-4.0558,-4.0424,0.0,-4.11,-3.9017,-3.8647,-3.8602,-3.8352,-3.9218,-3.9715,-3.8912,-3.9309,-3.9229,-3.792,-3.7697,-3.7612,-3.7612,-3.7528,-3.7528,-3.7528,-3.7473,-3.7446,-3.7446,-3.6849,-3.6524,-3.6524,-3.6524,-3.6524,-3.6524,-3.7663,-3.8288,-3.8342,-3.8884,-3.9183,-3.9292,-3.8997,-3.9087,-3.9292,-3.8997,-3.8908,-3.8962,-3.9226,-3.9532,-3.9769,-3.9493,-3.9774,-4.0214,-3.9301,-3.9945,-4.1069,-4.1086,-4.1653,-4.2474,-4.2749,-4.29,-4.29,-4.29,-4.2762,-4.2695,-4.3148,-4.3205,-4.3136,-4.3701,-4.3881,-4.3492,-4.1834,-4.1402,-4.1402,-4.1287,-4.1287,-4.1432,-4.1798,-4.1894,-4.2206,-4.3192,-4.3024,-4.2952,-4.3505,-4.3144,-4.2856,-4.2904,-4.2447,-4.211,-4.211,-4.1629,-4.1317,-4.1268,-4.1244,-4.1244,-4.1244,-4.1244,-4.1268,-4.1317,-4.1268,-4.122,-4.1172,-4.1268,-4.1268,-4.1172,-4.122,-4.1244,-4.1244,-4.1244,-4.1268,0.0,-2.4044,0.0,0.0,0.0,0.0,0.0,0.0,-4.1219,-4.0567,-4.1893,-4.272,-4.1157,-4.122,-4.1097,-3.9951,-3.9817,-3.9873,-3.9635,-3.975,-3.9699,-3.9424,-3.8858,-3.8449,-3.8449,-3.7838,-3.7528,-3.7528,-3.7066,-3.6795,-3.6795,-3.6225,-3.59,-3.59,-3.59,-3.59,-3.59,-3.6632,-3.7229,0.0,-3.7853,-3.8396,-3.9292,-3.9203,-3.9203,-3.9292,-3.8997,-3.8997,-3.9203,-3.9043,-3.9213,-3.9446,-3.9907,-4.0086,-4.0167,-3.9988,-4.015,-4.0437,-4.0908,-4.1206,-4.1558,-4.2575,-4.29,-4.29,-4.29,-4.2885,-4.2905,-4.3471,-4.399,-4.4273,-4.4177,-4.4463,-4.4587,-4.3492,-4.327,-4.3048,-4.24,-4.2199,-4.1997,-4.1432,-4.1365,-4.1557,-4.2182,-4.2567,-4.3072,-4.4034,-4.3697,-4.3505,-4.3938,-4.3529,-4.3192,-4.3192,-4.2711,-4.2254,-4.1846,-4.1798,-4.1798,-4.1798,-4.1798,-4.199,-4.2399,-4.2014,-4.1605,-4.1196,-4.199,-4.2014,-4.1172,-4.1605,-4.1798,-4.1798,-4.1798,-4.2014,0.0,0.0,0.0,0.0,0.0,0.0,0.0,0.0,-4.0108,-4.0047,-4.1678,-4.2786,-4.1771,-4.1778,-4.1576,-4.0516,-4.0544,-4.0426,-3.9694,-3.9929,-3.9865,-3.916,-3.8638,-3.8403,-3.8403,-3.8037,-3.7826,-3.7826,-3.7489,-3.7163,-3.6792,-3.6408,-3.6084,-3.571,-3.571,-3.571,-3.571,-3.6307,-3.6768,-3.7094,-3.7392,-3.7853,-3.8477,-3.9047,-3.9292,-3.9292,-3.9114,-3.9203,-3.9292,-3.9114,-3.9203,-3.9319,-3.9644,-3.9753,-3.9753,-3.9753,-3.9943,-4.0241,-4.0567,-4.1055,-4.1652,-4.2249,-4.2656,-4.29,-4.29,-4.29,-4.3009,-4.3606,-4.4013,-4.4347,-4.4801,-4.5152,-4.5341,-4.5182,-4.4479,-4.3687,-4.327,-4.3159,-4.3011,-4.2836,-4.2772,-4.2831,-4.2934,-4.3117,-4.3313,-4.3866,-4.3697,-4.3529,-4.3577,-4.312,-4.2784,-4.2784,-4.2543,-4.2158,-4.1629,-4.2062,-4.223,-4.199,-4.2206,-4.2471,-4.276,-4.2735,-4.2471,-4.1942,-4.2471,-4.2495,-4.1942,-4.2206,-4.2351,-4.2351,-4.2351,-4.2495,0.0,0.0,0.0,0.0,0.0,0.0,0.0,-3.8015,-3.8662,-3.9216,-4.0909,-4.2078,-4.1524,-4.1524,-4.137,-4.0632,-4.1032,-4.0944,-3.9546,-3.9866,-3.9738,-3.8297,-3.8062,-3.8047,-3.8135,-3.7899,-3.7825,-3.7941,-3.7825,-3.7422,-3.6613,-3.6536,-3.6281,-3.5787,-3.5627,-3.5627,-3.5787,-3.6225,-3.6442,-3.6442,-3.7175,-3.7473,-3.7419,-3.8505,-3.8993,-3.8993,-3.8993,-3.9047,-3.9156,-3.9156,-3.921,-3.9292,-3.9292,-3.9292,-3.9292,-3.9292,-3.9617,-4.0051,-4.016,-4.092,-4.1869,-4.1978,-4.2412,-4.29,-4.29,-4.29,-4.2982,-4.347,-4.3769,-4.4176,-4.518,-4.5587,-4.5858,-4.6347,-4.5368,-4.4261,-4.4042,-4.4016,-4.4061,-4.4412,-4.4591,-4.4597,-4.4377,-4.3954,-4.377,-4.3723,-4.3675,-4.3506,-4.2928,-4.2591,-4.2351,-4.2254,-4.2327,-4.2134,-4.1509,-4.2327,-4.2711,-4.2254,-4.2663,-4.2928,-4.3024,-4.3433,-4.3457,-4.3048,-4.3024,-4.2952,-4.276,-4.2856,-4.288,-4.288,-4.288,-4.2952,0.0,0.0,0.0,0.0,0.0,0.0,0.0,0.0,-3.8539,0.0,-3.9801,-4.0786,-4.0693,-4.1186,-4.137,-4.0632,-4.0601,-4.0347,-3.9603,-3.9573,-3.9321,-3.858,-3.782,-3.7615,-3.818,-3.7097,-3.6649,-3.7171,-3.6707,-3.6056,-3.5274,-3.5274,-3.5498,-3.5927,-3.5315,-3.5237,-3.5955,-3.5891,-3.5845,-3.5845,-3.6985,-3.7256,-3.6741,-3.7446,-3.7772,-3.7772,-3.7772,-3.807,-3.8532,-3.8532,-3.883,-3.9292,-3.9292,-3.9292,-3.9292,-3.9292,-3.9346,-3.9481,-3.9997,-4.0648,-4.1327,-4.1842,-4.2412,-4.29,-4.29,-4.29,-4.29,-4.2982,-4.3769,-4.461,-4.4773,-4.5587,-4.6374,-4.6455,-4.635,-4.5928,-4.5154,-4.4912,-4.4722,-4.401,-4.431,-4.4822,-4.5272,-4.4903,-4.4637,-4.4799,-4.4314,-4.3929,-4.3482,-4.377,-4.3842,-4.3361,-4.3746,-4.3625,-4.2639,-4.3072,-4.3385,-4.3313,-4.3385,-4.3625,-4.4106,-4.4202,-4.4202,-4.413,-4.413,-4.3673,-4.276,-4.3192,-4.3409,-4.3409,-4.3409,-4.3673,-2.3689,0.0,0.0,0.0,0.0,0.0,0.0,0.0,-3.703,-3.78,-3.8415,-3.9062,-3.9831,-4.0201,-4.0324,-4.0016,-3.9955,-3.9739,-3.9062,-3.8939,-3.8846,-3.8539,-3.8213,-3.8105,-3.8409,-3.7828,-3.7563,-3.7833,-3.7593,-3.7099,-3.6299,-3.6299,-3.6201,-3.6053,-3.5713,-3.5713,-3.6053,-3.5543,-3.5328,-3.5328,-3.6654,-3.6934,-3.6239,-3.7377,-3.7727,-3.7528,-3.7528,-3.7881,-3.845,-3.8776,-3.9074,-3.9319,-3.9671,-3.959,-3.9292,-3.9292,-3.9292,-3.9346,-3.959,-4.0323,-4.1164,-4.1435,-4.2141,-4.29,-4.29,-4.29,-4.29,-4.29,-4.3525,-4.4257,-4.461,-4.5343,-4.6048,-4.6401,-4.6482,-4.6377,-4.5928,-4.5928,-4.5795,-4.5368,-4.5122,-4.5135,-4.5597,-4.5159,-4.4709,-4.4738,-4.489,-4.4568,-4.3468,-4.3934,-4.3939,-4.3241,-4.3553,-4.3577,-4.2832,-4.3505,-4.3842,-4.3529,-4.3818,-4.4082,-4.4347,-4.4347,-4.4347,-4.4347,-4.4347,-4.413,-4.3649,-4.3866,-4.3986,-4.3986,-4.3986,-4.4106,0.0,0.0,0.0,0.0,0.0,0.0,0.0,0.0,-3.5613,0.0,-3.7123,-3.7615,-3.8785,-3.9154,-3.9277,-3.9277,-3.9277,-3.9031,-3.8354,-3.8262,-3.82,-3.8015,-3.7984,-3.8077,-3.8231,-3.8108,-3.8077,-3.8231,-3.8108,-3.7659,-3.6866,-3.6798,-3.6585,-3.6207,-3.5996,-3.5996,-3.6137,-3.5425,-3.5147,-3.5317,-3.633,-3.6646,-3.6222,-3.7353,-3.7805,-3.7621,-3.762,-3.7806,-3.8233,-3.883,-3.9264,-3.9563,-3.9861,-3.978,-3.9509,-3.9373,-3.9292,-3.9292,-3.9292,-4.0106,-4.111,-4.111,-4.1924,-4.29,-4.29,-4.29,-4.29,-4.29,-4.3443,-4.4122,-4.4583,-4.5261,-4.5912,-4.6374,-4.6482,-4.6482,-4.6482,-4.6482,-4.6482,-4.6482,-4.6035,-4.5821,-4.6272,-4.5779,-4.52,-4.4978,-4.5468,-4.5335,-4.4041,-4.4477,-4.4668,-4.3983,-4.4206,-4.4279,-4.3888,-4.4354,-4.4523,-4.4087,-4.4229,-4.4347,-4.4347,-4.4347,-4.4347,-4.4347,-4.4347,-4.4347,-4.4347,-4.4347,-4.4347,-4.4347,-4.4347,-4.4347,-2.3916,-2.5381,0.0,0.0,0.0,0.0,0.0,0.0,0.0,-3.549,-3.6107,-3.6753,-3.7461,-3.8138,-3.8569,-3.8569,-3.8569,-3.8323,-3.7646,-3.7554,-3.7307,-3.6661,-3.6599,-3.6846,-3.7492,-3.6969,-3.6876,-3.7492,-3.6969,-3.6255,-3.5584,-3.5489,-3.5789,-3.635,-3.5644,-3.5575,-3.635,-3.5575,-3.5478,-3.6043,-3.6143,-3.6461,-3.7084,-3.7113,-3.749,-3.8081,-3.7862,-3.7702,-3.7609,-3.8233,-3.9129,-4.0078,-3.9563,-3.9671,-4.0078,-3.9509,-3.9292,-3.9292,-3.9292,-4.0106,-4.111,-4.111,-4.1924,-4.29,-4.29,-4.29,-4.29,-4.29,-4.3742,-4.4664,-4.4691,-4.556,-4.6428,-4.6455,-4.6482,-4.6482,-4.6482,-4.6482,-4.6482,-4.6482,-4.6916,-4.7323,-4.7351,-4.7244,-4.6894,-4.6107,-4.6389,-4.6395,-4.5551,-4.6294,-4.6985,-4.701,-4.701,-4.7036,-4.6985,-4.6225,-4.5768,-4.5718,-4.4792,-4.4347,-4.4347,-4.4347,-4.4347,-4.4347,-4.4347,-4.4347,-4.4347,-4.4347,-4.4347,-4.4347,-4.4347,-4.4347,-2.4586,-2.5044,0.0,0.0,0.0,-2.859,0.0,-3.1782,-3.2838,-3.3921,-3.506,-3.5922,-3.6168,-3.7123,-3.7861,-3.7861,-3.7861,-3.7615,-3.6938,-3.6846,-3.6753,-3.6507,-3.6507,-3.6599,-3.6815,-3.663,-3.6599,-3.6846,0.0,-3.6352,-3.6133,-3.61,-3.6191,-3.6435,-3.6148,-3.5954,-3.5759,-3.5954,-3.5944,-3.5621,-3.6537,-3.7075,-3.7286,-3.8222,-3.8448,-3.8144,-3.9011,-3.9295,-3.9159,-3.9782,-4.0547,-4.1341,-4.1482,-4.1109,-4.0392,-4.0198,-3.9793,-3.9292,-3.9292,-4.0106,-4.111,-4.111,-4.1924,-4.29,-4.29,-4.29,-4.29,-4.29,-4.3769,-4.4719,-4.4719,-4.5587,-4.6482,-4.6482,-4.6482,-4.6482,-4.6482,-4.6482,-4.6482,-4.6482,-4.6645,-4.6781,-4.6781,-4.7106,-4.7244,-4.6894,-4.7728,-4.7985,-4.7057,-4.7649,-4.7886,-4.7324,-4.7205,-4.7205,-4.7205,-4.6849,-4.673,-4.673,-4.6371,-4.613,-4.613,-4.613,-4.6305,-4.6778,-4.6305,-4.5525,-4.4347,-4.4347,-4.4347,-4.4347,-4.4347,-4.4347,-2.5005,-2.4926,0.0,0.0,0.0,-2.691,-2.9166,0.0,-3.1195,-3.2444,-3.3829,-3.4783,-3.4783,-3.5891,-3.6907,-3.7123,-3.7153,-3.6999,-3.6569,-3.6507,-3.6507,-3.6507,-3.6507,-3.6507,-3.6507,-3.6507,-3.6507,-3.6507,0.0,0.0,-3.6507,-3.6507,-3.6507,-3.6507,-3.6507,-3.6289,-3.5816,-3.6289,-3.6289,-3.5752,-3.6748,-3.7357,-3.7745,-3.8739,-3.907,-3.8957,-3.9914,-4.0159,-4.001,-4.0648,-4.143,-4.2324,-4.2415,-4.2021,-4.1312,-4.1114,-4.0717,-4.0257,-4.0451,-4.1202,-4.2028,-4.1856,-4.2642,-4.3602,-4.3024,-4.3036,-4.3145,-4.2955,-4.3769,-4.4719,-4.4719,-4.5587,-4.6482,-4.6482,-4.6482,-4.6482,-4.6482,-4.6482,-4.6482,-4.6482,-4.6482,-4.6537,-4.6727,-4.7079,-4.7432,-4.7622,-4.849,-4.8892,-4.8193,-4.8699,-4.8815,-4.8262,-4.8146,-4.8146,-4.8146,-4.7886,-4.7652,-4.7652,-4.7324,-4.7205,-4.7205,-4.7385,-4.7667,-4.8146,-4.7667,-4.6889,-4.5552,-4.5036,-4.4816,-4.4816,-4.447,-4.4347,0.0,0.0,0.0,0.0,0.0,0.0,-2.9123,0.0,-2.9974,-3.1081,-3.2382,-3.3336,-3.3336,-3.4475,-3.5645,-3.6292,-3.6445,-3.6507,-3.6507,-3.6507,-3.6507,-3.6507,-3.6507,-3.6507,-3.6507,-3.6507,-3.6507,0.0,-3.6507,-3.6507,-3.6507,-3.6507,-3.6507,-3.6507,-3.6507,-3.6507,-3.6507,-3.6507,-3.6507,-3.6507,-3.6507,-3.7184,-3.8477,-3.8508,-3.9247,-4.0509,-4.0509,-4.0287,-4.006,-4.067,-4.1686,-4.276,-4.2262,-4.2324,-4.2789,-4.2208,-4.1976,-4.2092,-4.2815,-4.3369,-4.3806,-4.3551,-4.4228,-4.4909,-4.3423,-4.3378,-4.3704,-4.3133,-4.3769,-4.4719,-4.4746,-4.5614,-4.6482,-4.6482,-4.6482,-4.6482,-4.6482,-4.6482,-4.6482,-4.6482,-4.6482,-4.6672,-4.7269,-4.7378,-4.7622,-4.8192,-4.8762,-4.9169,-4.9169,-4.9657,-5.001,-5.001,-5.001,-5.001,-5.0037,-4.9186,-4.87,-4.8753,-4.7795,-4.7324,-4.7375,-4.7889,-4.8172,-4.8172,-4.8172,-4.8146,-4.8146,-4.6622,-4.5889,-4.5768,-4.484,-4.4371,-2.5566,0.0,0.0,0.0,0.0,0.0,-2.6635,-2.7623,-2.842,-2.9175,-3.0763,-3.206,-3.2006,-3.3059,-3.4044,-3.4229,-3.5522,-3.6507,-3.6507,-3.6507,-3.6507,-3.6507,-3.6507,-3.6507,-3.6507,-3.6507,0.0,0.0,-3.6507,-3.6507,-3.6507,-3.6507,-3.6507,-3.6507,-3.6507,-3.6507,-3.6507,-3.6507,-3.6507,-3.6507,-3.6507,-3.6938,-3.78,-3.8292,-3.897,-3.9831,-4.0324,-4.072,-4.1182,-4.1364,-4.2213,-4.3364,-4.3213,-4.3127,-4.3108,-4.304,-4.2548,-4.2092,-4.2815,-4.3369,-4.3979,-4.4354,-4.5014,-4.5556,-4.511,-4.5075,-4.5096,-4.4181,-4.476,-4.573,-4.5956,-4.6238,-4.6482,-4.6482,-4.6482,-4.6482,-4.6482,-4.6482,-4.6482,-4.6482,-4.6808,-4.7161,-4.7323,-4.8056,-4.8707,-4.887,-4.9386,-4.9766,-4.9766,-4.9901,-5.001,-5.001,-5.001,-5.0426,-5.1316,-5.0254,-5.0135,-5.1577,-5.0128,-4.9587,-5.0442,-5.0201,-5.0281,-5.0709,-5.0398,-5.0184,-5.0184,-4.7936,-4.6849,-4.6849,-4.6165,-4.5995,-2.6356,-2.6167,-2.5914,-2.6198,0.0,0.0,-2.6459,-2.6967,-2.7439,0.0,-2.9465,-3.067,-3.0566,-3.1643,-3.2567,-3.2567,-3.4044,-3.5306,-3.5614,-3.5891,-3.5953,-3.5676,-3.5891,-3.5953,-3.5676,-3.5891,-3.6076,-3.6076,-3.6322,-3.6507,-3.6507,-3.6507,-3.6507,-3.6507,-3.6507,-3.6507,-3.6507,-3.6507,-3.6507,-3.6507,-3.6507,-3.6846,-3.7523,-3.82,-3.8877,-3.9554,-4.0232,-4.0755,-4.1155,-4.1155,-4.1955,-4.3187,-4.3464,-4.3502,-4.3455,-4.3758,-4.3536,-4.323,-4.3856,-4.4542,-4.5084,-4.5312,-4.605,-4.6667,-4.6046,-4.5982,-4.6036,-4.511,-4.5496,-4.628,-4.6929,-4.6769,-4.6482,-4.6482,-4.6482,-4.6482,-4.6482,-4.6482,-4.6482,-4.6482,-4.6944,-4.7432,-4.7676,-4.849,-4.9223,-4.9467,-4.9793,-5.001,-5.001,-5.0235,-5.0348,-5.0348,-5.0791,-5.1431,-5.2128,-5.182,-5.1845,-5.2656,-5.1815,-5.1304,-5.1768,-5.17,-5.1918,-5.2533,-5.1932,-5.1495,-5.1222,-4.8875,-4.7663,-4.7564,-4.7643,-4.7652,-2.7209,-2.7209,-2.7336,-2.7841,-2.7146,0.0,-2.757,-2.7324,-2.6941,-2.7333,-2.8323,-2.9138,-2.9107,-3.0217,-3.1111,-3.1111,-3.2252,-3.3367,-3.4229,-3.4937,-3.5153,-3.4537,-3.4999,-3.5122,-3.4537,-3.5029,-3.5368,-3.5368,-3.5984,-3.6353,-3.6261,-3.6415,-3.6445,-3.6384,-3.6445,-3.6507,-3.6507,-3.6507,-3.6507,-3.6507,-3.6507,-3.6846,-3.7523,-3.82,-3.8877,-3.9554,-4.0232,-4.0539,-4.0539,-4.0539,-4.1309,-4.2571,-4.3279,-4.3556,-4.3648,-4.4418,-4.4633,-4.4664,-4.5341,-4.6018,-4.6536,-4.6441,-4.7156,-4.788,-4.6491,-4.6546,-4.6807,-4.6279,-4.6297,-4.6658,-4.7913,-4.7541,-4.6769,-4.6665,-4.6665,-4.6665,-4.6455,-4.6482,-4.6482,-4.6482,-4.6998,-4.7622,-4.8165,-4.8789,-4.9524,-5.0041,-5.0123,-5.0123,-5.0123,-5.0572,-5.0906,-5.0906,-5.1989,-5.2742,-5.2909,-5.3416,-5.3557,-5.3135,-5.2964,-5.2678,-5.2235,-5.2623,-5.3052,-5.373,-5.3148,-5.2567,-5.2014,-5.0074,-4.8916,-4.8609,-4.9179,-4.9438,-2.7905,-2.7905,-2.781,-2.7399,-2.7905,0.0,-2.745,-2.7576,-2.769,-2.7149,-2.723,-2.7373,-2.7238,-2.8326,-2.9228,-2.9228,-3.0309,-3.172,-3.3367,-3.4229,-3.4629,-3.4506,-3.4599,-3.4599,-3.4475,-3.4599,-3.466,-3.466,-3.5306,-3.543,-3.4906,-3.5891,-3.623,-3.5707,-3.6199,-3.6507,-3.6507,-3.6507,-3.6507,-3.6507,-3.6507,-3.6846,-3.7523,-3.82,-3.8877,-3.9554,-4.0232,-4.0539,-4.0539,-4.0539,-4.1032,-4.1925,-4.3094,-4.3556,-4.371,-4.4941,-4.5033,-4.4664,-4.5341,-4.6018,-4.6696,-4.713,-4.7895,-4.8424,-4.8133,-4.8164,-4.8298,-4.8417,-4.8307,-4.8336,-4.9086,-4.919,-4.8795,-4.792,-4.7745,-4.7438,-4.6665,-4.6482,-4.6482,-4.6482,-4.7351,-4.811,-4.8219,-4.9446,-5.0546,-5.0656,-5.0683,-5.0683,-5.0683,-5.0795,-5.0906,-5.0906,-5.1989,-5.3133,-5.4087,-5.3894,-5.4234,-5.5567,-5.4346,-5.3921,-5.4674,-5.3868,-5.373,-5.4425,-5.3837,-5.3444,-5.3332,-5.2425,-5.1966,-5.1871,-5.1561,-5.1803,-2.9643,-2.9643,-2.958,-2.9232,-2.9137,0.0,0.0,-2.805,-2.7866,-2.7476,-2.7651,-2.7811,-2.7765,-2.8327,-2.8763,-2.8763,-2.9539,-3.0412,-3.138,-3.2345,-3.2813,-3.2475,-3.3029,0.0,-3.2967,-3.3552,-3.4075,-3.4445,-3.4783,-3.4814,-3.4506,-3.543,-3.583,-3.5491,-3.6138,-3.6507,-3.6507,-3.6507,-3.6507,-3.6507,-3.6507,-3.6661,-3.703,-3.8046,-3.8508,-3.86,-3.9955,-4.0324,-4.0047,-4.0385,-4.0755,-4.1247,-4.291,-4.3556,-4.3741,-4.5095,-4.5372,-4.5095,-4.5095,-4.5526,-4.6203,-4.688,-4.7558,-4.8235,-4.8943,-4.9158,-4.9197,-4.9326,-4.8925,-4.8643,-4.9616,-4.9472,-4.9078,-4.8808,-4.8795,-4.8696,-4.8122,-4.8021,-4.8021,-4.8021,-4.8263,-4.8483,-4.8301,-4.9419,-5.0547,-5.0851,-5.1128,-5.1238,-5.0906,-5.143,-5.1649,-5.1348,-5.2678,-5.3961,-5.4921,-5.5045,-5.5249,-5.59,-5.5338,-5.4998,-5.5026,-5.4734,-5.4762,-5.4998,-5.4998,-5.4856,-5.4657,-5.4629,-5.4285,-5.3661,-5.3398,-5.3672,-3.1255,-3.1413,-3.1539,-3.1286,-3.0654,-3.0022,0.0,0.0,0.0,-2.8135,0.0,0.0,0.0,0.0,0.0,0.0,0.0,0.0,0.0,-3.0289,0.0,-3.0495,-3.1366,0.0,-3.1297,-3.229,-3.3306,-3.4014,-3.4198,-3.4198,-3.4075,-3.4845,-3.5306,-3.5306,-3.5953,-3.6353,-3.6507,-3.6507,-3.6507,-3.6507,-3.6507,-3.6569,-3.6722,-3.78,-3.8077,-3.78,-3.9554,-4.0016,-3.9554,-4.0262,-4.0539,-4.0755,-4.291,-4.3679,-4.3741,-4.5249,-4.5711,-4.5495,-4.4818,-4.5095,-4.5865,-4.6419,-4.725,-4.8204,-4.9189,-4.9682,-4.9866,-4.9712,-4.92,-4.8922,-5.0125,-4.9783,-4.9274,-4.9794,-4.9873,-4.9873,-4.965,-4.965,-4.965,-4.965,-4.9481,-4.9221,-4.8651,-4.9391,-5.0216,-5.0934,-5.1458,-5.1677,-5.1238,-5.1976,-5.2408,-5.2004,-5.3468,-5.472,-5.5184,-5.5968,-5.6171,-5.5649,-5.6217,-5.6051,-5.5049,-5.5538,-5.5822,-5.5651,-5.6251,-5.6394,-5.5877,-5.628,-5.5908,-5.4967,-5.4865,-5.5233,-3.1381,-3.2108,-3.2771,-3.1507,-3.2455,-3.3214,-3.1381,0.0,-2.9769,-2.9091,0.0,0.0,0.0,0.0,0.0,0.0,0.0,0.0,-2.8999,-2.906,-2.9446,-3.0463,-3.0587,-3.0649,0.0,-3.1235,-3.189,-3.2567,-3.3183,-3.3275,-3.2659,-3.386,-3.4599,-3.4599,-3.5245,-3.5891,-3.6476,-3.6507,-3.6507,-3.6507,-3.6507,-3.6815,-3.74,-3.7554,-3.7892,-3.8446,-3.9277,-3.9585,-3.9554,-4.0262,-4.0539,-4.0786,-4.3433,-4.411,-4.3802,-4.5772,-4.6111,-4.5495,-4.4818,-4.5403,-4.648,-4.6573,-4.7896,-4.9374,-4.8881,-4.9589,-5.0451,-4.9866,-5.0027,-5.0555,-5.1322,-5.1417,-5.1302,-5.096,-5.0922,-5.0704,-5.0036,-4.9844,-4.9844,-4.9844,-5.0535,-5.0685,-4.9735,-4.9768,-5.0434,-5.1484,-5.1787,-5.2004,-5.2301,-5.2516,-5.2623,-5.2516,-5.3654,-5.4546,-5.4604,-5.5707,-5.6374,-5.6287,-5.6814,-5.7133,-5.6988,-5.6991,-5.6822,-5.6308,-5.6936,-5.7162,-5.7075,-5.6594,-5.6366,-5.6194,-5.6136,-5.6509,-3.2519,-3.2866,-3.3151,-3.2582,-3.2771,-3.2898,-3.2013,-3.1286,-3.0686,-3.0401,0.0,0.0,0.0,0.0,0.0,0.0,-2.8778,0.0,0.0,0.0,-2.9013,0.0,0.0,0.0,0.0,0.0,0.0,0.0,-3.2074,-3.229,-3.2382,-3.3306,-3.4044,-3.4475,-3.5122,-3.5799,-3.6476,-3.6507,-3.6507,-3.6507,-3.6507,-3.663,-3.6938,-3.7307,-3.743,-3.74,-3.8477,-3.8939,-3.9,-3.9647,-4.017,-4.0755,-4.3094,-4.3833,-4.3771,-4.5403,-4.5834,-4.5495,-4.4818,-4.4941,-4.5557,-4.6357,-4.8266,-5.0051,-4.8943,-4.9589,-5.0451,-4.9374,-4.9281,-4.9651,-5.0359,-5.082,-5.1195,-5.1511,-5.2001,-5.2185,-5.1942,-5.2246,-5.2519,-5.2519,-5.2567,-5.2524,-5.2482,-5.2428,-5.2451,-5.2722,-5.3126,-5.3232,-5.273,-5.2943,-5.2972,-5.2652,-5.3444,-5.4081,-5.4487,-5.501,-5.5474,-5.5823,-5.6432,-5.6926,-5.7303,-5.6964,-5.6851,-5.6964,-5.6851,-5.6964,-5.7303,-5.7078,-5.6964,-5.6964,-5.6509,-5.6737,-3.3309,-3.3435,-3.353,-3.334,-3.3056,-3.2771,-3.2582,-3.2171,-3.1729,-3.1539,-3.1507,0.0,0.0,0.0,-3.0243,-2.9516,0.0,-2.9187,0.0,-2.8905,0.0,0.0,0.0,0.0,0.0,0.0,0.0,-3.1389,-3.1451,-3.1728,-3.2351,-3.2844,-3.3552,-3.4445,-3.4937,-3.5614,-3.6476,-3.6507,-3.6507,-3.6507,-3.6507,-3.6507,-3.6507,-3.6999,-3.6969,-3.6569,-3.7923,-3.8508,-3.8569,-3.9431,-4.0201,-4.1001,-4.2663,-4.3402,-4.3741,-4.5095,-4.5588,-4.5526,-4.5033,-4.5095,-4.5588,-4.6757,-4.8635,-5.0205,-4.8974,-4.9466,-5.0174,-4.8943,-4.8604,-4.8789,-4.9497,-5.0205,-5.0938,-5.1673,-5.2471,-5.3055,-5.329,-5.3783,-5.4099,-5.4376,-5.4176,-5.4162,-5.4637,-5.4209,-5.3752,-5.3743,-5.4377,-5.4479,-5.3652,-5.389,-5.3993,-5.3605,-5.3919,-5.4332,-5.4486,-5.4866,-5.5284,-5.5881,-5.6595,-5.7062,-5.7274,-5.6851,-5.6851,-5.7303,-5.6851,-5.6851,-5.7303,-5.7303,-5.7303,-5.7303,-5.6851,-5.6851,0.0,0.0,0.0,-3.3467,0.0,0.0,0.0,0.0,-3.3056,-3.2412,-3.2285,-3.2013,-3.1318,-3.1191,-3.097,-3.0243,-3.0148,0.0,0.0,-2.9091,-2.9013,-2.892,0.0,0.0,0.0,-2.9806,-3.0316,-3.1517,-3.1557,-3.1813,-3.2351,-3.2413,-3.3059,-3.4445,-3.4506,-3.5153,-3.6476,-3.6507,-3.6507,-3.6507,-3.6507,-3.6507,-3.6507,-3.6507,-3.6507,-3.6569,-3.7923,-3.8508,-3.86,-3.9955,-4.0909,-4.1648,-4.2355,-4.3033,-4.3741,-4.5095,-4.5588,-4.5588,-4.5557,-4.6419,-4.7619,-4.8327,-4.9097,-4.9589,-4.885,-4.9127,-4.9558,-4.882,-4.8604,-4.8789,-4.9497,-5.0205,-5.0851,-5.1528,-5.2206,-5.2877,-5.329,-5.3233,-5.3392,-5.4282,-5.5,-5.5502,-5.5655,-5.4141,-5.3347,-5.4433,-5.4827,-5.516,-5.569,-5.5819,-5.5819,-5.5819,-5.5819,-5.5521,-5.4713,-5.5768,-5.6721,-5.7158,-5.8026,-5.8166,-5.7303,-5.7303,-5.7303,-5.7303,-5.7303,-5.7303,-5.7303,-5.7303,-5.7303,-5.7303,-5.7303,-5.7303,0.0,0.0,-3.4225,-3.4004,0.0,0.0,0.0,0.0,0.0,-3.3087,-3.3309,-3.3245,-3.2139,-3.1918,-3.1665,-3.097,-3.0464,-3.0085,0.0,-2.9832,-2.9643,-2.9076,-2.8967,-2.8967,0.0,0.0,0.0,-3.0216,-3.0608,-3.1081,-3.1674,-3.2567,-3.349,-3.4445,-3.4906,-3.5584,-3.6476,-3.6507,-3.6507,-3.6507,-3.6507,-3.6507,-3.6507,-3.6507,-3.6507,-3.6538,-3.7461,-3.8108,-3.8569,-3.9493,-4.0262,-4.1001,-4.2171,-4.3002,-4.3741,-4.5095,-4.5311,-4.4972,-4.5434,-4.6172,-4.7065,-4.7742,-4.8727,-4.9558,-4.882,-4.9127,-4.9528,-4.882,-4.8604,-4.8789,-4.9497,-5.0345,-5.1079,-5.1964,-5.2854,-5.344,-5.3584,-5.4304,-5.4902,-5.5062,-5.5937,-5.659,-5.6617,-5.6234,-5.5877,-5.5758,-5.6085,-5.628,-5.5918,-5.5918,-5.5918,-5.5918,-5.6282,-5.6425,-5.6124,-5.7329,-5.8189,-5.8321,-5.9014,-5.9362,-5.9039,-5.9039,-5.8714,-5.8195,-5.8195,-5.7863,-5.7303,-5.7303,-5.7303,-5.7303,-5.7303,-5.7303,-3.5142,-3.5047,0.0,-3.4668,-3.4668,0.0,-3.3814,0.0,-3.4415,0.0,-3.3814,-3.3941,-3.2835,-3.2645,-3.2392,-3.1697,-3.1223,-3.0844,0.0,-3.0559,-3.037,-2.9927,-2.9549,-2.925,-2.892,-2.8779,-2.9042,-2.9875,-3.0269,-3.0865,0.0,0.0,-3.3737,-3.4445,-3.5122,-3.5799,-3.6476,-3.6507,-3.6507,-3.6507,-3.6507,-3.6507,-3.6507,-3.6507,-3.663,-3.6876,-3.7554,-3.8262,-3.8939,-3.9585,-4.0293,-4.1032,-4.2171,-4.3156,-4.4048,-4.5187,-4.5618,-4.568,-4.5865,-4.6542,-4.7373,-4.7835,-4.8573,-4.922,-4.8758,-4.8943,-4.9312,-4.9343,-4.9189,-4.922,-5.0229,-5.0955,-5.1561,-5.2113,-5.2996,-5.3671,-5.3671,-5.4491,-5.5246,-5.5405,-5.6062,-5.671,-5.7053,-5.7275,-5.7275,-5.6796,-5.718,-5.7463,-5.7135,-5.7069,-5.7259,-5.7475,-5.7875,-5.8116,-5.8062,-5.8889,-5.9295,-5.9301,-5.9967,-6.0211,-5.9895,-5.9895,-5.9894,-5.9837,-5.9279,-5.9061,-5.8955,-5.8512,-5.8166,-5.8166,-5.8166,-5.8166]}]]